Windows 10: KB3140743 fails to update Solved

Page 2 of 5 FirstFirst 1234 ... LastLast

  1. Posts : 30,344
    Windows10Pro 64Bit - Build 15063.483
       02 Mar 2016 #11

    @mpoffo
    Nortons never has stopped any of my Windows update. I have Nortons on 2 different computers. As far as an error log, for update issues, I'm not sure. simrick will most likey know. You are not alone thou, seems to be a few others with problems installing these latest updates. Right now I would suggest waiting for simrick to give you more suggestions. Strange that you DID install 1 of the 2 updates thou successfully. Check your service settings for Windows Firewall when you get home, just to make sure its ON Automatic. if it is not....after you change it to Auto, Reboot .....
      My ComputersSystem Spec


  2. Posts : 11,945
    W10Prox64
       02 Mar 2016 #12

    Sorry guys. Snow day today, so I am kind of preoccupied. Does this help?
    https://support.microsoft.com/en-us/kb/902093

    There's also setuperr.log usually in C:\Windows or C:\Windows\Logs. I can't get into a W10 general release rig ATM, only Insider rigs.
      My ComputerSystem Spec


  3. Posts : 30,344
    Windows10Pro 64Bit - Build 15063.483
       02 Mar 2016 #13

    Well found a link from MS if you want to try manual install.
    http://catalog.update.microsoft.com/...px?q=kb3140743
    But doing some google searching found lots of other people had the same problem with only THIS KB3140743 update.
    When you get home, check your Win version. Just to see if you are on build 10586.122 If you are, then maybe you should just wait for a while, IF you are having no other problems with your Windows. Just a thought.
      My ComputersSystem Spec

  4.    02 Mar 2016 #14

    Thanks for the suggestions. I will check out those options . I did try the manual install of the update but had the same issues.

    OldMike, I do believe I have that build of windows 10 currently. I will double check when I get home later.
      My ComputerSystem Spec

  5.    02 Mar 2016 #15

    I have windows 10 version 10586.04. Just got home so I am hoping to get it working.

    To get the windows 10 update log you need to run a command from Windows Powershell:

    https://support.microsoft.com/en-us/kb/3036646
    Here are the entries from yesterday and today. I am not very versed at reading these so I am hoping someone else can.

    Code:
    2016/03/01 19:13:39.6272581 528   8464  Agent           WU client version 10.0.10586.103
    2016/03/01 19:13:39.6274939 528   8464  Agent           SleepStudyTracker: Machine is non-AOAC. Sleep study tracker disabled.
    2016/03/01 19:13:39.6275515 528   8464  Agent           Base directory: C:\WINDOWS\SoftwareDistribution
    2016/03/01 19:13:39.6276085 528   8464  Shared          UpdateNetworkState Ipv6, cNetworkInterfaces = 5.
    2016/03/01 19:13:39.6276225 528   8464  Shared          UpdateNetworkState Ipv4, cNetworkInterfaces = 1.
    2016/03/01 19:13:39.6281448 528   8464  Shared          Network state: Connected
    2016/03/01 19:13:39.6384331 528   8464  Shared          UpdateNetworkState Ipv6, cNetworkInterfaces = 5.
    2016/03/01 19:13:39.6384379 528   8464  Shared          UpdateNetworkState Ipv4, cNetworkInterfaces = 1.
    2016/03/01 19:13:39.6384417 528   8464  Shared          Power status changed
    2016/03/01 19:13:39.6672279 528   8464  Agent           Initializing global settings cache
    2016/03/01 19:13:39.6672282 528   8464  Agent           WSUS server: NULL
    2016/03/01 19:13:39.6672285 528   8464  Agent           WSUS status server: NULL
    2016/03/01 19:13:39.6672288 528   8464  Agent           Target group: (Unassigned Computers)
    2016/03/01 19:13:39.6672291 528   8464  Agent           Windows Update access disabled: No
    2016/03/01 19:13:39.6672819 528   2172  Agent               Timer: 29A863E7-8609-4D1E-B7CD-5668F857F1DB, Expires 2016-03-01 03:42:23, not idle-only, not network-only
    2016/03/01 19:13:39.6703350 528   2172  Agent           Initializing Windows Update Agent
    2016/03/01 19:13:39.6706070 528   2172  DownloadManager Download manager restoring 0 downloads
    2016/03/01 19:13:39.6710237 528   2172  Agent           CPersistentTimeoutScheduler | GetTimer, returned hr = 0x00000000
    2016/03/01 19:13:39.6710269 528   2172  Agent           Adding timer:
    2016/03/01 19:13:39.6710326 528   2172  Agent               Timer: 29A863E7-8609-4D1E-B7CD-5668F857F1DB, Expires 2016-03-02 01:13:41, not idle-only, not network-only
    2016/03/01 19:13:39.6726877 1380  1840  ComApi          *QUEUED* SLS Discovery
    2016/03/01 19:13:39.6757190 1380  1612  ComApi          *RESUMED* Discovery
    2016/03/01 19:13:39.6757549 1380  1612  Api             * END *   Discovery ClientId
    2016/03/01 19:13:39.6764061 1380  1840  ComApi          ISusInternal:: DisconnectCall failed, hr=8024000C
    2016/03/01 19:13:40.4230776 1380  1844  ComApi          * START *   SLS Discovery
    2016/03/01 19:13:40.4237029 1380  1844  ComApi          *QUEUED* SLS Discovery
    2016/03/01 19:13:40.4429537 1380  1436  ComApi          *RESUMED* Discovery
    2016/03/01 19:13:40.4429892 1380  1436  Api             * END *   Discovery ClientId
    2016/03/01 19:13:40.4435515 1380  1844  ComApi          ISusInternal:: DisconnectCall failed, hr=8024000C
    2016/03/01 19:13:41.6665443 528   8464  Agent           Adding timer:
    2016/03/01 19:13:41.6665584 528   8464  Agent               Timer: 29A863E7-8609-4D1E-B7CD-5668F857F1DB, Expires 2016-03-03 01:13:41, not idle-only, not network-only
    2016/03/01 19:13:44.5068600 528   8248  DownloadManager PurgeExpiredFiles::Found 0 expired files to delete.
    2016/03/01 19:13:44.5153701 528   8248  DownloadManager PurgeExpiredUpdates::Found 443 non expired updates.
    2016/03/01 19:13:44.5650416 528   8248  DownloadManager PurgeExpiredUpdates::Found 0 expired updates.
    2016/03/01 19:13:44.5675245 528   8248  Shared          Effective power state: AC
    2016/03/01 19:13:44.5675251 528   8248  DownloadManager Power state change detected. Source now: AC
    2016/03/01 19:13:44.5719379 528   8248  DownloadManager PurgeExpiredFiles::Found 0 expired files to delete.
    2016/03/01 19:13:44.5796441 528   8248  DownloadManager PurgeExpiredUpdates::Found 443 non expired updates.
    2016/03/01 19:13:44.6089861 528   8248  DownloadManager PurgeExpiredUpdates::Found 0 expired updates.
    2016/03/01 19:13:50.5051401 9628  9576  ComApi          * START *   SLS Discovery
    2016/03/01 19:13:50.5051481 9628  9564  ComApi          * START *   SLS Discovery
    2016/03/01 19:13:50.5076725 9628  9576  ComApi          *QUEUED* SLS Discovery
    2016/03/01 19:13:50.5077538 9628  9564  ComApi          *QUEUED* SLS Discovery
    2016/03/01 19:13:50.5092978 9628  9580  ComApi          *RESUMED* Discovery
    2016/03/01 19:13:50.5093372 9628  9580  Api             * END *   Discovery ClientId
    2016/03/01 19:13:50.5100143 9628  9576  ComApi          ISusInternal:: DisconnectCall failed, hr=8024000C
    2016/03/01 19:13:50.5102546 9628  9580  ComApi          *RESUMED* Discovery
    2016/03/01 19:13:50.5102904 9628  9580  Api             * END *   Discovery ClientId
    2016/03/01 19:13:50.5108504 9628  9564  ComApi          ISusInternal:: DisconnectCall failed, hr=8024000C
    2016/03/01 19:14:19.6352782 528   9852  ComApi          * START *   Init Search ClientId = UpdateOrchestrator
    2016/03/01 19:14:19.6352820 528   9852  ComApi          * START *   Search ClientId = UpdateOrchestrator
    2016/03/01 19:14:19.7696934 528   9852  Agent           * START * Queueing Finding updates [CallerId = UpdateOrchestrator  Id = 5]
    2016/03/01 19:14:19.7697002 528   9852  Agent           Added service 00000000-0000-0000-0000-000000000000 to sequential scan list
    2016/03/01 19:14:19.7697232 528   9852  ComApi          Search ClientId = UpdateOrchestrator
    2016/03/01 19:14:19.7708755 528   9692  Agent           * END * Queueing Finding updates [CallerId = UpdateOrchestrator  Id = 5]
    2016/03/01 19:14:19.7715459 528   9692  Agent           * START * Finding updates CallerId = UpdateOrchestrator  Id = 5
    2016/03/01 19:14:19.7715469 528   9692  Agent           Online = Yes; Ignore download priority = No
    2016/03/01 19:14:19.7715475 528   9692  Agent           Criteria = IsInstalled=0 and DeploymentAction='Installation' or IsPresent=1 and DeploymentAction='Uninstallation' or IsInstalled=1 and DeploymentAction='Installation' and RebootRequired=1 or IsInstalled=0 and DeploymentAction='Uninstallation' and RebootRequired=1""
    2016/03/01 19:14:19.7715520 528   9692  Agent           ServiceID = {00000000-0000-0000-0000-000000000000} Third party service
    2016/03/01 19:14:19.7715526 528   9692  Agent           Search Scope = {Machine}
    2016/03/01 19:14:19.7715562 528   9692  Agent           Caller SID for Applicability: S-1-5-21-1072330415-2185792746-4136086322-1000
    2016/03/01 19:14:19.7715568 528   9692  Agent           RegisterService is set
    2016/03/01 19:14:19.7733997 528   9692  Misc            Got 9482F4B4-E343-43B6-B170-9A65BC822C77 redir SecondaryServiceAuth URL: 7971f918-a847-4430-9279-4a52d1efe18d""
    2016/03/01 19:14:19.7751197 528   9692  SLS             Retrieving SLS response from server using ETAG Ww/uzEDtiHGuCQKdqqiVoucsE3BysNngQpDk+NfngSU=_1440"..."
    2016/03/01 19:14:19.7756918 528   9692  SLS             Making request with URL https://sls.update.microsoft.com/SLS...10.0.10586.103
    2016/03/01 19:14:20.1541937 528   9692  Misc            StatusCode for transaction returned from WinHttpQueryHeaders is 304
    2016/03/01 19:14:20.1805667 528   9692  Misc            Got 7971F918-A847-4430-9279-4A52D1EFE18D redir Client/Server URL: https://fe2.update.microsoft.com/v6/...ce/client.asmx""
    2016/03/01 19:14:21.2556865 528   9692  ProtocolTalker  ServiceId = {7971F918-A847-4430-9279-4A52D1EFE18D}, Server URL = https://fe2.update.microsoft.com/v6/...ce/client.asmx
    2016/03/01 19:14:21.2556932 528   9692  ProtocolTalker  OK to reuse existing configuration
    2016/03/01 19:14:21.2556954 528   9692  ProtocolTalker  Existing cookie is valid, just use it
    2016/03/01 19:14:22.4927011 528   9692  WebServices     Auto proxy settings for this web service call.
    2016/03/01 19:14:32.4513780 528   9692  ProtocolTalker  PTInfo: syncing with server using normal query
    2016/03/01 19:14:32.9605600 528   9692  ProtocolTalker  SyncUpdates round trips: 2
    2016/03/01 19:14:32.9791910 528   9692  Driver          Matched driver to device PCI\VEN_8086&DEV_3CE4&SUBSYS_84EF1043&REV_07
    2016/03/01 19:14:32.9791917 528   9692  Driver          Status: 0x1802000, ProblemNumber: 00000000
    2016/03/01 19:14:32.9793165 528   9692  Driver          DrvUtil: {PCI\VEN_8086&DEV_3CE4}
    2016/03/01 19:14:32.9793651 528   9692  Driver          Matched driver to device PCI\VEN_8086&DEV_3C28&SUBSYS_84EF1043&REV_07
    2016/03/01 19:14:32.9793651 528   9692  Driver          Status: 0x1802000, ProblemNumber: 00000000
    2016/03/01 19:14:32.9794125 528   9692  Driver          DrvUtil: {PCI\VEN_8086&DEV_3C28}
    2016/03/01 19:14:32.9794819 528   9692  Driver          Matched driver to device PCI\VEN_8086&DEV_3CD0&SUBSYS_84EF1043&REV_07
    2016/03/01 19:14:32.9794819 528   9692  Driver          Status: 0x1802000, ProblemNumber: 00000000
    2016/03/01 19:14:32.9795072 528   9692  Driver          DrvUtil: {PCI\VEN_8086&DEV_3CD0}
    2016/03/01 19:14:32.9795453 528   9692  Driver          Matched driver to device PCI\VEN_8086&DEV_3C46&SUBSYS_84EF1043&REV_07
    2016/03/01 19:14:32.9795453 528   9692  Driver          Status: 0x1802000, ProblemNumber: 00000000
    2016/03/01 19:14:32.9796016 528   9692  Driver          DrvUtil: {PCI\VEN_8086&DEV_3C46}
    2016/03/01 19:14:32.9796262 528   9692  Driver          Matched driver to device PCI\VEN_8086&DEV_3CE3&SUBSYS_84EF1043&REV_07
    2016/03/01 19:14:32.9796262 528   9692  Driver          Status: 0x1802000, ProblemNumber: 00000000
    2016/03/01 19:14:32.9796963 528   9692  Driver          DrvUtil: {PCI\VEN_8086&DEV_3CE3}
    2016/03/01 19:14:32.9797056 528   9692  Driver          Matched driver to device PCI\VEN_8086&DEV_3CB8&SUBSYS_84EF1043&REV_07
    2016/03/01 19:14:32.9797059 528   9692  Driver          Status: 0x1802000, ProblemNumber: 00000000
    2016/03/01 19:14:32.9797910 528   9692  Driver          DrvUtil: {PCI\VEN_8086&DEV_3CB8}
    2016/03/01 19:14:32.9798061 528   9692  Driver          Matched driver to device PCI\VEN_8086&DEV_3CB7&SUBSYS_84EF1043&REV_07
    2016/03/01 19:14:32.9798064 528   9692  Driver          Status: 0x1802000, ProblemNumber: 00000000
    2016/03/01 19:14:32.9798854 528   9692  Driver          DrvUtil: {PCI\VEN_8086&DEV_3CB7}
    2016/03/01 19:14:32.9798995 528   9692  Driver          Matched driver to device PCI\VEN_8086&DEV_3CC0&SUBSYS_84EF1043&REV_07
    2016/03/01 19:14:32.9798998 528   9692  Driver          Status: 0x1802000, ProblemNumber: 00000000
    2016/03/01 19:14:32.9799811 528   9692  Driver          DrvUtil: {PCI\VEN_8086&DEV_3CC0}
    2016/03/01 19:14:32.9800774 528   9692  Driver          Matched driver to device PCI\VEN_8086&DEV_3CAA&SUBSYS_84EF1043&REV_07
    2016/03/01 19:14:32.9800777 528   9692  Driver          Status: 0x1802000, ProblemNumber: 00000000
    2016/03/01 19:14:32.9800800 528   9692  Driver          DrvUtil: {PCI\VEN_8086&DEV_3CAA}
    2016/03/01 19:14:32.9801149 528   9692  Driver          Matched driver to device PCI\VEN_8086&DEV_3C2C&SUBSYS_84EF1043&REV_07
    2016/03/01 19:14:32.9801149 528   9692  Driver          Status: 0x1802000, ProblemNumber: 00000000
    2016/03/01 19:14:32.9801744 528   9692  Driver          DrvUtil: {PCI\VEN_8086&DEV_3C2C}
    2016/03/01 19:14:32.9802000 528   9692  Driver          Matched driver to device PCI\VEN_8086&DEV_3CB5&SUBSYS_84EF1043&REV_07
    2016/03/01 19:14:32.9802000 528   9692  Driver          Status: 0x1802000, ProblemNumber: 00000000
    2016/03/01 19:14:32.9802688 528   9692  Driver          DrvUtil: {PCI\VEN_8086&DEV_3CB5}
    2016/03/01 19:14:32.9803174 528   9692  Driver          Matched driver to device PCI\VEN_8086&DEV_3C45&SUBSYS_84EF1043&REV_07
    2016/03/01 19:14:32.9803174 528   9692  Driver          Status: 0x1802000, ProblemNumber: 00000000
    2016/03/01 19:14:32.9803635 528   9692  Driver          DrvUtil: {PCI\VEN_8086&DEV_3C45}
    2016/03/01 19:14:32.9804333 528   9692  Driver          Matched driver to device PCI\VEN_8086&DEV_3CF5&SUBSYS_84EF1043&REV_07
    2016/03/01 19:14:32.9804336 528   9692  Driver          Status: 0x1802000, ProblemNumber: 00000000
    2016/03/01 19:14:32.9804579 528   9692  Driver          DrvUtil: {PCI\VEN_8086&DEV_3CF5}
    2016/03/01 19:14:32.9805456 528   9692  Driver          Matched driver to device PCI\VEN_8086&DEV_3CE8&SUBSYS_84EF1043&REV_07
    2016/03/01 19:14:32.9805459 528   9692  Driver          Status: 0x1802000, ProblemNumber: 00000000
    2016/03/01 19:14:32.9805462 528   9692  Driver          Matched driver to device PCI\VEN_8086&DEV_3CE8&SUBSYS_84EF1043&REV_07
    2016/03/01 19:14:32.9805465 528   9692  Driver          Status: 0x1802000, ProblemNumber: 00000000
    2016/03/01 19:14:32.9805469 528   9692  Driver          Matched driver to device PCI\VEN_8086&DEV_3CE8&SUBSYS_84EF1043&REV_07
    2016/03/01 19:14:32.9805472 528   9692  Driver          Status: 0x1802000, ProblemNumber: 00000000
    2016/03/01 19:14:32.9805475 528   9692  Driver          Matched driver to device PCI\VEN_8086&DEV_3CE8&SUBSYS_84EF1043&REV_07
    2016/03/01 19:14:32.9805478 528   9692  Driver          Status: 0x1802000, ProblemNumber: 00000000
    2016/03/01 19:14:32.9805485 528   9692  Driver          Matched driver to device PCI\VEN_8086&DEV_3CE8&SUBSYS_84EF1043&REV_07
    2016/03/01 19:14:32.9805485 528   9692  Driver          Status: 0x1802000, ProblemNumber: 00000000
    2016/03/01 19:14:32.9805491 528   9692  Driver          Matched driver to device PCI\VEN_8086&DEV_3CE8&SUBSYS_84EF1043&REV_07
    2016/03/01 19:14:32.9805491 528   9692  Driver          Status: 0x1802000, ProblemNumber: 00000000
    2016/03/01 19:14:32.9805520 528   9692  Driver          DrvUtil: {PCI\VEN_8086&DEV_3CE8}
    2016/03/01 19:14:32.9805597 528   9692  Driver          Matched driver to device PCI\VEN_8086&DEV_3C04&SUBSYS_84EF1043&REV_07
    2016/03/01 19:14:32.9805597 528   9692  Driver          Status: 0x180200a, ProblemNumber: 00000000
    2016/03/01 19:14:32.9806461 528   9692  Driver          DrvUtil: {PCI\VEN_8086&DEV_3C04}
    2016/03/01 19:14:32.9806969 528   9692  Driver          Matched driver to device PCI\VEN_8086&DEV_3C44&SUBSYS_84EF1043&REV_07
    2016/03/01 19:14:32.9806969 528   9692  Driver          Status: 0x1802000, ProblemNumber: 00000000
    2016/03/01 19:14:32.9807401 528   9692  Driver          DrvUtil: {PCI\VEN_8086&DEV_3C44}
    2016/03/01 19:14:32.9808166 528   9692  Driver          Matched driver to device PCI\VEN_8086&DEV_3CF4&SUBSYS_84EF1043&REV_07
    2016/03/01 19:14:32.9808169 528   9692  Driver          Status: 0x1802000, ProblemNumber: 00000000
    2016/03/01 19:14:32.9808349 528   9692  Driver          DrvUtil: {PCI\VEN_8086&DEV_3CF4}
    2016/03/01 19:14:32.9808928 528   9692  Driver          Matched driver to device PCI\VEN_8086&DEV_3C08&SUBSYS_84EF1043&REV_07
    2016/03/01 19:14:32.9808931 528   9692  Driver          Status: 0x180200a, ProblemNumber: 00000000
    2016/03/01 19:14:32.9809286 528   9692  Driver          DrvUtil: {PCI\VEN_8086&DEV_3C08}
    2016/03/01 19:14:32.9809891 528   9692  Driver          Matched driver to device PCI\VEN_8086&DEV_3C94&SUBSYS_84EF1043&REV_07
    2016/03/01 19:14:32.9809891 528   9692  Driver          Status: 0x1802000, ProblemNumber: 00000000
    2016/03/01 19:14:32.9810227 528   9692  Driver          DrvUtil: {PCI\VEN_8086&DEV_3C94}
    2016/03/01 19:14:32.9810339 528   9692  Driver          Matched driver to device PCI\VEN_8086&DEV_3C2A&SUBSYS_84EF1043&REV_07
    2016/03/01 19:14:32.9810339 528   9692  Driver          Status: 0x1802000, ProblemNumber: 00000000
    2016/03/01 19:14:32.9811222 528   9692  Driver          DrvUtil: {PCI\VEN_8086&DEV_3C2A}
    2016/03/01 19:14:32.9812045 528   9692  Driver          Matched driver to device PCI\VEN_8086&DEV_3CA0&SUBSYS_84EF1043&REV_07
    2016/03/01 19:14:32.9812048 528   9692  Driver          Status: 0x1802000, ProblemNumber: 00000000
    2016/03/01 19:14:32.9812173 528   9692  Driver          DrvUtil: {PCI\VEN_8086&DEV_3CA0}
    2016/03/01 19:14:32.9812957 528   9692  Driver          Matched driver to device PCI\VEN_8086&DEV_3C90&SUBSYS_84EF1043&REV_07
    2016/03/01 19:14:32.9812957 528   9692  Driver          Status: 0x1802000, ProblemNumber: 00000000
    2016/03/01 19:14:32.9813123 528   9692  Driver          DrvUtil: {PCI\VEN_8086&DEV_3C90}
    2016/03/01 19:14:32.9813462 528   9692  Driver          Matched driver to device PCI\VEN_8086&DEV_3CB3&SUBSYS_84EF1043&REV_07
    2016/03/01 19:14:32.9813465 528   9692  Driver          Status: 0x1802000, ProblemNumber: 00000000
    2016/03/01 19:14:32.9814064 528   9692  Driver          DrvUtil: {PCI\VEN_8086&DEV_3CB3}
    2016/03/01 19:14:32.9814774 528   9692  Driver          Matched driver to device PCI\VEN_8086&DEV_3CAE&SUBSYS_84EF1043&REV_07
    2016/03/01 19:14:32.9814777 528   9692  Driver          Status: 0x1802000, ProblemNumber: 00000000
    2016/03/01 19:14:32.9815011 528   9692  Driver          DrvUtil: {PCI\VEN_8086&DEV_3CAE}
    2016/03/01 19:14:32.9815878 528   9692  Driver          DrvUtil: {USBPRINT\HPENVY_7640_seriesDEC3}
    2016/03/01 19:14:32.9816704 528   9692  Driver          Matched driver to device USB\VID_04E8&PID_6860&REV_0400
    2016/03/01 19:14:32.9816704 528   9692  Driver          Status: 00000000, ProblemNumber: 00000000
    2016/03/01 19:14:32.9816771 528   9692  Driver          DrvUtil: {USB\VID_04E8&PID_6860}
    2016/03/01 19:14:32.9816985 528   9692  Driver          Matched driver to device PCI\VEN_8086&DEV_3CB6&SUBSYS_84EF1043&REV_07
    2016/03/01 19:14:32.9816988 528   9692  Driver          Status: 0x1802000, ProblemNumber: 00000000
    2016/03/01 19:14:32.9817718 528   9692  Driver          DrvUtil: {PCI\VEN_8086&DEV_3CB6}
    2016/03/01 19:14:32.9818473 528   9692  Driver          Matched driver to device PCI\VEN_8086&DEV_3C02&SUBSYS_84EF1043&REV_07
    2016/03/01 19:14:32.9818473 528   9692  Driver          Status: 0x180200a, ProblemNumber: 00000000
    2016/03/01 19:14:32.9818659 528   9692  Driver          DrvUtil: {PCI\VEN_8086&DEV_3C02}
    2016/03/01 19:14:32.9819513 528   9692  Driver          Matched driver to device PCI\VEN_8086&DEV_3CAB&SUBSYS_84EF1043&REV_07
    2016/03/01 19:14:32.9819516 528   9692  Driver          Status: 0x1802000, ProblemNumber: 00000000
    2016/03/01 19:14:32.9819600 528   9692  Driver          DrvUtil: {PCI\VEN_8086&DEV_3CAB}
    2016/03/01 19:14:32.9820163 528   9692  Driver          Matched driver to device PCI\VEN_8086&DEV_1D10&SUBSYS_84EF1043&REV_B6
    2016/03/01 19:14:32.9820166 528   9692  Driver          Status: 0x180200a, ProblemNumber: 00000000
    2016/03/01 19:14:32.9820534 528   9692  Driver          DrvUtil: {PCI\VEN_8086&DEV_1D10}
    2016/03/01 19:14:32.9821270 528   9692  Driver          Matched driver to device PCI\VEN_8086&DEV_1D1E&SUBSYS_84EF1043&REV_B6
    2016/03/01 19:14:32.9821273 528   9692  Driver          Status: 0x180200a, ProblemNumber: 00000000
    2016/03/01 19:14:32.9821462 528   9692  Driver          DrvUtil: {PCI\VEN_8086&DEV_1D1E}
    2016/03/01 19:14:32.9821628 528   9692  Driver          Matched driver to device ACPI\VEN_INT&DEV_3F0D
    2016/03/01 19:14:32.9821632 528   9692  Driver          Status: 0x41802000, ProblemNumber: 00000000
    2016/03/01 19:14:32.9822313 528   9692  Driver          DrvUtil: {ACPI\INT3F0D}
    2016/03/01 19:14:32.9822598 528   9692  Driver          Matched driver to device PCI\VEN_8086&DEV_1D1A&SUBSYS_84EF1043&REV_B6
    2016/03/01 19:14:32.9822601 528   9692  Driver          Status: 0x180200a, ProblemNumber: 00000000
    2016/03/01 19:14:32.9823244 528   9692  Driver          DrvUtil: {PCI\VEN_8086&DEV_1D1A}
    2016/03/01 19:14:32.9824076 528   9692  Driver          Matched driver to device PCI\VEN_8086&DEV_3CAC&SUBSYS_84EF1043&REV_07
    2016/03/01 19:14:32.9824076 528   9692  Driver          Status: 0x1802000, ProblemNumber: 00000000
    2016/03/01 19:14:32.9824185 528   9692  Driver          DrvUtil: {PCI\VEN_8086&DEV_3CAC}
    2016/03/01 19:14:32.9824659 528   9692  Driver          Matched driver to device PCI\VEN_8086&DEV_1D3A&SUBSYS_84EF1043&REV_05
    2016/03/01 19:14:32.9824659 528   9692  Driver          Status: 0x180200a, ProblemNumber: 00000000
    2016/03/01 19:14:32.9826537 528   9692  Driver          DrvUtil: {pci\ven_8086&dev_1d3a}
    2016/03/01 19:14:32.9827203 528   9692  Driver          Matched driver to device PCI\VEN_8086&DEV_3C93&SUBSYS_84EF1043&REV_07
    2016/03/01 19:14:32.9827206 528   9692  Driver          Status: 0x1802000, ProblemNumber: 00000000
    2016/03/01 19:14:32.9827545 528   9692  Driver          DrvUtil: {PCI\VEN_8086&DEV_3C93}
    2016/03/01 19:14:32.9827577 528   9692  Driver          Matched driver to device PCI\VEN_8086&DEV_3CC2&SUBSYS_84EF1043&REV_07
    2016/03/01 19:14:32.9827580 528   9692  Driver          Status: 0x1802000, ProblemNumber: 00000000
    2016/03/01 19:14:32.9828502 528   9692  Driver          DrvUtil: {PCI\VEN_8086&DEV_3CC2}
    2016/03/01 19:14:32.9828947 528   9692  Driver          Matched driver to device PCI\VEN_8086&DEV_3CE0&SUBSYS_84EF1043&REV_07
    2016/03/01 19:14:32.9828950 528   9692  Driver          Status: 0x1802000, ProblemNumber: 00000000
    2016/03/01 19:14:32.9829449 528   9692  Driver          DrvUtil: {PCI\VEN_8086&DEV_3CE0}
    2016/03/01 19:14:32.9830038 528   9692  Driver          Matched driver to device PCI\VEN_8086&DEV_1D18&SUBSYS_84EF1043&REV_B6
    2016/03/01 19:14:32.9830041 528   9692  Driver          Status: 0x180200a, ProblemNumber: 00000000
    2016/03/01 19:14:32.9830380 528   9692  Driver          DrvUtil: {PCI\VEN_8086&DEV_1D18}
    2016/03/01 19:14:32.9830470 528   9692  Driver          Matched driver to device PCI\VEN_8086&DEV_3CE6&SUBSYS_84EF1043&REV_07
    2016/03/01 19:14:32.9830470 528   9692  Driver          Status: 0x1802000, ProblemNumber: 00000000
    2016/03/01 19:14:32.9831321 528   9692  Driver          DrvUtil: {PCI\VEN_8086&DEV_3CE6}
    2016/03/01 19:14:32.9831625 528   9692  Driver          Matched driver to device PCI\VEN_8086&DEV_3CB4&SUBSYS_84EF1043&REV_07
    2016/03/01 19:14:32.9831628 528   9692  Driver          Status: 0x1802000, ProblemNumber: 00000000
    2016/03/01 19:14:32.9832262 528   9692  Driver          DrvUtil: {PCI\VEN_8086&DEV_3CB4}
    2016/03/01 19:14:32.9832761 528   9692  Driver          Matched driver to device PCI\VEN_8086&DEV_3CB1&SUBSYS_84EF1043&REV_07
    2016/03/01 19:14:32.9832764 528   9692  Driver          Status: 0x1802000, ProblemNumber: 00000000
    2016/03/01 19:14:32.9833209 528   9692  Driver          DrvUtil: {PCI\VEN_8086&DEV_3CB1}
    2016/03/01 19:14:32.9833993 528   9692  Driver          Matched driver to device PCI\VEN_8086&DEV_3CAD&SUBSYS_84EF1043&REV_07
    2016/03/01 19:14:32.9833993 528   9692  Driver          Status: 0x1802000, ProblemNumber: 00000000
    2016/03/01 19:14:32.9834150 528   9692  Driver          DrvUtil: {PCI\VEN_8086&DEV_3CAD}
    2016/03/01 19:14:32.9834419 528   9692  Driver          Matched driver to device PCI\VEN_8086&DEV_3C0A&SUBSYS_84EF1043&REV_07
    2016/03/01 19:14:32.9834422 528   9692  Driver          Status: 0x180200a, ProblemNumber: 00000000
    2016/03/01 19:14:32.9835088 528   9692  Driver          DrvUtil: {PCI\VEN_8086&DEV_3C0A}
    2016/03/01 19:14:32.9835312 528   9692  Driver          Matched driver to device PCI\VEN_8086&DEV_3C80&SUBSYS_84EF1043&REV_07
    2016/03/01 19:14:32.9835315 528   9692  Driver          Status: 0x1802000, ProblemNumber: 00000000
    2016/03/01 19:14:32.9836028 528   9692  Driver          DrvUtil: {PCI\VEN_8086&DEV_3C80}
    2016/03/01 19:14:32.9836553 528   9692  Driver          Matched driver to device PCI\VEN_8086&DEV_3CB0&SUBSYS_84EF1043&REV_07
    2016/03/01 19:14:32.9836556 528   9692  Driver          Status: 0x1802000, ProblemNumber: 00000000
    2016/03/01 19:14:32.9836966 528   9692  Driver          DrvUtil: {PCI\VEN_8086&DEV_3CB0}
    2016/03/01 19:14:32.9837123 528   9692  Driver          Matched driver to device PCI\VEN_8086&DEV_1D26&SUBSYS_84EF1043&REV_06
    2016/03/01 19:14:32.9837123 528   9692  Driver          Status: 0x180000a, ProblemNumber: 00000000
    2016/03/01 19:14:32.9837897 528   9692  Driver          DrvUtil: {PCI\VEN_8086&DEV_1D26}
    2016/03/01 19:14:32.9838348 528   9692  Driver          Matched driver to device PCI\VEN_8086&DEV_3CB2&SUBSYS_84EF1043&REV_07
    2016/03/01 19:14:32.9838352 528   9692  Driver          Status: 0x1802000, ProblemNumber: 00000000
    2016/03/01 19:14:32.9838835 528   9692  Driver          DrvUtil: {PCI\VEN_8086&DEV_3CB2}
    2016/03/01 19:14:32.9839331 528   9692  Driver          Matched driver to device PCI\VEN_8086&DEV_3CA8&SUBSYS_84EF1043&REV_07
    2016/03/01 19:14:32.9839334 528   9692  Driver          Status: 0x1802000, ProblemNumber: 00000000
    2016/03/01 19:14:32.9839772 528   9692  Driver          DrvUtil: {PCI\VEN_8086&DEV_3CA8}
    2016/03/01 19:14:32.9839894 528   9692  Driver          Matched driver to device PCI\VEN_8086&DEV_1D14&SUBSYS_84EF1043&REV_B6
    2016/03/01 19:14:32.9839894 528   9692  Driver          Status: 0x180200a, ProblemNumber: 00000000
    2016/03/01 19:14:32.9841020 528   9692  Driver          DrvUtil: {PCI\VEN_8086&DEV_1D14}
    2016/03/01 19:14:32.9841955 528   9692  Driver          Matched driver to device PCI\VEN_8086&DEV_3C84&SUBSYS_84EF1043&REV_07
    2016/03/01 19:14:32.9841958 528   9692  Driver          Status: 0x1802000, ProblemNumber: 00000000
    2016/03/01 19:14:32.9841968 528   9692  Driver          DrvUtil: {PCI\VEN_8086&DEV_3C84}
    2016/03/01 19:14:32.9842048 528   9692  Driver          Matched driver to device PCI\VEN_8086&DEV_3CC1&SUBSYS_84EF1043&REV_07
    2016/03/01 19:14:32.9842051 528   9692  Driver          Status: 0x1802000, ProblemNumber: 00000000
    2016/03/01 19:14:32.9842908 528   9692  Driver          DrvUtil: {PCI\VEN_8086&DEV_3CC1}
    2016/03/01 19:14:32.9843456 528   9692  Driver          Matched driver to device PCI\VEN_8086&DEV_3C00&SUBSYS_84EF1043&REV_07
    2016/03/01 19:14:32.9843456 528   9692  Driver          Status: 0x180000a, ProblemNumber: 00000000
    2016/03/01 19:14:32.9843843 528   9692  Driver          DrvUtil: {PCI\VEN_8086&DEV_3C00}
    2016/03/01 19:14:32.9844380 528   9692  Driver          Matched driver to device PCI\VEN_8086&DEV_3C43&SUBSYS_84EF1043&REV_07
    2016/03/01 19:14:32.9844380 528   9692  Driver          Status: 0x1802000, ProblemNumber: 00000000
    2016/03/01 19:14:32.9844777 528   9692  Driver          DrvUtil: {PCI\VEN_8086&DEV_3C43}
    2016/03/01 19:14:32.9845638 528   9692  Driver          Matched driver to device PCI\VEN_8086&DEV_1D2D&SUBSYS_84EF1043&REV_06
    2016/03/01 19:14:32.9845638 528   9692  Driver          Status: 0x180200a, ProblemNumber: 00000000
    2016/03/01 19:14:32.9845705 528   9692  Driver          DrvUtil: {PCI\VEN_8086&DEV_1D2D}
    2016/03/01 19:14:32.9845763 528   9692  Driver          Matched driver to device PCI\VEN_8086&DEV_3C83&SUBSYS_84EF1043&REV_07
    2016/03/01 19:14:32.9845766 528   9692  Driver          Status: 0x1802000, ProblemNumber: 00000000
    2016/03/01 19:14:32.9846636 528   9692  Driver          DrvUtil: {PCI\VEN_8086&DEV_3C83}
    2016/03/01 19:14:32.9847289 528   9692  Driver          Matched driver to device PCI\VEN_8086&DEV_3CF6&SUBSYS_84EF1043&REV_07
    2016/03/01 19:14:32.9847289 528   9692  Driver          Status: 0x1802000, ProblemNumber: 00000000
    2016/03/01 19:14:32.9847571 528   9692  Driver          DrvUtil: {PCI\VEN_8086&DEV_3CF6}
    2016/03/01 19:14:32.9848108 528   9692  Driver          Matched driver to device PCI\VEN_8086&DEV_3C71&SUBSYS_84EF1043&REV_07
    2016/03/01 19:14:32.9848108 528   9692  Driver          Status: 0x1802000, ProblemNumber: 00000000
    2016/03/01 19:14:32.9848512 528   9692  Driver          DrvUtil: {PCI\VEN_8086&DEV_3C71}
    2016/03/01 19:14:32.9848528 528   9692  Driver          Matched driver to device PCI\VEN_8086&DEV_1D3E&SUBSYS_84EF1043&REV_06
    2016/03/01 19:14:32.9848528 528   9692  Driver          Status: 0x180200a, ProblemNumber: 00000000
    2016/03/01 19:14:32.9849440 528   9692  Driver          DrvUtil: {PCI\VEN_8086&DEV_1D3E}
    2016/03/01 19:14:32.9850220 528   9692  Driver          Matched driver to device PCI\VEN_8086&DEV_1D12&SUBSYS_84EF1043&REV_B6
    2016/03/01 19:14:32.9850220 528   9692  Driver          Status: 0x180200a, ProblemNumber: 00000000
    2016/03/01 19:14:32.9850371 528   9692  Driver          DrvUtil: {PCI\VEN_8086&DEV_1D12}
    2016/03/01 19:14:32.9850732 528   9692  Driver          Matched driver to device PCI\VEN_8086&DEV_1D16&SUBSYS_84EF1043&REV_B6
    2016/03/01 19:14:32.9850732 528   9692  Driver          Status: 0x180200a, ProblemNumber: 00000000
    2016/03/01 19:14:32.9851318 528   9692  Driver          DrvUtil: {PCI\VEN_8086&DEV_1D16}
    2016/03/01 19:14:32.9852076 528   9692  Driver          Matched driver to device PCI\VEN_8086&DEV_1D41&SUBSYS_84EF1043&REV_06
    2016/03/01 19:14:32.9852080 528   9692  Driver          Status: 0x180000a, ProblemNumber: 00000000
    2016/03/01 19:14:32.9852252 528   9692  Driver          DrvUtil: {PCI\VEN_8086&DEV_1D41}
    2016/03/01 19:14:32.9852496 528   9692  Driver          DrvUtil: {hpphotosmart_8200_seeefc}
    2016/03/01 19:14:32.9853104 528   9692  Driver          Matched driver to device PCI\VEN_8086&DEV_1D22&SUBSYS_84EF1043&REV_06
    2016/03/01 19:14:32.9853107 528   9692  Driver          Status: 0x1802000, ProblemNumber: 00000000
    2016/03/01 19:14:32.9853436 528   9692  Driver          DrvUtil: {PCI\VEN_8086&DEV_1D22}
    2016/03/01 19:14:32.9866633 528   9692  Driver          Matched driver to device PCI\VEN_8086&DEV_3CE4&SUBSYS_84EF1043&REV_07
    2016/03/01 19:14:32.9866636 528   9692  Driver          Status: 0x1802000, ProblemNumber: 00000000
    2016/03/01 19:14:32.9867440 528   9692  Driver          DrvUtil: {PCI\VEN_8086&DEV_3CE4}
    2016/03/01 19:14:32.9867926 528   9692  Driver          Matched driver to device PCI\VEN_8086&DEV_3C28&SUBSYS_84EF1043&REV_07
    2016/03/01 19:14:32.9867929 528   9692  Driver          Status: 0x1802000, ProblemNumber: 00000000
    2016/03/01 19:14:32.9868400 528   9692  Driver          DrvUtil: {PCI\VEN_8086&DEV_3C28}
    2016/03/01 19:14:32.9869097 528   9692  Driver          Matched driver to device PCI\VEN_8086&DEV_3CD0&SUBSYS_84EF1043&REV_07
    2016/03/01 19:14:32.9869097 528   9692  Driver          Status: 0x1802000, ProblemNumber: 00000000
    2016/03/01 19:14:32.9869347 528   9692  Driver          DrvUtil: {PCI\VEN_8086&DEV_3CD0}
    2016/03/01 19:14:32.9869724 528   9692  Driver          Matched driver to device PCI\VEN_8086&DEV_3C46&SUBSYS_84EF1043&REV_07
    2016/03/01 19:14:32.9869728 528   9692  Driver          Status: 0x1802000, ProblemNumber: 00000000
    2016/03/01 19:14:32.9870288 528   9692  Driver          DrvUtil: {PCI\VEN_8086&DEV_3C46}
    2016/03/01 19:14:32.9870531 528   9692  Driver          Matched driver to device PCI\VEN_8086&DEV_3CE3&SUBSYS_84EF1043&REV_07
    2016/03/01 19:14:32.9870534 528   9692  Driver          Status: 0x1802000, ProblemNumber: 00000000
    2016/03/01 19:14:32.9871228 528   9692  Driver          DrvUtil: {PCI\VEN_8086&DEV_3CE3}
    2016/03/01 19:14:32.9871324 528   9692  Driver          Matched driver to device PCI\VEN_8086&DEV_3CB8&SUBSYS_84EF1043&REV_07
    2016/03/01 19:14:32.9871324 528   9692  Driver          Status: 0x1802000, ProblemNumber: 00000000
    2016/03/01 19:14:32.9872195 528   9692  Driver          DrvUtil: {PCI\VEN_8086&DEV_3CB8}
    2016/03/01 19:14:32.9872348 528   9692  Driver          Matched driver to device PCI\VEN_8086&DEV_3CB7&SUBSYS_84EF1043&REV_07
    2016/03/01 19:14:32.9872352 528   9692  Driver          Status: 0x1802000, ProblemNumber: 00000000
    2016/03/01 19:14:32.9873155 528   9692  Driver          DrvUtil: {PCI\VEN_8086&DEV_3CB7}
    2016/03/01 19:14:32.9873299 528   9692  Driver          Matched driver to device PCI\VEN_8086&DEV_3CC0&SUBSYS_84EF1043&REV_07
    2016/03/01 19:14:32.9873299 528   9692  Driver          Status: 0x1802000, ProblemNumber: 00000000
    2016/03/01 19:14:32.9874099 528   9692  Driver          DrvUtil: {PCI\VEN_8086&DEV_3CC0}
    2016/03/01 19:14:32.9875024 528   9692  Driver          Matched driver to device PCI\VEN_8086&DEV_3CAA&SUBSYS_84EF1043&REV_07
    2016/03/01 19:14:32.9875024 528   9692  Driver          Status: 0x1802000, ProblemNumber: 00000000
    2016/03/01 19:14:32.9875043 528   9692  Driver          DrvUtil: {PCI\VEN_8086&DEV_3CAA}
    2016/03/01 19:14:32.9875388 528   9692  Driver          Matched driver to device PCI\VEN_8086&DEV_3C2C&SUBSYS_84EF1043&REV_07
    2016/03/01 19:14:32.9875388 528   9692  Driver          Status: 0x1802000, ProblemNumber: 00000000
    2016/03/01 19:14:32.9875984 528   9692  Driver          DrvUtil: {PCI\VEN_8086&DEV_3C2C}
    2016/03/01 19:14:32.9876239 528   9692  Driver          Matched driver to device PCI\VEN_8086&DEV_3CB5&SUBSYS_84EF1043&REV_07
    2016/03/01 19:14:32.9876239 528   9692  Driver          Status: 0x1802000, ProblemNumber: 00000000
    2016/03/01 19:14:32.9876924 528   9692  Driver          DrvUtil: {PCI\VEN_8086&DEV_3CB5}
    2016/03/01 19:14:32.9877404 528   9692  Driver          Matched driver to device PCI\VEN_8086&DEV_3C45&SUBSYS_84EF1043&REV_07
    2016/03/01 19:14:32.9877404 528   9692  Driver          Status: 0x1802000, ProblemNumber: 00000000
    2016/03/01 19:14:32.9877871 528   9692  Driver          DrvUtil: {PCI\VEN_8086&DEV_3C45}
    2016/03/01 19:14:32.9878572 528   9692  Driver          Matched driver to device PCI\VEN_8086&DEV_3CF5&SUBSYS_84EF1043&REV_07
    2016/03/01 19:14:32.9878572 528   9692  Driver          Status: 0x1802000, ProblemNumber: 00000000
    2016/03/01 19:14:32.9878812 528   9692  Driver          DrvUtil: {PCI\VEN_8086&DEV_3CF5}
    2016/03/01 19:14:32.9879689 528   9692  Driver          Matched driver to device PCI\VEN_8086&DEV_3CE8&SUBSYS_84EF1043&REV_07
    2016/03/01 19:14:32.9879692 528   9692  Driver          Status: 0x1802000, ProblemNumber: 00000000
    2016/03/01 19:14:32.9879699 528   9692  Driver          Matched driver to device PCI\VEN_8086&DEV_3CE8&SUBSYS_84EF1043&REV_07
    2016/03/01 19:14:32.9879699 528   9692  Driver          Status: 0x1802000, ProblemNumber: 00000000
    2016/03/01 19:14:32.9879711 528   9692  Driver          Matched driver to device PCI\VEN_8086&DEV_3CE8&SUBSYS_84EF1043&REV_07
    2016/03/01 19:14:32.9879715 528   9692  Driver          Status: 0x1802000, ProblemNumber: 00000000
    2016/03/01 19:14:32.9879718 528   9692  Driver          Matched driver to device PCI\VEN_8086&DEV_3CE8&SUBSYS_84EF1043&REV_07
    2016/03/01 19:14:32.9879721 528   9692  Driver          Status: 0x1802000, ProblemNumber: 00000000
    2016/03/01 19:14:32.9879727 528   9692  Driver          Matched driver to device PCI\VEN_8086&DEV_3CE8&SUBSYS_84EF1043&REV_07
    2016/03/01 19:14:32.9879727 528   9692  Driver          Status: 0x1802000, ProblemNumber: 00000000
    2016/03/01 19:14:32.9879734 528   9692  Driver          Matched driver to device PCI\VEN_8086&DEV_3CE8&SUBSYS_84EF1043&REV_07
    2016/03/01 19:14:32.9879734 528   9692  Driver          Status: 0x1802000, ProblemNumber: 00000000
    2016/03/01 19:14:32.9879766 528   9692  Driver          DrvUtil: {PCI\VEN_8086&DEV_3CE8}
    2016/03/01 19:14:32.9879839 528   9692  Driver          Matched driver to device PCI\VEN_8086&DEV_3C04&SUBSYS_84EF1043&REV_07
    2016/03/01 19:14:32.9879843 528   9692  Driver          Status: 0x180200a, ProblemNumber: 00000000
    2016/03/01 19:14:32.9880748 528   9692  Driver          DrvUtil: {PCI\VEN_8086&DEV_3C04}
    2016/03/01 19:14:32.9881260 528   9692  Driver          Matched driver to device PCI\VEN_8086&DEV_3C44&SUBSYS_84EF1043&REV_07
    2016/03/01 19:14:32.9881263 528   9692  Driver          Status: 0x1802000, ProblemNumber: 00000000
    2016/03/01 19:14:32.9881695 528   9692  Driver          DrvUtil: {PCI\VEN_8086&DEV_3C44}
    2016/03/01 19:14:32.9882454 528   9692  Driver          Matched driver to device PCI\VEN_8086&DEV_3CF4&SUBSYS_84EF1043&REV_07
    2016/03/01 19:14:32.9882457 528   9692  Driver          Status: 0x1802000, ProblemNumber: 00000000
    2016/03/01 19:14:32.9882636 528   9692  Driver          DrvUtil: {PCI\VEN_8086&DEV_3CF4}
    2016/03/01 19:14:32.9883222 528   9692  Driver          Matched driver to device PCI\VEN_8086&DEV_3C08&SUBSYS_84EF1043&REV_07
    2016/03/01 19:14:32.9883225 528   9692  Driver          Status: 0x180200a, ProblemNumber: 00000000
    2016/03/01 19:14:32.9883580 528   9692  Driver          DrvUtil: {PCI\VEN_8086&DEV_3C08}
    2016/03/01 19:14:32.9884182 528   9692  Driver          Matched driver to device PCI\VEN_8086&DEV_3C94&SUBSYS_84EF1043&REV_07
    2016/03/01 19:14:32.9884182 528   9692  Driver          Status: 0x1802000, ProblemNumber: 00000000
    2016/03/01 19:14:32.9884518 528   9692  Driver          DrvUtil: {PCI\VEN_8086&DEV_3C94}
    2016/03/01 19:14:32.9884620 528   9692  Driver          Matched driver to device PCI\VEN_8086&DEV_3C2A&SUBSYS_84EF1043&REV_07
    2016/03/01 19:14:32.9884623 528   9692  Driver          Status: 0x1802000, ProblemNumber: 00000000
    2016/03/01 19:14:32.9885689 528   9692  Driver          DrvUtil: {PCI\VEN_8086&DEV_3C2A}
    2016/03/01 19:14:32.9886508 528   9692  Driver          Matched driver to device PCI\VEN_8086&DEV_3CA0&SUBSYS_84EF1043&REV_07
    2016/03/01 19:14:32.9886511 528   9692  Driver          Status: 0x1802000, ProblemNumber: 00000000
    2016/03/01 19:14:32.9886636 528   9692  Driver          DrvUtil: {PCI\VEN_8086&DEV_3CA0}
    2016/03/01 19:14:32.9887407 528   9692  Driver          Matched driver to device PCI\VEN_8086&DEV_3C90&SUBSYS_84EF1043&REV_07
    2016/03/01 19:14:32.9887411 528   9692  Driver          Status: 0x1802000, ProblemNumber: 00000000
    2016/03/01 19:14:32.9887574 528   9692  Driver          DrvUtil: {PCI\VEN_8086&DEV_3C90}
    2016/03/01 19:14:32.9887919 528   9692  Driver          Matched driver to device PCI\VEN_8086&DEV_3CB3&SUBSYS_84EF1043&REV_07
    2016/03/01 19:14:32.9887923 528   9692  Driver          Status: 0x1802000, ProblemNumber: 00000000
    2016/03/01 19:14:32.9888521 528   9692  Driver          DrvUtil: {PCI\VEN_8086&DEV_3CB3}
    2016/03/01 19:14:32.9889231 528   9692  Driver          Matched driver to device PCI\VEN_8086&DEV_3CAE&SUBSYS_84EF1043&REV_07
    2016/03/01 19:14:32.9889231 528   9692  Driver          Status: 0x1802000, ProblemNumber: 00000000
    2016/03/01 19:14:32.9889465 528   9692  Driver          DrvUtil: {PCI\VEN_8086&DEV_3CAE}
    2016/03/01 19:14:32.9890329 528   9692  Driver          DrvUtil: {USBPRINT\HPENVY_7640_seriesDEC3}
    2016/03/01 19:14:32.9891155 528   9692  Driver          Matched driver to device USB\VID_04E8&PID_6860&REV_0400
    2016/03/01 19:14:32.9891158 528   9692  Driver          Status: 00000000, ProblemNumber: 00000000
    2016/03/01 19:14:32.9891222 528   9692  Driver          DrvUtil: {USB\VID_04E8&PID_6860}
    2016/03/01 19:14:32.9891436 528   9692  Driver          Matched driver to device PCI\VEN_8086&DEV_3CB6&SUBSYS_84EF1043&REV_07
    2016/03/01 19:14:32.9891446 528   9692  Driver          Status: 0x1802000, ProblemNumber: 00000000
    2016/03/01 19:14:32.9892214 528   9692  Driver          DrvUtil: {PCI\VEN_8086&DEV_3CB6}
    2016/03/01 19:14:32.9892975 528   9692  Driver          Matched driver to device PCI\VEN_8086&DEV_3C02&SUBSYS_84EF1043&REV_07
    2016/03/01 19:14:32.9892979 528   9692  Driver          Status: 0x180200a, ProblemNumber: 00000000
    2016/03/01 19:14:32.9893161 528   9692  Driver          DrvUtil: {PCI\VEN_8086&DEV_3C02}
    2016/03/01 19:14:32.9894019 528   9692  Driver          Matched driver to device PCI\VEN_8086&DEV_3CAB&SUBSYS_84EF1043&REV_07
    2016/03/01 19:14:32.9894019 528   9692  Driver          Status: 0x1802000, ProblemNumber: 00000000
    2016/03/01 19:14:32.9894102 528   9692  Driver          DrvUtil: {PCI\VEN_8086&DEV_3CAB}
    2016/03/01 19:14:32.9894665 528   9692  Driver          Matched driver to device PCI\VEN_8086&DEV_1D10&SUBSYS_84EF1043&REV_B6
    2016/03/01 19:14:32.9894665 528   9692  Driver          Status: 0x180200a, ProblemNumber: 00000000
    2016/03/01 19:14:32.9895036 528   9692  Driver          DrvUtil: {PCI\VEN_8086&DEV_1D10}
    2016/03/01 19:14:32.9895775 528   9692  Driver          Matched driver to device PCI\VEN_8086&DEV_1D1E&SUBSYS_84EF1043&REV_B6
    2016/03/01 19:14:32.9895775 528   9692  Driver          Status: 0x180200a, ProblemNumber: 00000000
    2016/03/01 19:14:32.9895971 528   9692  Driver          DrvUtil: {PCI\VEN_8086&DEV_1D1E}
    2016/03/01 19:14:32.9896137 528   9692  Driver          Matched driver to device ACPI\VEN_INT&DEV_3F0D
    2016/03/01 19:14:32.9896140 528   9692  Driver          Status: 0x41802000, ProblemNumber: 00000000
    2016/03/01 19:14:32.9896822 528   9692  Driver          DrvUtil: {ACPI\INT3F0D}
    2016/03/01 19:14:32.9897110 528   9692  Driver          Matched driver to device PCI\VEN_8086&DEV_1D1A&SUBSYS_84EF1043&REV_B6
    2016/03/01 19:14:32.9897110 528   9692  Driver          Status: 0x180200a, ProblemNumber: 00000000
    2016/03/01 19:14:32.9897756 528   9692  Driver          DrvUtil: {PCI\VEN_8086&DEV_1D1A}
    2016/03/01 19:14:32.9898588 528   9692  Driver          Matched driver to device PCI\VEN_8086&DEV_3CAC&SUBSYS_84EF1043&REV_07
    2016/03/01 19:14:32.9898591 528   9692  Driver          Status: 0x1802000, ProblemNumber: 00000000
    2016/03/01 19:14:32.9898700 528   9692  Driver          DrvUtil: {PCI\VEN_8086&DEV_3CAC}
    2016/03/01 19:14:32.9899171 528   9692  Driver          Matched driver to device PCI\VEN_8086&DEV_1D3A&SUBSYS_84EF1043&REV_05
    2016/03/01 19:14:32.9899174 528   9692  Driver          Status: 0x180200a, ProblemNumber: 00000000
    2016/03/01 19:14:32.9901046 528   9692  Driver          DrvUtil: {pci\ven_8086&dev_1d3a}
    2016/03/01 19:14:32.9901673 528   9692  Driver          Matched driver to device PCI\VEN_8086&DEV_3C93&SUBSYS_84EF1043&REV_07
    2016/03/01 19:14:32.9901676 528   9692  Driver          Status: 0x1802000, ProblemNumber: 00000000
    2016/03/01 19:14:32.9901983 528   9692  Driver          DrvUtil: {PCI\VEN_8086&DEV_3C93}
    2016/03/01 19:14:32.9902012 528   9692  Driver          Matched driver to device PCI\VEN_8086&DEV_3CC2&SUBSYS_84EF1043&REV_07
    2016/03/01 19:14:32.9902012 528   9692  Driver          Status: 0x1802000, ProblemNumber: 00000000
    2016/03/01 19:14:32.9902921 528   9692  Driver          DrvUtil: {PCI\VEN_8086&DEV_3CC2}
    2016/03/01 19:14:32.9903363 528   9692  Driver          Matched driver to device PCI\VEN_8086&DEV_3CE0&SUBSYS_84EF1043&REV_07
    2016/03/01 19:14:32.9903366 528   9692  Driver          Status: 0x1802000, ProblemNumber: 00000000
    2016/03/01 19:14:32.9903859 528   9692  Driver          DrvUtil: {PCI\VEN_8086&DEV_3CE0}
    2016/03/01 19:14:32.9904451 528   9692  Driver          Matched driver to device PCI\VEN_8086&DEV_1D18&SUBSYS_84EF1043&REV_B6
    2016/03/01 19:14:32.9904454 528   9692  Driver          Status: 0x180200a, ProblemNumber: 00000000
    2016/03/01 19:14:32.9904793 528   9692  Driver          DrvUtil: {PCI\VEN_8086&DEV_1D18}
    2016/03/01 19:14:32.9904879 528   9692  Driver          Matched driver to device PCI\VEN_8086&DEV_3CE6&SUBSYS_84EF1043&REV_07
    2016/03/01 19:14:32.9904883 528   9692  Driver          Status: 0x1802000, ProblemNumber: 00000000
    2016/03/01 19:14:32.9905731 528   9692  Driver          DrvUtil: {PCI\VEN_8086&DEV_3CE6}
    2016/03/01 19:14:32.9906035 528   9692  Driver          Matched driver to device PCI\VEN_8086&DEV_3CB4&SUBSYS_84EF1043&REV_07
    2016/03/01 19:14:32.9906038 528   9692  Driver          Status: 0x1802000, ProblemNumber: 00000000
    2016/03/01 19:14:32.9906668 528   9692  Driver          DrvUtil: {PCI\VEN_8086&DEV_3CB4}
    2016/03/01 19:14:32.9907161 528   9692  Driver          Matched driver to device PCI\VEN_8086&DEV_3CB1&SUBSYS_84EF1043&REV_07
    2016/03/01 19:14:32.9907167 528   9692  Driver          Status: 0x1802000, ProblemNumber: 00000000
    2016/03/01 19:14:32.9907651 528   9692  Driver          DrvUtil: {PCI\VEN_8086&DEV_3CB1}
    2016/03/01 19:14:32.9908441 528   9692  Driver          Matched driver to device PCI\VEN_8086&DEV_3CAD&SUBSYS_84EF1043&REV_07
    2016/03/01 19:14:32.9908441 528   9692  Driver          Status: 0x1802000, ProblemNumber: 00000000
    2016/03/01 19:14:32.9908601 528   9692  Driver          DrvUtil: {PCI\VEN_8086&DEV_3CAD}
    2016/03/01 19:14:32.9908870 528   9692  Driver          Matched driver to device PCI\VEN_8086&DEV_3C0A&SUBSYS_84EF1043&REV_07
    2016/03/01 19:14:32.9908870 528   9692  Driver          Status: 0x180200a, ProblemNumber: 00000000
    2016/03/01 19:14:32.9909535 528   9692  Driver          DrvUtil: {PCI\VEN_8086&DEV_3C0A}
    2016/03/01 19:14:32.9909756 528   9692  Driver          Matched driver to device PCI\VEN_8086&DEV_3C80&SUBSYS_84EF1043&REV_07
    2016/03/01 19:14:32.9909759 528   9692  Driver          Status: 0x1802000, ProblemNumber: 00000000
    2016/03/01 19:14:32.9910473 528   9692  Driver          DrvUtil: {PCI\VEN_8086&DEV_3C80}
    2016/03/01 19:14:32.9910998 528   9692  Driver          Matched driver to device PCI\VEN_8086&DEV_3CB0&SUBSYS_84EF1043&REV_07
    2016/03/01 19:14:32.9911001 528   9692  Driver          Status: 0x1802000, ProblemNumber: 00000000
    2016/03/01 19:14:32.9911414 528   9692  Driver          DrvUtil: {PCI\VEN_8086&DEV_3CB0}
    2016/03/01 19:14:32.9911567 528   9692  Driver          Matched driver to device PCI\VEN_8086&DEV_1D26&SUBSYS_84EF1043&REV_06
    2016/03/01 19:14:32.9911571 528   9692  Driver          Status: 0x180000a, ProblemNumber: 00000000
    2016/03/01 19:14:32.9912345 528   9692  Driver          DrvUtil: {PCI\VEN_8086&DEV_1D26}
    2016/03/01 19:14:32.9912799 528   9692  Driver          Matched driver to device PCI\VEN_8086&DEV_3CB2&SUBSYS_84EF1043&REV_07
    2016/03/01 19:14:32.9912803 528   9692  Driver          Status: 0x1802000, ProblemNumber: 00000000
    2016/03/01 19:14:32.9913289 528   9692  Driver          DrvUtil: {PCI\VEN_8086&DEV_3CB2}
    2016/03/01 19:14:32.9913788 528   9692  Driver          Matched driver to device PCI\VEN_8086&DEV_3CA8&SUBSYS_84EF1043&REV_07
    2016/03/01 19:14:32.9913788 528   9692  Driver          Status: 0x1802000, ProblemNumber: 00000000
    2016/03/01 19:14:32.9914227 528   9692  Driver          DrvUtil: {PCI\VEN_8086&DEV_3CA8}
    2016/03/01 19:14:32.9914339 528   9692  Driver          Matched driver to device PCI\VEN_8086&DEV_1D14&SUBSYS_84EF1043&REV_B6
    2016/03/01 19:14:32.9914342 528   9692  Driver          Status: 0x180200a, ProblemNumber: 00000000
    2016/03/01 19:14:32.9915158 528   9692  Driver          DrvUtil: {PCI\VEN_8086&DEV_1D14}
    2016/03/01 19:14:32.9916083 528   9692  Driver          Matched driver to device PCI\VEN_8086&DEV_3C84&SUBSYS_84EF1043&REV_07
    2016/03/01 19:14:32.9916086 528   9692  Driver          Status: 0x1802000, ProblemNumber: 00000000
    2016/03/01 19:14:32.9916095 528   9692  Driver          DrvUtil: {PCI\VEN_8086&DEV_3C84}
    2016/03/01 19:14:32.9916175 528   9692  Driver          Matched driver to device PCI\VEN_8086&DEV_3CC1&SUBSYS_84EF1043&REV_07
    2016/03/01 19:14:32.9916179 528   9692  Driver          Status: 0x1802000, ProblemNumber: 00000000
    2016/03/01 19:14:32.9917030 528   9692  Driver          DrvUtil: {PCI\VEN_8086&DEV_3CC1}
    2016/03/01 19:14:32.9917577 528   9692  Driver          Matched driver to device PCI\VEN_8086&DEV_3C00&SUBSYS_84EF1043&REV_07
    2016/03/01 19:14:32.9917580 528   9692  Driver          Status: 0x180000a, ProblemNumber: 00000000
    2016/03/01 19:14:32.9917971 528   9692  Driver          DrvUtil: {PCI\VEN_8086&DEV_3C00}
    2016/03/01 19:14:32.9918508 528   9692  Driver          Matched driver to device PCI\VEN_8086&DEV_3C43&SUBSYS_84EF1043&REV_07
    2016/03/01 19:14:32.9918511 528   9692  Driver          Status: 0x1802000, ProblemNumber: 00000000
    2016/03/01 19:14:32.9918905 528   9692  Driver          DrvUtil: {PCI\VEN_8086&DEV_3C43}
    2016/03/01 19:14:32.9919763 528   9692  Driver          Matched driver to device PCI\VEN_8086&DEV_1D2D&SUBSYS_84EF1043&REV_06
    2016/03/01 19:14:32.9919763 528   9692  Driver          Status: 0x180200a, ProblemNumber: 00000000
    2016/03/01 19:14:32.9919852 528   9692  Driver          DrvUtil: {PCI\VEN_8086&DEV_1D2D}
    2016/03/01 19:14:32.9919913 528   9692  Driver          Matched driver to device PCI\VEN_8086&DEV_3C83&SUBSYS_84EF1043&REV_07
    2016/03/01 19:14:32.9919913 528   9692  Driver          Status: 0x1802000, ProblemNumber: 00000000
    2016/03/01 19:14:32.9920793 528   9692  Driver          DrvUtil: {PCI\VEN_8086&DEV_3C83}
    2016/03/01 19:14:32.9921452 528   9692  Driver          Matched driver to device PCI\VEN_8086&DEV_3CF6&SUBSYS_84EF1043&REV_07
    2016/03/01 19:14:32.9921455 528   9692  Driver          Status: 0x1802000, ProblemNumber: 00000000
    2016/03/01 19:14:32.9921740 528   9692  Driver          DrvUtil: {PCI\VEN_8086&DEV_3CF6}
    2016/03/01 19:14:32.9922303 528   9692  Driver          Matched driver to device PCI\VEN_8086&DEV_3C71&SUBSYS_84EF1043&REV_07
    2016/03/01 19:14:32.9922307 528   9692  Driver          Status: 0x1802000, ProblemNumber: 00000000
    2016/03/01 19:14:32.9922716 528   9692  Driver          DrvUtil: {PCI\VEN_8086&DEV_3C71}
    2016/03/01 19:14:32.9922729 528   9692  Driver          Matched driver to device PCI\VEN_8086&DEV_1D3E&SUBSYS_84EF1043&REV_06
    2016/03/01 19:14:32.9922732 528   9692  Driver          Status: 0x180200a, ProblemNumber: 00000000
    2016/03/01 19:14:32.9923647 528   9692  Driver          DrvUtil: {PCI\VEN_8086&DEV_1D3E}
    2016/03/01 19:14:32.9924428 528   9692  Driver          Matched driver to device PCI\VEN_8086&DEV_1D12&SUBSYS_84EF1043&REV_B6
    2016/03/01 19:14:32.9924428 528   9692  Driver          Status: 0x180200a, ProblemNumber: 00000000
    2016/03/01 19:14:32.9924575 528   9692  Driver          DrvUtil: {PCI\VEN_8086&DEV_1D12}
    2016/03/01 19:14:32.9924940 528   9692  Driver          Matched driver to device PCI\VEN_8086&DEV_1D16&SUBSYS_84EF1043&REV_B6
    2016/03/01 19:14:32.9924940 528   9692  Driver          Status: 0x180200a, ProblemNumber: 00000000
    2016/03/01 19:14:32.9925503 528   9692  Driver          DrvUtil: {PCI\VEN_8086&DEV_1D16}
    2016/03/01 19:14:32.9926255 528   9692  Driver          Matched driver to device PCI\VEN_8086&DEV_1D41&SUBSYS_84EF1043&REV_06
    2016/03/01 19:14:32.9926259 528   9692  Driver          Status: 0x180000a, ProblemNumber: 00000000
    2016/03/01 19:14:32.9926428 528   9692  Driver          DrvUtil: {PCI\VEN_8086&DEV_1D41}
    2016/03/01 19:14:32.9926655 528   9692  Driver          DrvUtil: {hpphotosmart_8200_seeefc}
    2016/03/01 19:14:32.9927254 528   9692  Driver          Matched driver to device PCI\VEN_8086&DEV_1D22&SUBSYS_84EF1043&REV_06
    2016/03/01 19:14:32.9927254 528   9692  Driver          Status: 0x1802000, ProblemNumber: 00000000
    2016/03/01 19:14:32.9927580 528   9692  Driver          DrvUtil: {PCI\VEN_8086&DEV_1D22}
    2016/03/01 19:14:39.6175381 528   9692  ProtocolTalker  ServiceId = {7971F918-A847-4430-9279-4A52D1EFE18D}, Server URL = https://fe2.update.microsoft.com/v6/...ce/client.asmx
    2016/03/01 19:14:39.6175394 528   9692  ProtocolTalker  OK to reuse existing configuration
    2016/03/01 19:14:39.6175423 528   9692  ProtocolTalker  Existing cookie is valid, just use it
    2016/03/01 19:14:39.9041311 528   9692  Agent           Added update E862A5F8-AF37-4C6A-8B73-21E6F792B22E.102 to search result
    2016/03/01 19:14:39.9041346 528   9692  Agent           Added update F3B7B772-1CA6-4B20-9B1B-FD04BF6D2150.200 to search result
    2016/03/01 19:14:39.9041378 528   9692  Agent           Added update BAFBAC19-340F-451F-9314-04188B07C639.200 to search result
    2016/03/01 19:14:39.9041407 528   9692  Agent           Added update 093E03FA-4EF2-41A0-B350-058E67BA6BE2.200 to search result
    2016/03/01 19:14:39.9041433 528   9692  Agent           Added update A732F590-43FA-4042-A50D-0D394D132EDA.200 to search result
    2016/03/01 19:14:39.9041461 528   9692  Agent           Added update BCD36943-D679-49BF-91FA-0F9AE452A51D.200 to search result
    2016/03/01 19:14:39.9041487 528   9692  Agent           Added update AAFD7C83-C42D-40EB-95EE-125415B9FE34.200 to search result
    2016/03/01 19:14:39.9041513 528   9692  Agent           Added update 06666680-8047-4524-99DF-12862683C075.200 to search result
    2016/03/01 19:14:39.9041605 528   9692  Agent           Added update 28BF9C3F-77ED-4C6E-8C75-12A8BB737014.200 to search result
    2016/03/01 19:14:39.9041634 528   9692  Agent           Added update E3E3C1B2-DC52-4F86-BA13-1DD58D58B6D4.200 to search result
    2016/03/01 19:14:39.9041663 528   9692  Agent           Added update 6AE6FAEA-3D11-4666-8F1F-242EAC3A534C.200 to search result
    2016/03/01 19:14:39.9041689 528   9692  Agent           Added update 8C23EEA3-461E-4742-B2BD-27D6AFCF37E0.200 to search result
    2016/03/01 19:14:39.9041714 528   9692  Agent           Added update 555EBA88-BCB1-442D-9F06-293879008283.200 to search result
    2016/03/01 19:14:39.9041753 528   9692  Agent           Added update 1F0CFA5B-1CDB-4E99-A4FD-2C52C5834C5F.200 to search result
    2016/03/01 19:14:39.9041778 528   9692  Agent           Added update 546A5818-E81E-4731-B9CA-2FB49C8734AC.200 to search result
    2016/03/01 19:14:39.9041829 528   9692  Agent           Added update 4941E8ED-B010-4A7A-BCD7-3431A98A2CF4.200 to search result
    2016/03/01 19:14:39.9041884 528   9692  Agent           Added update DD95EF92-7DCC-454B-994E-39E8A8EAD3AD.200 to search result
    2016/03/01 19:14:39.9041913 528   9692  Agent           Added update 68AEA452-7B1A-41E2-AAFD-3E707C70F875.200 to search result
    2016/03/01 19:14:39.9041938 528   9692  Agent           Added update 8989A59A-4F60-4CC1-8233-3F524B24427F.200 to search result
    2016/03/01 19:14:39.9041964 528   9692  Agent           Added update A877ED5B-196B-4303-B886-4074143F7465.200 to search result
    2016/03/01 19:14:39.9041999 528   9692  Agent           Added update 8F7BBD9D-F25C-4262-A303-43A3E7D7F5F6.200 to search result
    2016/03/01 19:14:39.9042041 528   9692  Agent           Added update 48D39AD6-9BCE-4467-B1D4-44854175A0C6.200 to search result
    2016/03/01 19:14:39.9042066 528   9692  Agent           Added update 790A20F4-B360-4E51-AE35-4C5595426C01.200 to search result
    2016/03/01 19:14:39.9042092 528   9692  Agent           Added update 82C07AD1-D967-479F-BD53-4E930D1BE0D4.200 to search result
    2016/03/01 19:14:39.9042117 528   9692  Agent           Added update A62AF3DF-B632-4F1D-9C58-563554E7B507.200 to search result
    2016/03/01 19:14:39.9042146 528   9692  Agent           Added update 3E812F30-62B9-4619-9629-5B89220A66D8.200 to search result
    2016/03/01 19:14:39.9042172 528   9692  Agent           Added update 7294310E-7FB6-40B6-BBA5-60B9E13E7F4B.200 to search result
    2016/03/01 19:14:39.9042201 528   9692  Agent           Added update 4C99F18F-3362-447C-9320-646A98BA6848.200 to search result
    2016/03/01 19:14:39.9042236 528   9692  Agent           Added update 7B02DD67-6E25-4B3C-9969-69F73365010A.200 to search result
    2016/03/01 19:14:39.9042271 528   9692  Agent           Added update FA4991B7-6676-4917-8441-6D3839D69664.200 to search result
    2016/03/01 19:14:39.9042297 528   9692  Agent           Added update 463EFF9F-CDD5-4C00-9DA3-70C98EE6A9A1.200 to search result
    2016/03/01 19:14:39.9042322 528   9692  Agent           Added update 99D9BC9C-5CCE-4772-AF34-752276691DA8.200 to search result
    2016/03/01 19:14:39.9042428 528   9692  Agent           Added update 712D165A-3660-4A27-89B5-7571C799D3FA.200 to search result
    2016/03/01 19:14:39.9042466 528   9692  Agent           Added update BF59CA5C-10F1-4E1B-BFF4-7C6A49CE00A3.200 to search result
    2016/03/01 19:14:39.9042492 528   9692  Agent           Added update 8A4A9517-7744-4F03-9650-846A08650D89.200 to search result
    2016/03/01 19:14:39.9042517 528   9692  Agent           Added update 56AB14A4-BB5F-4B36-BBDC-887D7FF3365D.200 to search result
    2016/03/01 19:14:39.9042543 528   9692  Agent           Added update 84BF5B0F-24A3-4E58-BA2F-8921B4754C47.200 to search result
    2016/03/01 19:14:39.9042569 528   9692  Agent           Added update 52B2C16B-0D93-43EE-A099-967531F3157C.200 to search result
    2016/03/01 19:14:39.9042604 528   9692  Agent           Added update B496A4AE-120A-4629-8949-97E6B76A8A0E.200 to search result
    2016/03/01 19:14:39.9042629 528   9692  Agent           Added update 209CFFB5-9C0E-4BB3-B369-99DBB8D74A14.200 to search result
    2016/03/01 19:14:39.9042658 528   9692  Agent           Added update F4590065-C5D0-4752-A7A2-9B05162D67C3.200 to search result
    2016/03/01 19:14:39.9042684 528   9692  Agent           Added update E295EA7D-77B4-46F7-814B-A221524E9FA6.200 to search result
    2016/03/01 19:14:39.9042709 528   9692  Agent           Added update 7069347F-7F66-41B1-A119-A407223C8641.200 to search result
    2016/03/01 19:14:39.9042735 528   9692  Agent           Added update 786D7970-AF25-405D-BB26-A69C833336BA.200 to search result
    2016/03/01 19:14:39.9042767 528   9692  Agent           Added update EFFD9E18-3583-473D-BBA1-A7228B4B2FCC.200 to search result
    2016/03/01 19:14:39.9042796 528   9692  Agent           Added update 0425F850-66FA-4942-835D-A88BB242AA1B.200 to search result
    2016/03/01 19:14:39.9042821 528   9692  Agent           Added update 3992F2A8-1262-48E9-97FF-AB5866789BB8.200 to search result
    2016/03/01 19:14:39.9042847 528   9692  Agent           Added update 9A862164-FECB-46A9-A748-AFDD0E4984CD.200 to search result
    2016/03/01 19:14:39.9042869 528   9692  Agent           Added update A7F1639C-0B4F-49DD-AB8A-B96BF59EB5B0.200 to search result
    2016/03/01 19:14:39.9042895 528   9692  Agent           Added update 65BBFD1E-61AE-4F97-96F0-BF5819A5318B.200 to search result
    2016/03/01 19:14:39.9042921 528   9692  Agent           Added update 9661E29F-4E3F-4956-B67F-BF9539671B4B.200 to search result
    2016/03/01 19:14:39.9042946 528   9692  Agent           Added update 6392A1CF-0250-4745-AE80-CF89E084E8A2.200 to search result
    2016/03/01 19:14:39.9042972 528   9692  Agent           Added update 4F78A5BA-331F-4409-82F9-D36D49D01127.200 to search result
    2016/03/01 19:14:39.9042994 528   9692  Agent           Added update 9D752486-4179-4A77-A38A-E0EA99BCB2B3.200 to search result
    2016/03/01 19:14:39.9043020 528   9692  Agent           Added update A683AE34-1C7E-4E52-B3D5-E63C2FA0B219.200 to search result
    2016/03/01 19:14:39.9043045 528   9692  Agent           Added update 12A096E7-D2F3-47BF-A47A-F2DD524FF382.200 to search result
    2016/03/01 19:14:39.9043068 528   9692  Agent           Added update AF777084-733F-4EE7-BB52-F47CCE18AD77.200 to search result
    2016/03/01 19:14:39.9043097 528   9692  Agent           Added update 02C3684B-A9A3-4507-87A8-F59B071F248D.200 to search result
    2016/03/01 19:14:39.9043129 528   9692  Agent           Added update 9A0252AD-6EFA-4CD7-AE99-FA42424121AE.200 to search result
    2016/03/01 19:14:39.9043170 528   9692  Agent           Added update 5E41F02D-6D21-4FDA-AC25-FBA48ED50452.200 to search result
    2016/03/01 19:14:39.9043199 528   9692  Agent           Added update E956B4F1-4340-4EC5-8D4B-FF3D2CBE7A4A.200 to search result
    2016/03/01 19:14:39.9043231 528   9692  Agent           Added update EDE0C184-119B-442F-A6F7-6B014FD64727.200 to search result
    2016/03/01 19:14:39.9043257 528   9692  Agent           Added update A7D6198A-8C9D-483A-B95F-EF4D64A0EA19.200 to search result
    2016/03/01 19:14:39.9043279 528   9692  Agent           Added update DB124576-60F5-49A7-BF46-9D88BDEC7EAE.200 to search result
    2016/03/01 19:14:39.9043455 528   9692  Agent           Added update D079382E-82C6-4544-8BBF-0D13C22E6E95.200 to search result
    2016/03/01 19:14:39.9043481 528   9692  Agent           Added update B6392B54-852D-43F4-828C-2376EAA3C67F.200 to search result
    2016/03/01 19:14:39.9043557 528   9692  Agent           Found 66 updates and 91 categories in search; evaluated appl. rules of 3335 out of 5179 deployed entities
    2016/03/01 19:14:39.9304801 528   9692  Agent           * END * Finding updates CallerId = UpdateOrchestrator  Id = 5
    2016/03/01 19:14:39.9349768 528   2172  ComApi          *RESUMED* Search ClientId = UpdateOrchestrator
    2016/03/01 19:14:39.9672378 528   2172  ComApi          Updates found = 66
    2016/03/01 19:14:39.9672384 528   2172  ComApi          * END *   Search ClientId = UpdateOrchestrator
    2016/03/01 19:14:39.9846208 528   9852  ComApi          ISusInternal:: DisconnectCall failed, hr=8024000C
    2016/03/01 19:14:40.0958652 528   9852  ComApi          * START *   Download ClientId = UpdateOrchestrator
    2016/03/01 19:14:40.0958668 528   9852  ComApi          Flags: 0X1000C; Download priority: 3; Network Cost Policy: 0
    2016/03/01 19:14:40.0958681 528   9852  ComApi          Updates in request: 1
    2016/03/01 19:14:40.0958857 528   9852  ComApi          ServiceID = {7971F918-A847-4430-9279-4A52D1EFE18D} Third party service
    2016/03/01 19:14:40.0981730 528   9852  ComApi          *QUEUED* Download ClientId = UpdateOrchestrator
    2016/03/01 19:14:40.0986034 528   9852  ComApi          * START *   Download ClientId = UpdateOrchestrator
    2016/03/01 19:14:40.0986044 528   9852  ComApi          Flags: 0X1000C; Download priority: 3; Network Cost Policy: 0
    2016/03/01 19:14:40.0986054 528   9852  ComApi          Updates in request: 1
    2016/03/01 19:14:40.0986175 528   9852  ComApi          ServiceID = {7971F918-A847-4430-9279-4A52D1EFE18D} Third party service
    2016/03/01 19:14:40.0999695 528   9852  ComApi          *QUEUED* Download ClientId = UpdateOrchestrator
    2016/03/01 19:14:40.1048985 528   8248  DownloadManager * START * Begin Downloading Updates [CallerId = UpdateOrchestrator] [Call ID = D2E140B6-E455-44FE-9F41-3D1A0184E3CA]
    2016/03/01 19:14:40.1051337 528   8248  DownloadManager Priority = 3, NetworkCostPolicy = 0, Interactive = 1, Download on Battery = 4, Bypass Regulation = 1, Owner is system = 1, Proxy session id = 1, ServiceId = 7971F918-A847-4430-9279-4A52D1EFE18D
    2016/03/01 19:14:40.1051356 528   8248  DownloadManager Updates to download = 1
    2016/03/01 19:14:40.1051420 528   8248  Agent             Title = Update for Windows 10 Version 1511 for x64-based Systems (KB3139907)
    2016/03/01 19:14:40.1051506 528   8248  Agent             UpdateId = D079382E-82C6-4544-8BBF-0D13C22E6E95.200
    2016/03/01 19:14:40.1051513 528   8248  Agent               Bundles 1 updates:
    2016/03/01 19:14:40.1051573 528   8248  Agent                 297C8264-53AA-4787-B914-DF3F237A1AFF.200
    2016/03/01 19:14:40.1052492 528   8248  DownloadManager No locked revisions found for update D079382E-82C6-4544-8BBF-0D13C22E6E95; locking the user-specified revision.
    2016/03/01 19:14:40.1059250 528   8248  DownloadManager No locked revisions found for update 297C8264-53AA-4787-B914-DF3F237A1AFF; locking the user-specified revision.
    2016/03/01 19:14:40.1062943 528   8248  DownloadManager Regulation: {7971F918-A847-4430-9279-4A52D1EFE18D} - Loaded sequence number 65535 for regulation category PerUpdate.
    2016/03/01 19:14:40.1062962 528   8248  DownloadManager Regulation: {7971F918-A847-4430-9279-4A52D1EFE18D} - Loaded sequence number 65535 for regulation category Low.
    2016/03/01 19:14:40.1062972 528   8248  DownloadManager Regulation: {7971F918-A847-4430-9279-4A52D1EFE18D} - Loaded sequence number 65535 for regulation category Normal.
    2016/03/01 19:14:40.1062981 528   8248  DownloadManager Regulation: {7971F918-A847-4430-9279-4A52D1EFE18D} - Loaded sequence number 65535 for regulation category High.
    2016/03/01 19:14:40.1108757 528   8248  Handler         Loaded state: cCompleteIterations: 0, pt: Unknown, nNextRequestID: 0.
    2016/03/01 19:14:40.1182040 528   8248  DownloadManager Queueing update {297C8264-53AA-4787-B914-DF3F237A1AFF}.200 for download handler request generation.
    2016/03/01 19:14:40.1209618 528   8248  Handler         Loaded state: cCompleteIterations: 0, pt: Unknown, nNextRequestID: 0.
    2016/03/01 19:14:40.1262261 528   8248  Handler         Loaded state: cCompleteIterations: 0, pt: Unknown, nNextRequestID: 0.
    2016/03/01 19:14:40.1262494 528   8248  DownloadManager Generating download request for update {297C8264-53AA-4787-B914-DF3F237A1AFF}.200
    2016/03/01 19:14:40.1270113 528   8248  DownloadManager Calling into handler 0x8 to generate download request for update 297C8264-53AA-4787-B914-DF3F237A1AFF.200
    2016/03/01 19:14:40.1270155 528   8248  Handler         Generating request for CBS update 297C8264-53AA-4787-B914-DF3F237A1AFF in sandbox C:\WINDOWS\SoftwareDistribution\Download\239c381fd6d8f6dbbf982891f5c508d4
    2016/03/01 19:14:40.1388750 528   8248  Handler         Loaded state: cCompleteIterations: 0, pt: Unknown, nNextRequestID: 0.
    2016/03/01 19:14:40.1388772 528   8248  Handler         Selected payload type is Express
    2016/03/01 19:14:40.1389111 528   8248  Handler         Detected download state is dsStart
    2016/03/01 19:14:40.1389182 528   8248  Handler         Adding windows10.0-kb3139907-x64-express.cab (entire file) to request list.
    2016/03/01 19:14:40.1423009 528   8248  Handler         Saved state: cCompleteIterations: 0, pt: Express, nNextRequestID: 1.
    2016/03/01 19:14:40.1423044 528   8248  Handler         Request generation for CBS update complete with hr=0x0 and pfResetSandbox=0
    2016/03/01 19:14:40.1475537 528   8248  DownloadManager P2P job initialized, JobId = {7E4B2B0A-C9E2-45C8-848D-3E8C07E7AF8A}
    2016/03/01 19:14:40.1479060 528   8248  DownloadManager Downloading from http://fg.ds.download.windowsupdate....1ea4f75758.cab to C:\WINDOWS\SoftwareDistribution\Download\239c381fd6d8f6dbbf982891f5c508d4\windows10.0-kb3139907-x64-express.cab (full file).
    2016/03/01 19:14:40.1503540 528   8248  Handler         Loaded state: cCompleteIterations: 0, pt: Express, nNextRequestID: 1.
    2016/03/01 19:14:40.1505860 528   8248  DownloadManager New download job {7E4B2B0A-C9E2-45C8-848D-3E8C07E7AF8A} for UpdateId 297C8264-53AA-4787-B914-DF3F237A1AFF.200
    2016/03/01 19:14:41.3377387 528   8248  DownloadManager P2P Download job 7E4B2B0A-C9E2-45C8-848D-3E8C07E7AF8A failed to resume, queueing redownload.
    2016/03/01 19:14:41.3462554 528   8248  DownloadManager * END * Begin Downloading Updates CallerId = UpdateOrchestrator
    2016/03/01 19:14:41.3524935 528   8248  DownloadManager * START * Begin Downloading Updates [CallerId = UpdateOrchestrator] [Call ID = CCB184AC-D80E-404C-8A37-B52F3EA7A7FE]
    2016/03/01 19:14:41.3525002 528   8248  DownloadManager Priority = 3, NetworkCostPolicy = 0, Interactive = 1, Download on Battery = 4, Bypass Regulation = 1, Owner is system = 1, Proxy session id = 1, ServiceId = 7971F918-A847-4430-9279-4A52D1EFE18D
    2016/03/01 19:14:41.3525012 528   8248  DownloadManager Updates to download = 1
    2016/03/01 19:14:41.3525028 528   8248  Agent             Title = Cumulative Update for Windows 10 Version 1511 for x64-based Systems (KB3140743)
    2016/03/01 19:14:41.3525089 528   8248  Agent             UpdateId = B6392B54-852D-43F4-828C-2376EAA3C67F.200
    2016/03/01 19:14:41.3525095 528   8248  Agent               Bundles 1 updates:
    2016/03/01 19:14:41.3525149 528   8248  Agent                 609E6E2A-0102-4606-BB0B-59B2507C2065.200
    2016/03/01 19:14:41.3526833 528   8248  DownloadManager No locked revisions found for update B6392B54-852D-43F4-828C-2376EAA3C67F; locking the user-specified revision.
    2016/03/01 19:14:41.3531325 528   8248  DownloadManager No locked revisions found for update 609E6E2A-0102-4606-BB0B-59B2507C2065; locking the user-specified revision.
    2016/03/01 19:14:41.3882022 528   8248  Handler         Loaded state: cCompleteIterations: 0, pt: Unknown, nNextRequestID: 0.
    2016/03/01 19:14:41.3894051 528   8248  DownloadManager P2P download failed, falling back on BITS and retrying with new Download Job.
    2016/03/01 19:14:41.3918012 528   8248  Handler         Loaded state: cCompleteIterations: 0, pt: Unknown, nNextRequestID: 0.
    2016/03/01 19:14:41.3991641 528   8248  DownloadManager BITS job initialized, JobId = {1EA55198-04B5-458A-8725-66F150C42D0E}
    2016/03/01 19:14:41.4037429 528   8248  DownloadManager Downloading from http://fg.ds.download.windowsupdate....1ea4f75758.cab to C:\WINDOWS\SoftwareDistribution\Download\239c381fd6d8f6dbbf982891f5c508d4\windows10.0-kb3139907-x64-express.cab (full file).
    2016/03/01 19:14:41.4050370 528   8248  Handler         Loaded state: cCompleteIterations: 0, pt: Express, nNextRequestID: 1.
    2016/03/01 19:14:41.4055071 528   8248  DownloadManager New download job {1EA55198-04B5-458A-8725-66F150C42D0E} for UpdateId 297C8264-53AA-4787-B914-DF3F237A1AFF.200
    2016/03/01 19:14:41.4102501 528   8248  DownloadManager Download job 1EA55198-04B5-458A-8725-66F150C42D0E resumed.
    2016/03/01 19:14:41.4109452 528   8248  Handler         Loaded state: cCompleteIterations: 0, pt: Unknown, nNextRequestID: 0.
    2016/03/01 19:14:41.4132994 528   8248  DownloadManager Queueing update {609E6E2A-0102-4606-BB0B-59B2507C2065}.200 for download handler request generation.
    2016/03/01 19:14:41.4240850 528   8248  Handler         Loaded state: cCompleteIterations: 0, pt: Unknown, nNextRequestID: 0.
    2016/03/01 19:14:41.4373028 528   8248  Handler         Loaded state: cCompleteIterations: 0, pt: Unknown, nNextRequestID: 0.
    2016/03/01 19:14:41.4373198 528   8248  DownloadManager Generating download request for update {609E6E2A-0102-4606-BB0B-59B2507C2065}.200
    2016/03/01 19:14:41.4376791 528   8248  DownloadManager Calling into handler 0x8 to generate download request for update 609E6E2A-0102-4606-BB0B-59B2507C2065.200
    2016/03/01 19:14:41.4376814 528   8248  Handler         Generating request for CBS update 609E6E2A-0102-4606-BB0B-59B2507C2065 in sandbox C:\WINDOWS\SoftwareDistribution\Download\73b193003926db9d52f8a53500e9b8f9
    2016/03/01 19:14:41.4377019 528   8248  Handler         Loaded state: cCompleteIterations: 0, pt: Unknown, nNextRequestID: 0.
    2016/03/01 19:14:41.4377028 528   8248  Handler         Selected payload type is Express
    2016/03/01 19:14:41.4377191 528   8248  Handler         Detected download state is dsStart
    2016/03/01 19:14:41.4377230 528   8248  Handler         Adding windows10.0-kb3140743-x64-express.cab (entire file) to request list.
    2016/03/01 19:14:41.4394161 528   8248  Handler         Saved state: cCompleteIterations: 0, pt: Express, nNextRequestID: 1.
    2016/03/01 19:14:41.4394180 528   8248  Handler         Request generation for CBS update complete with hr=0x0 and pfResetSandbox=0
    2016/03/01 19:14:41.4424587 528   8248  DownloadManager Download job 1EA55198-04B5-458A-8725-66F150C42D0E resumed.
    2016/03/01 19:14:41.4431409 528   8248  Handler         Loaded state: cCompleteIterations: 0, pt: Unknown, nNextRequestID: 0.
    2016/03/01 19:14:41.4450890 528   8248  DownloadManager P2P job initialized, JobId = {4ECBA311-5441-4EB2-A741-4E1E93689E74}
    2016/03/01 19:14:41.4452519 528   8248  DownloadManager Downloading from http://fg.ds.download.windowsupdate....ced2c46ec9.cab to C:\WINDOWS\SoftwareDistribution\Download\73b193003926db9d52f8a53500e9b8f9\windows10.0-kb3140743-x64-express.cab (full file).
    2016/03/01 19:14:41.4463687 528   8248  Handler         Loaded state: cCompleteIterations: 0, pt: Express, nNextRequestID: 1.
    2016/03/01 19:14:41.4465406 528   8248  DownloadManager New download job {4ECBA311-5441-4EB2-A741-4E1E93689E74} for UpdateId 609E6E2A-0102-4606-BB0B-59B2507C2065.200
    2016/03/01 19:14:41.8462478 528   8248  DownloadManager P2P Download job 4ECBA311-5441-4EB2-A741-4E1E93689E74 failed to resume, queueing redownload.
    2016/03/01 19:14:41.8541322 528   9136  DownloadManager BITS job {1EA55198-04B5-458A-8725-66F150C42D0E} completed successfully
    2016/03/01 19:14:41.8715776 528   9136  Misc            Validating signature for C:\WINDOWS\SoftwareDistribution\Download\239c381fd6d8f6dbbf982891f5c508d4\windows10.0-kb3139907-x64-express.cab with dwProvFlags 0x00000080:
    2016/03/01 19:14:41.9194510 528   9136  Misc             Microsoft signed: Yes
    2016/03/01 19:14:41.9208024 528   9136  DownloadManager   Download job bytes total = 12126361, bytes transferred = 232181
    2016/03/01 19:14:41.9218152 528   8248  DownloadManager * END * Begin Downloading Updates CallerId = UpdateOrchestrator
    2016/03/01 19:14:41.9223221 528   8248  Handler         Loaded state: cCompleteIterations: 0, pt: Express, nNextRequestID: 1.
    2016/03/01 19:14:41.9238901 528   8248  DownloadManager Queueing update {297C8264-53AA-4787-B914-DF3F237A1AFF}.200 for download handler request generation.
    2016/03/01 19:14:41.9247166 528   8248  DownloadManager P2P download failed, falling back on BITS and retrying with new Download Job.
    2016/03/01 19:14:41.9357838 528   8248  Handler         Loaded state: cCompleteIterations: 0, pt: Unknown, nNextRequestID: 0.
    2016/03/01 19:14:41.9415819 528   8248  DownloadManager BITS job initialized, JobId = {9DBD6A83-C674-44AA-90FF-056A79FD68ED}
    2016/03/01 19:14:41.9454382 528   8248  DownloadManager Downloading from http://fg.ds.download.windowsupdate....ced2c46ec9.cab to C:\WINDOWS\SoftwareDistribution\Download\73b193003926db9d52f8a53500e9b8f9\windows10.0-kb3140743-x64-express.cab (full file).
    2016/03/01 19:14:41.9463006 528   8248  Handler         Loaded state: cCompleteIterations: 0, pt: Express, nNextRequestID: 1.
    2016/03/01 19:14:41.9465879 528   8248  DownloadManager New download job {9DBD6A83-C674-44AA-90FF-056A79FD68ED} for UpdateId 609E6E2A-0102-4606-BB0B-59B2507C2065.200
    2016/03/01 19:14:41.9499732 528   8248  DownloadManager Download job 9DBD6A83-C674-44AA-90FF-056A79FD68ED resumed.
    2016/03/01 19:14:41.9603978 528   8248  Handler         Loaded state: cCompleteIterations: 0, pt: Unknown, nNextRequestID: 0.
    2016/03/01 19:14:41.9623501 528   8248  Handler         Loaded state: cCompleteIterations: 0, pt: Unknown, nNextRequestID: 0.
    2016/03/01 19:14:41.9623623 528   8248  DownloadManager Generating download request for update {297C8264-53AA-4787-B914-DF3F237A1AFF}.200
    2016/03/01 19:14:41.9650263 528   8248  DownloadManager Calling into handler 0x8 to generate download request for update 297C8264-53AA-4787-B914-DF3F237A1AFF.200
    2016/03/01 19:14:41.9650285 528   8248  Handler         Generating request for CBS update 297C8264-53AA-4787-B914-DF3F237A1AFF in sandbox C:\WINDOWS\SoftwareDistribution\Download\239c381fd6d8f6dbbf982891f5c508d4
    2016/03/01 19:14:41.9650768 528   8248  Handler         Loaded state: cCompleteIterations: 0, pt: Express, nNextRequestID: 1.
    2016/03/01 19:14:41.9650778 528   8248  Handler         Selected payload type is Express
    2016/03/01 19:14:41.9709757 528   8248  Handler         UH: DpxRestoreJob returned 0x80070002
    2016/03/01 19:14:41.9709776 528   8248  Handler         Detected download state is dsHavePackage
    2016/03/01 19:14:41.9727824 528   8248  Handler         Starting to stage package.
    2016/03/01 19:14:42.3871744 528   2148  Handler         CBS called Initiate
    2016/03/01 19:14:42.3896524 528   2148  Handler         CBS called Progress with state=2, ticks=0, total=1000
    2016/03/01 19:14:42.5949561 528   1116  Handler         CBS called Progress with state=2, ticks=10, total=1000
    2016/03/01 19:14:42.5952713 528   1116  Handler         CBS called Progress with state=2, ticks=20, total=1000
    2016/03/01 19:14:42.5955826 528   1116  Handler         CBS called Progress with state=2, ticks=30, total=1000
    2016/03/01 19:14:42.5958918 528   1116  Handler         CBS called Progress with state=2, ticks=40, total=1000
    2016/03/01 19:14:42.5961983 528   1116  Handler         CBS called Progress with state=2, ticks=50, total=1000
    2016/03/01 19:14:42.5965068 528   1116  Handler         CBS called Progress with state=2, ticks=60, total=1000
    2016/03/01 19:14:42.5968182 528   1116  Handler         CBS called Progress with state=2, ticks=70, total=1000
    2016/03/01 19:14:42.5971225 528   1116  Handler         CBS called Progress with state=2, ticks=80, total=1000
    2016/03/01 19:14:42.5974332 528   1116  Handler         CBS called Progress with state=2, ticks=90, total=1000
    2016/03/01 19:14:42.5978700 528   1116  Handler         CBS called Progress with state=2, ticks=100, total=1000
    2016/03/01 19:14:42.5982207 528   1116  Handler         CBS called Progress with state=2, ticks=110, total=1000
    2016/03/01 19:14:42.5985321 528   1116  Handler         CBS called Progress with state=2, ticks=120, total=1000
    2016/03/01 19:14:42.6746566 528   2148  Handler         CBS called Progress with state=2, ticks=130, total=1000
    2016/03/01 19:14:42.6849478 528   2148  Handler         CBS called Progress with state=2, ticks=140, total=1000
    2016/03/01 19:14:42.6854892 528   2148  Handler         CBS called Progress with state=2, ticks=150, total=1000
    2016/03/01 19:14:42.7004671 528   2148  Handler         CBS called Progress with state=2, ticks=160, total=1000
    2016/03/01 19:14:42.7011122 528   2148  Handler         CBS called Progress with state=2, ticks=170, total=1000
    2016/03/01 19:14:42.7156591 528   1116  Handler         CBS called Progress with state=2, ticks=180, total=1000
    2016/03/01 19:14:42.7298849 528   1116  Handler         CBS called Progress with state=2, ticks=190, total=1000
    2016/03/01 19:14:42.7535578 528   1116  Handler         CBS called Progress with state=2, ticks=200, total=1000
    2016/03/01 19:14:42.8806541 528   2148  Handler         CBS called Progress with state=0, ticks=210, total=1000
    2016/03/01 19:14:42.8807117 528   2148  Handler         CBS called Progress with state=0, ticks=220, total=1000
    2016/03/01 19:14:42.8807597 528   2148  Handler         CBS called Progress with state=0, ticks=230, total=1000
    2016/03/01 19:14:42.8807997 528   2148  Handler         CBS called Progress with state=0, ticks=240, total=1000
    2016/03/01 19:14:42.8827734 528   2148  Handler         CBS called Progress with state=0, ticks=250, total=1000
    2016/03/01 19:14:42.8846316 528   2148  Handler         CBS called Progress with state=0, ticks=260, total=1000
    2016/03/01 19:14:42.8868691 528   1116  Handler         CBS called Progress with state=0, ticks=270, total=1000
    2016/03/01 19:14:42.8889167 528   1116  Handler         CBS called Progress with state=0, ticks=280, total=1000
    2016/03/01 19:14:42.8912099 528   1116  Handler         CBS called Progress with state=0, ticks=290, total=1000
    2016/03/01 19:14:43.8510871 528   9132  DownloadManager BITS job {9DBD6A83-C674-44AA-90FF-056A79FD68ED} completed successfully
    2016/03/01 19:14:43.9037586 528   9132  Misc            Validating signature for C:\WINDOWS\SoftwareDistribution\Download\73b193003926db9d52f8a53500e9b8f9\windows10.0-kb3140743-x64-express.cab with dwProvFlags 0x00000080:
    2016/03/01 19:14:43.9527812 528   2148  Handler         CBS called Progress with state=0, ticks=299, total=1000
    2016/03/01 19:14:44.5379316 528   9132  Misc             Microsoft signed: Yes
    2016/03/01 19:14:44.5395806 528   9132  DownloadManager   Download job bytes total = 575055546, bytes transferred = 13077982
    2016/03/01 19:14:44.8320014 528   2024  Handler         CBS called Progress with state=2, ticks=309, total=1000
    2016/03/01 19:14:44.8320619 528   2024  Handler         CBS called Progress with state=2, ticks=319, total=1000
    2016/03/01 19:14:44.8320984 528   2024  Handler         CBS called Progress with state=2, ticks=333, total=1000
    2016/03/01 19:14:44.8321371 528   2024  Handler         CBS called Progress with state=2, ticks=347, total=1000
    2016/03/01 19:14:44.8321745 528   2024  Handler         CBS called Progress with state=2, ticks=357, total=1000
    2016/03/01 19:14:44.8322094 528   2024  Handler         CBS called Progress with state=2, ticks=371, total=1000
    2016/03/01 19:14:44.8322472 528   2024  Handler         CBS called Progress with state=2, ticks=385, total=1000
    2016/03/01 19:14:44.8322843 528   2024  Handler         CBS called Progress with state=2, ticks=395, total=1000
    2016/03/01 19:14:44.8323192 528   2024  Handler         CBS called Progress with state=2, ticks=409, total=1000
    2016/03/01 19:14:44.8323572 528   2024  Handler         CBS called Progress with state=2, ticks=423, total=1000
    2016/03/01 19:14:44.8323953 528   2024  Handler         CBS called Progress with state=2, ticks=433, total=1000
    2016/03/01 19:14:44.8324305 528   2024  Handler         CBS called Progress with state=2, ticks=447, total=1000
    2016/03/01 19:14:44.8324680 528   2024  Handler         CBS called Progress with state=2, ticks=457, total=1000
    2016/03/01 19:14:44.8325028 528   2024  Handler         CBS called Progress with state=2, ticks=471, total=1000
    2016/03/01 19:14:44.8325403 528   2024  Handler         CBS called Progress with state=2, ticks=485, total=1000
    2016/03/01 19:14:44.8325777 528   2024  Handler         CBS called Progress with state=2, ticks=495, total=1000
    2016/03/01 19:14:44.8326123 528   2024  Handler         CBS called Progress with state=2, ticks=509, total=1000
    2016/03/01 19:14:44.8326497 528   2024  Handler         CBS called Progress with state=2, ticks=523, total=1000
    2016/03/01 19:14:44.8326872 528   2024  Handler         CBS called Progress with state=2, ticks=533, total=1000
    2016/03/01 19:14:44.8327220 528   2024  Handler         CBS called Progress with state=2, ticks=547, total=1000
    2016/03/01 19:14:44.8327595 528   2024  Handler         CBS called Progress with state=2, ticks=561, total=1000
    2016/03/01 19:14:44.8327966 528   2024  Handler         CBS called Progress with state=2, ticks=571, total=1000
    2016/03/01 19:14:44.8328318 528   2024  Handler         CBS called Progress with state=2, ticks=585, total=1000
    2016/03/01 19:14:44.8328689 528   2024  Handler         CBS called Progress with state=2, ticks=595, total=1000
    2016/03/01 19:14:44.8329086 528   2024  Handler         CBS called Progress with state=2, ticks=609, total=1000
    2016/03/01 19:14:44.8329486 528   2024  Handler         CBS called Progress with state=2, ticks=623, total=1000
    2016/03/01 19:14:44.8329889 528   2024  Handler         CBS called Progress with state=2, ticks=633, total=1000
    2016/03/01 19:14:44.8330241 528   2024  Handler         CBS called Progress with state=2, ticks=647, total=1000
    2016/03/01 19:14:44.8330635 528   2024  Handler         CBS called Progress with state=2, ticks=661, total=1000
    2016/03/01 19:14:44.8331019 528   2024  Handler         CBS called Progress with state=2, ticks=671, total=1000
    2016/03/01 19:14:44.8331396 528   2024  Handler         CBS called Progress with state=2, ticks=685, total=1000
    2016/03/01 19:14:44.8331784 528   2024  Handler         CBS called Progress with state=2, ticks=699, total=1000
    2016/03/01 19:14:44.8332145 528   2024  Handler         CBS called Progress with state=2, ticks=709, total=1000
    2016/03/01 19:14:44.8332548 528   2024  Handler         CBS called Progress with state=2, ticks=723, total=1000
    2016/03/01 19:14:44.8332955 528   2024  Handler         CBS called Progress with state=2, ticks=733, total=1000
    2016/03/01 19:14:44.8333320 528   2024  Handler         CBS called Progress with state=2, ticks=747, total=1000
    2016/03/01 19:14:44.8333732 528   2024  Handler         CBS called Progress with state=2, ticks=761, total=1000
    2016/03/01 19:14:44.8334206 528   2024  Handler         CBS called Progress with state=2, ticks=771, total=1000
    2016/03/01 19:14:44.8334772 528   2024  Handler         CBS called Progress with state=2, ticks=785, total=1000
    2016/03/01 19:14:44.8335288 528   2024  Handler         CBS called Progress with state=2, ticks=799, total=1000
    2016/03/01 19:14:44.8335643 528   2024  Handler         CBS called Progress with state=2, ticks=809, total=1000
    2016/03/01 19:14:44.8336036 528   2024  Handler         CBS called Progress with state=2, ticks=823, total=1000
    2016/03/01 19:14:44.8336433 528   2024  Handler         CBS called Progress with state=2, ticks=837, total=1000
    2016/03/01 19:14:44.8336779 528   2024  Handler         CBS called Progress with state=2, ticks=847, total=1000
    2016/03/01 19:14:44.8337179 528   2024  Handler         CBS called Progress with state=2, ticks=861, total=1000
    2016/03/01 19:14:44.8337566 528   2024  Handler         CBS called Progress with state=2, ticks=871, total=1000
    2016/03/01 19:14:44.8337928 528   2024  Handler         CBS called Progress with state=2, ticks=885, total=1000
    2016/03/01 19:14:44.8338305 528   2024  Handler         CBS called Progress with state=2, ticks=899, total=1000
    2016/03/01 19:14:44.8338686 528   2024  Handler         CBS called Progress with state=2, ticks=909, total=1000
    2016/03/01 19:14:44.8339092 528   2024  Handler         CBS called Progress with state=2, ticks=923, total=1000
    2016/03/01 19:14:44.8339499 528   2024  Handler         CBS called Progress with state=2, ticks=937, total=1000
    2016/03/01 19:14:44.8339873 528   2024  Handler         CBS called Progress with state=2, ticks=947, total=1000
    2016/03/01 19:14:44.8340276 528   2024  Handler         CBS called Progress with state=2, ticks=961, total=1000
    2016/03/01 19:14:44.8340680 528   2024  Handler         CBS called Progress with state=2, ticks=975, total=1000
    2016/03/01 19:14:44.8341044 528   2024  Handler         CBS called Progress with state=2, ticks=985, total=1000
    2016/03/01 19:14:45.0170309 528   2024  Handler         CBS called Error with 0x800f0816, <NULL>
    2016/03/01 19:14:45.0170891 528   2024  Handler         CBS called Progress with state=7, ticks=1000, total=1000
    2016/03/01 19:14:45.0171352 528   2024  Handler         CBS called Terminate
    2016/03/01 19:14:45.0171384 528   8248  Handler         Finished staging package.
    2016/03/01 19:14:45.0173631 528   8248  Handler         Async stage operation completed with 0x800f0816
    2016/03/01 19:14:48.7603050 528   8248  Handler         DPX indicated more ranges to download.
    2016/03/01 19:14:48.7603200 528   8248  Handler         Adding windows10.0-kb3139907-x64.psf (ranges) to request list.
    2016/03/01 19:14:48.7812019 528   8248  Handler         Saved state: cCompleteIterations: 1, pt: Express, nNextRequestID: 2.
    2016/03/01 19:14:48.7812038 528   8248  Handler         Request generation for CBS update complete with hr=0x0 and pfResetSandbox=0
    2016/03/01 19:14:48.7841606 528   8248  DownloadManager BITS job initialized, JobId = {3D574BA0-B4AE-4C63-AE03-40A4CB1220AB}
    2016/03/01 19:14:48.7892809 528   8248  DownloadManager Downloading from http://fg.ds.download.windowsupdate....5f843e7903.psf to C:\WINDOWS\SoftwareDistribution\Download\239c381fd6d8f6dbbf982891f5c508d4\5d5d3bcf519d0f12bb7227101732345f843e7903-1 (14 subranges).
    2016/03/01 19:14:48.7901219 528   8248  Handler         Loaded state: cCompleteIterations: 1, pt: Express, nNextRequestID: 2.
    2016/03/01 19:14:48.7903939 528   8248  DownloadManager New download job {3D574BA0-B4AE-4C63-AE03-40A4CB1220AB} for UpdateId 297C8264-53AA-4787-B914-DF3F237A1AFF.200
    2016/03/01 19:14:48.7936124 528   8248  DownloadManager Download job 3D574BA0-B4AE-4C63-AE03-40A4CB1220AB resumed.
    2016/03/01 19:14:48.7943558 528   8248  Handler         Loaded state: cCompleteIterations: 0, pt: Express, nNextRequestID: 1.
    2016/03/01 19:14:48.7962575 528   8248  DownloadManager Queueing update {609E6E2A-0102-4606-BB0B-59B2507C2065}.200 for download handler request generation.
    2016/03/01 19:14:48.8068504 528   8248  Handler         Loaded state: cCompleteIterations: 0, pt: Unknown, nNextRequestID: 0.
    2016/03/01 19:14:48.8068703 528   8248  DownloadManager Generating download request for update {609E6E2A-0102-4606-BB0B-59B2507C2065}.200
    2016/03/01 19:14:48.8147439 528   8248  DownloadManager Calling into handler 0x8 to generate download request for update 609E6E2A-0102-4606-BB0B-59B2507C2065.200
    2016/03/01 19:14:48.8147467 528   8248  Handler         Generating request for CBS update 609E6E2A-0102-4606-BB0B-59B2507C2065 in sandbox C:\WINDOWS\SoftwareDistribution\Download\73b193003926db9d52f8a53500e9b8f9
    2016/03/01 19:14:48.8148447 528   8248  Handler         Loaded state: cCompleteIterations: 0, pt: Express, nNextRequestID: 1.
    2016/03/01 19:14:48.8148456 528   8248  Handler         Selected payload type is Express
    2016/03/01 19:14:48.8159816 528   8248  Handler         UH: DpxRestoreJob returned 0x80070002
    2016/03/01 19:14:48.8159839 528   8248  Handler         Detected download state is dsHavePackage
    2016/03/01 19:14:48.8830851 528   8248  Handler         Starting to stage package.
    2016/03/01 19:14:48.9072242 528   9080  DownloadManager BITS job {3D574BA0-B4AE-4C63-AE03-40A4CB1220AB} completed successfully
    2016/03/01 19:14:48.9833139 528   9080  DownloadManager   Download job bytes total = 12126361, bytes transferred = 328271
    2016/03/01 19:14:49.5220091 528   2024  Handler         CBS called Initiate
    2016/03/01 19:14:49.5243237 528   2024  Handler         CBS called Progress with state=2, ticks=0, total=1000
    2016/03/01 19:14:57.6081852 528   2148  Handler         CBS called Progress with state=2, ticks=2, total=1000
    2016/03/01 19:14:57.6085016 528   2148  Handler         CBS called Progress with state=2, ticks=12, total=1000
    2016/03/01 19:14:57.6088021 528   2148  Handler         CBS called Progress with state=2, ticks=22, total=1000
    2016/03/01 19:14:57.6091132 528   2148  Handler         CBS called Progress with state=2, ticks=32, total=1000
    2016/03/01 19:14:57.6094111 528   2148  Handler         CBS called Progress with state=2, ticks=42, total=1000
    2016/03/01 19:14:57.6097244 528   2148  Handler         CBS called Progress with state=2, ticks=52, total=1000
    2016/03/01 19:14:57.6100268 528   2148  Handler         CBS called Progress with state=2, ticks=62, total=1000
    2016/03/01 19:14:57.6103285 528   2148  Handler         CBS called Progress with state=2, ticks=72, total=1000
    2016/03/01 19:14:57.6106325 528   2148  Handler         CBS called Progress with state=2, ticks=82, total=1000
    2016/03/01 19:14:57.6109320 528   2148  Handler         CBS called Progress with state=2, ticks=92, total=1000
    2016/03/01 19:14:57.6112332 528   2148  Handler         CBS called Progress with state=2, ticks=102, total=1000
    2016/03/01 19:14:57.6115381 528   2148  Handler         CBS called Progress with state=2, ticks=112, total=1000
    2016/03/01 19:14:57.6118357 528   2148  Handler         CBS called Progress with state=2, ticks=122, total=1000
    2016/03/01 19:14:57.6121429 528   2148  Handler         CBS called Progress with state=2, ticks=132, total=1000
    2016/03/01 19:14:57.6124428 528   2148  Handler         CBS called Progress with state=2, ticks=142, total=1000
    2016/03/01 19:14:57.6127480 528   2148  Handler         CBS called Progress with state=2, ticks=152, total=1000
    2016/03/01 19:14:57.6130479 528   2148  Handler         CBS called Progress with state=2, ticks=162, total=1000
    2016/03/01 19:14:57.6133506 528   2148  Handler         CBS called Progress with state=2, ticks=172, total=1000
    2016/03/01 19:14:57.6136530 528   2148  Handler         CBS called Progress with state=2, ticks=182, total=1000
    2016/03/01 19:14:57.6139541 528   2148  Handler         CBS called Progress with state=2, ticks=192, total=1000
    2016/03/01 19:14:58.6295301 528   2148  Handler         CBS called Progress with state=2, ticks=200, total=1000
    2016/03/01 19:14:59.6461793 528   1116  Handler         CBS called Progress with state=2, ticks=200, total=1000
    2016/03/01 19:15:00.8200578 528   2148  Handler         CBS called Progress with state=2, ticks=200, total=1000
    2016/03/01 19:15:01.9048197 528   2148  Handler         CBS called Progress with state=2, ticks=200, total=1000
    2016/03/01 19:15:02.9077506 528   2148  Handler         CBS called Progress with state=2, ticks=200, total=1000
    2016/03/01 19:15:03.9338670 528   2148  Handler         CBS called Progress with state=2, ticks=200, total=1000
    2016/03/01 19:15:04.9984210 528   2148  Handler         CBS called Progress with state=2, ticks=200, total=1000
    2016/03/01 19:15:05.0091061 528   2148  Handler         CBS called Progress with state=0, ticks=210, total=1000
    2016/03/01 19:15:05.0092325 528   2148  Handler         CBS called Progress with state=0, ticks=220, total=1000
    2016/03/01 19:15:05.0093541 528   2148  Handler         CBS called Progress with state=0, ticks=230, total=1000
    2016/03/01 19:15:05.0094668 528   2148  Handler         CBS called Progress with state=0, ticks=240, total=1000
    2016/03/01 19:15:05.0095858 528   2148  Handler         CBS called Progress with state=0, ticks=250, total=1000
    2016/03/01 19:15:05.0096978 528   2148  Handler         CBS called Progress with state=0, ticks=260, total=1000
    2016/03/01 19:15:05.0133029 528   2148  Handler         CBS called Progress with state=0, ticks=270, total=1000
    2016/03/01 19:15:05.0458103 528   2148  Handler         CBS called Progress with state=0, ticks=280, total=1000
    2016/03/01 19:15:05.0772704 528   2148  Handler         CBS called Progress with state=0, ticks=290, total=1000
    2016/03/01 19:15:19.1877516 528   2172  Handler         CBS called Progress with state=0, ticks=299, total=1000
    2016/03/01 19:15:21.8513197 528   2148  Handler         CBS called Progress with state=2, ticks=300, total=1000
    2016/03/01 19:15:22.8612244 528   2172  Handler         CBS called Progress with state=2, ticks=300, total=1000
    2016/03/01 19:15:23.8897724 528   2172  Handler         CBS called Progress with state=2, ticks=300, total=1000
    2016/03/01 19:15:24.9051586 528   2172  Handler         CBS called Progress with state=2, ticks=300, total=1000
    2016/03/01 19:15:25.5341249 528   2172  Handler         CBS called Progress with state=2, ticks=310, total=1000
    2016/03/01 19:15:25.5341896 528   2172  Handler         CBS called Progress with state=2, ticks=320, total=1000
    2016/03/01 19:15:25.5342430 528   2172  Handler         CBS called Progress with state=2, ticks=330, total=1000
    2016/03/01 19:15:25.5342891 528   2172  Handler         CBS called Progress with state=2, ticks=340, total=1000
    2016/03/01 19:15:25.5343368 528   2172  Handler         CBS called Progress with state=2, ticks=350, total=1000
    2016/03/01 19:15:25.5343816 528   2172  Handler         CBS called Progress with state=2, ticks=360, total=1000
    2016/03/01 19:15:25.5344283 528   2172  Handler         CBS called Progress with state=2, ticks=370, total=1000
    2016/03/01 19:15:25.5344724 528   2172  Handler         CBS called Progress with state=2, ticks=380, total=1000
    2016/03/01 19:15:25.5345188 528   2172  Handler         CBS called Progress with state=2, ticks=390, total=1000
    2016/03/01 19:15:25.5345627 528   2172  Handler         CBS called Progress with state=2, ticks=400, total=1000
    2016/03/01 19:15:25.5346100 528   2172  Handler         CBS called Progress with state=2, ticks=410, total=1000
    2016/03/01 19:15:25.5346545 528   2172  Handler         CBS called Progress with state=2, ticks=420, total=1000
    2016/03/01 19:15:25.5347009 528   2172  Handler         CBS called Progress with state=2, ticks=430, total=1000
    2016/03/01 19:15:25.5347451 528   2172  Handler         CBS called Progress with state=2, ticks=440, total=1000
    2016/03/01 19:15:25.5347915 528   2172  Handler         CBS called Progress with state=2, ticks=450, total=1000
    2016/03/01 19:15:25.5348353 528   2172  Handler         CBS called Progress with state=2, ticks=460, total=1000
    2016/03/01 19:15:25.5348820 528   2172  Handler         CBS called Progress with state=2, ticks=470, total=1000
    2016/03/01 19:15:25.5349259 528   2172  Handler         CBS called Progress with state=2, ticks=480, total=1000
    2016/03/01 19:15:25.5349723 528   2172  Handler         CBS called Progress with state=2, ticks=490, total=1000
    2016/03/01 19:15:25.5350158 528   2172  Handler         CBS called Progress with state=2, ticks=500, total=1000
    2016/03/01 19:15:25.5350628 528   2172  Handler         CBS called Progress with state=2, ticks=510, total=1000
    2016/03/01 19:15:25.5351073 528   2172  Handler         CBS called Progress with state=2, ticks=520, total=1000
    2016/03/01 19:15:25.5351540 528   2172  Handler         CBS called Progress with state=2, ticks=530, total=1000
    2016/03/01 19:15:25.5351982 528   2172  Handler         CBS called Progress with state=2, ticks=540, total=1000
    2016/03/01 19:15:25.5352452 528   2172  Handler         CBS called Progress with state=2, ticks=550, total=1000
    2016/03/01 19:15:25.5352904 528   2172  Handler         CBS called Progress with state=2, ticks=560, total=1000
    2016/03/01 19:15:25.5353374 528   2172  Handler         CBS called Progress with state=2, ticks=570, total=1000
    2016/03/01 19:15:25.5353816 528   2172  Handler         CBS called Progress with state=2, ticks=580, total=1000
    2016/03/01 19:15:25.5354283 528   2172  Handler         CBS called Progress with state=2, ticks=590, total=1000
    2016/03/01 19:15:25.5354724 528   2172  Handler         CBS called Progress with state=2, ticks=600, total=1000
    2016/03/01 19:15:25.5355185 528   2172  Handler         CBS called Progress with state=2, ticks=610, total=1000
    2016/03/01 19:15:25.5355627 528   2172  Handler         CBS called Progress with state=2, ticks=620, total=1000
    2016/03/01 19:15:25.5356094 528   2172  Handler         CBS called Progress with state=2, ticks=630, total=1000
    2016/03/01 19:15:25.5356536 528   2172  Handler         CBS called Progress with state=2, ticks=640, total=1000
    2016/03/01 19:15:25.5357000 528   2172  Handler         CBS called Progress with state=2, ticks=650, total=1000
    2016/03/01 19:15:25.5357438 528   2172  Handler         CBS called Progress with state=2, ticks=660, total=1000
    2016/03/01 19:15:25.5357899 528   2172  Handler         CBS called Progress with state=2, ticks=670, total=1000
    2016/03/01 19:15:25.5358340 528   2172  Handler         CBS called Progress with state=2, ticks=680, total=1000
    2016/03/01 19:15:25.5358801 528   2172  Handler         CBS called Progress with state=2, ticks=690, total=1000
    2016/03/01 19:15:25.5359243 528   2172  Handler         CBS called Progress with state=2, ticks=700, total=1000
    2016/03/01 19:15:25.5359704 528   2172  Handler         CBS called Progress with state=2, ticks=710, total=1000
    2016/03/01 19:15:25.5360145 528   2172  Handler         CBS called Progress with state=2, ticks=720, total=1000
    2016/03/01 19:15:25.5360609 528   2172  Handler         CBS called Progress with state=2, ticks=730, total=1000
    2016/03/01 19:15:25.5361054 528   2172  Handler         CBS called Progress with state=2, ticks=740, total=1000
    2016/03/01 19:15:25.5361521 528   2172  Handler         CBS called Progress with state=2, ticks=750, total=1000
    2016/03/01 19:15:25.5361960 528   2172  Handler         CBS called Progress with state=2, ticks=760, total=1000
    2016/03/01 19:15:25.5362424 528   2172  Handler         CBS called Progress with state=2, ticks=770, total=1000
    2016/03/01 19:15:25.5362990 528   2172  Handler         CBS called Progress with state=2, ticks=780, total=1000
    2016/03/01 19:15:25.5363649 528   2172  Handler         CBS called Progress with state=2, ticks=790, total=1000
    2016/03/01 19:15:25.5364260 528   2172  Handler         CBS called Progress with state=2, ticks=800, total=1000
    2016/03/01 19:15:25.5364891 528   2172  Handler         CBS called Progress with state=2, ticks=810, total=1000
    2016/03/01 19:15:25.5365470 528   2172  Handler         CBS called Progress with state=2, ticks=820, total=1000
    2016/03/01 19:15:25.5366123 528   2172  Handler         CBS called Progress with state=2, ticks=830, total=1000
    2016/03/01 19:15:25.5366718 528   2172  Handler         CBS called Progress with state=2, ticks=840, total=1000
    2016/03/01 19:15:25.5367281 528   2172  Handler         CBS called Progress with state=2, ticks=850, total=1000
    2016/03/01 19:15:25.5367851 528   2172  Handler         CBS called Progress with state=2, ticks=860, total=1000
    2016/03/01 19:15:25.5368414 528   2172  Handler         CBS called Progress with state=2, ticks=870, total=1000
    2016/03/01 19:15:25.5368968 528   2172  Handler         CBS called Progress with state=2, ticks=880, total=1000
    2016/03/01 19:15:25.5369518 528   2172  Handler         CBS called Progress with state=2, ticks=890, total=1000
    2016/03/01 19:15:25.5370081 528   2172  Handler         CBS called Progress with state=2, ticks=900, total=1000
    2016/03/01 19:15:25.5370696 528   2172  Handler         CBS called Progress with state=2, ticks=910, total=1000
    2016/03/01 19:15:25.5371297 528   2172  Handler         CBS called Progress with state=2, ticks=920, total=1000
    2016/03/01 19:15:25.5371880 528   2172  Handler         CBS called Progress with state=2, ticks=930, total=1000
    2016/03/01 19:15:25.5372360 528   2172  Handler         CBS called Progress with state=2, ticks=940, total=1000
    2016/03/01 19:15:25.5373022 528   2172  Handler         CBS called Progress with state=2, ticks=950, total=1000
    2016/03/01 19:15:25.5373499 528   2172  Handler         CBS called Progress with state=2, ticks=960, total=1000
    2016/03/01 19:15:25.5374094 528   2172  Handler         CBS called Progress with state=2, ticks=970, total=1000
    2016/03/01 19:15:25.5374609 528   2172  Handler         CBS called Progress with state=2, ticks=980, total=1000
    2016/03/01 19:15:28.5430036 528   2172  Handler         CBS called Progress with state=2, ticks=990, total=1000
    2016/03/01 19:15:28.6175375 528   2172  Handler         CBS called Error with 0x800f0816, <NULL>
    2016/03/01 19:15:28.6175941 528   2172  Handler         CBS called Progress with state=7, ticks=1000, total=1000
    2016/03/01 19:15:28.6176395 528   2172  Handler         CBS called Terminate
    2016/03/01 19:15:28.6176424 528   8248  Handler         Finished staging package.
    2016/03/01 19:15:28.6178341 528   8248  Handler         Async stage operation completed with 0x800f0816
    2016/03/01 19:15:32.7990377 528   8248  Handler         DPX indicated more ranges to download.
    2016/03/01 19:15:32.7990601 528   8248  Handler         Adding windows10.0-kb3140743-x64.psf (ranges) to request list.
    2016/03/01 19:15:33.5442772 528   8248  Handler         Saved state: cCompleteIterations: 1, pt: Express, nNextRequestID: 2.
    2016/03/01 19:15:33.5442794 528   8248  Handler         Request generation for CBS update complete with hr=0x0 and pfResetSandbox=0
    2016/03/01 19:15:33.5464878 528   8248  DownloadManager Queueing update {297C8264-53AA-4787-B914-DF3F237A1AFF}.200 for download handler request generation.
    2016/03/01 19:15:33.5495230 528   8248  DownloadManager BITS job initialized, JobId = {F61DE917-70FD-4E7D-A717-E24B91B01E65}
    2016/03/01 19:15:33.5546545 528   8248  DownloadManager Downloading from http://fg.ds.download.windowsupdate....6f3480bd5e.psf to C:\WINDOWS\SoftwareDistribution\Download\73b193003926db9d52f8a53500e9b8f9\9f6532ab91c4671512e6eb275aee0c6f3480bd5e-1 (323 subranges).
    2016/03/01 19:15:33.5555511 528   8248  Handler         Loaded state: cCompleteIterations: 1, pt: Express, nNextRequestID: 2.
    2016/03/01 19:15:33.5558711 528   8248  DownloadManager New download job {F61DE917-70FD-4E7D-A717-E24B91B01E65} for UpdateId 609E6E2A-0102-4606-BB0B-59B2507C2065.200
    2016/03/01 19:15:33.5594400 528   8248  DownloadManager Download job F61DE917-70FD-4E7D-A717-E24B91B01E65 resumed.
    2016/03/01 19:15:33.5699648 528   8248  Handler         Loaded state: cCompleteIterations: 0, pt: Express, nNextRequestID: 1.
    2016/03/01 19:15:33.5719360 528   8248  Handler         Loaded state: cCompleteIterations: 0, pt: Unknown, nNextRequestID: 0.
    2016/03/01 19:15:33.5719491 528   8248  DownloadManager Generating download request for update {297C8264-53AA-4787-B914-DF3F237A1AFF}.200
    2016/03/01 19:15:33.6632365 528   8248  DownloadManager Calling into handler 0x8 to generate download request for update 297C8264-53AA-4787-B914-DF3F237A1AFF.200
    2016/03/01 19:15:33.6632397 528   8248  Handler         Generating request for CBS update 297C8264-53AA-4787-B914-DF3F237A1AFF in sandbox C:\WINDOWS\SoftwareDistribution\Download\239c381fd6d8f6dbbf982891f5c508d4
    2016/03/01 19:15:33.6632954 528   8248  Handler         Loaded state: cCompleteIterations: 1, pt: Express, nNextRequestID: 2.
    2016/03/01 19:15:33.6632967 528   8248  Handler         Selected payload type is Express
    2016/03/01 19:15:33.7047666 528   8248  Handler         Found response file 5d5d3bcf519d0f12bb7227101732345f843e7903-1 for windows10.0-kb3139907-x64.psf
    2016/03/01 19:15:33.7058169 528   8248  Handler         Detected download state is dsHaveDownloadResponses
    2016/03/01 19:15:33.7058553 528   8248  Handler         Found response file 5d5d3bcf519d0f12bb7227101732345f843e7903-1 for windows10.0-kb3139907-x64.psf
    2016/03/01 19:15:34.0383035 528   8248  Handler         Saved state: cCompleteIterations: 2, pt: Express, nNextRequestID: 2.
    2016/03/01 19:15:34.0383057 528   8248  Handler         Request generation for CBS update complete with hr=0x0 and pfResetSandbox=0
    2016/03/01 19:15:34.1252741 528   8248  DownloadManager All files for update {297C8264-53AA-4787-B914-DF3F237A1AFF}.200 were already downloaded and are valid.
    2016/03/01 19:15:34.1263323 528   8248  Handler         Loaded state: cCompleteIterations: 2, pt: Express, nNextRequestID: 2.
    2016/03/01 19:15:34.1309733 528   8248  DownloadManager * END * Download Call Complete Call 6 for caller UpdateOrchestrator has completed; signaling completion.
    2016/03/01 19:15:34.1312318 528   7340  ComApi          *RESUMED* Download ClientId = UpdateOrchestrator
    2016/03/01 19:15:34.1312325 528   7340  ComApi          Download call complete (succeeded = 1, succeeded with errors = 0, failed = 0, unaccounted = 0)
    2016/03/01 19:15:34.1312341 528   7340  ComApi          * END *   Download ClientId = UpdateOrchestrator
    2016/03/01 19:15:34.1314190 528   9852  ComApi          ISusInternal:: DisconnectCall failed, hr=8024000C
    2016/03/01 19:15:34.1334753 528   8248  DownloadManager Download job F61DE917-70FD-4E7D-A717-E24B91B01E65 resumed.
    2016/03/01 19:15:34.1438452 528   8248  Handler         Loaded state: cCompleteIterations: 0, pt: Express, nNextRequestID: 1.
    2016/03/01 19:15:34.1488961 528   8248  DownloadManager Download job F61DE917-70FD-4E7D-A717-E24B91B01E65 resumed.
    2016/03/01 19:15:34.1592656 528   8248  Handler         Loaded state: cCompleteIterations: 0, pt: Express, nNextRequestID: 1.
    2016/03/01 19:15:34.1642474 528   8248  DownloadManager Download job F61DE917-70FD-4E7D-A717-E24B91B01E65 resumed.
    2016/03/01 19:15:34.1747757 528   8248  Handler         Loaded state: cCompleteIterations: 0, pt: Express, nNextRequestID: 1.
    2016/03/01 19:15:50.7670829 528   9728  DownloadManager BITS job {F61DE917-70FD-4E7D-A717-E24B91B01E65} completed successfully
    2016/03/01 19:15:53.2218670 528   9728  DownloadManager   Download job bytes total = 575055546, bytes transferred = 113461459
    2016/03/01 19:15:53.2244018 528   8248  DownloadManager Queueing update {609E6E2A-0102-4606-BB0B-59B2507C2065}.200 for download handler request generation.
    2016/03/01 19:15:53.2350152 528   8248  Handler         Loaded state: cCompleteIterations: 0, pt: Unknown, nNextRequestID: 0.
    2016/03/01 19:15:53.2350344 528   8248  DownloadManager Generating download request for update {609E6E2A-0102-4606-BB0B-59B2507C2065}.200
    2016/03/01 19:15:57.2390993 528   8248  DownloadManager Calling into handler 0x8 to generate download request for update 609E6E2A-0102-4606-BB0B-59B2507C2065.200
    2016/03/01 19:15:57.2391025 528   8248  Handler         Generating request for CBS update 609E6E2A-0102-4606-BB0B-59B2507C2065 in sandbox C:\WINDOWS\SoftwareDistribution\Download\73b193003926db9d52f8a53500e9b8f9
    2016/03/01 19:15:57.2391579 528   8248  Handler         Loaded state: cCompleteIterations: 1, pt: Express, nNextRequestID: 2.
    2016/03/01 19:15:57.2391588 528   8248  Handler         Selected payload type is Express
    2016/03/01 19:15:58.7728621 528   8248  Handler         Found response file 9f6532ab91c4671512e6eb275aee0c6f3480bd5e-1 for windows10.0-kb3140743-x64.psf
    2016/03/01 19:15:58.8129227 528   8248  Handler         Detected download state is dsHaveDownloadResponses
    2016/03/01 19:15:58.8129842 528   8248  Handler         Found response file 9f6532ab91c4671512e6eb275aee0c6f3480bd5e-1 for windows10.0-kb3140743-x64.psf
    2016/03/01 19:16:14.3222568 528   8248  Handler         Saved state: cCompleteIterations: 2, pt: Express, nNextRequestID: 2.
    2016/03/01 19:16:14.3222590 528   8248  Handler         Request generation for CBS update complete with hr=0x0 and pfResetSandbox=0
    2016/03/01 19:16:17.5745920 528   8248  DownloadManager All files for update {609E6E2A-0102-4606-BB0B-59B2507C2065}.200 were already downloaded and are valid.
    2016/03/01 19:16:17.5855088 528   8248  Handler         Loaded state: cCompleteIterations: 2, pt: Express, nNextRequestID: 2.
    2016/03/01 19:16:17.5886489 528   8248  DownloadManager * END * Download Call Complete Call 7 for caller UpdateOrchestrator has completed; signaling completion.
    2016/03/01 19:16:17.5889407 528   7340  ComApi          *RESUMED* Download ClientId = UpdateOrchestrator
    2016/03/01 19:16:17.5889414 528   7340  ComApi          Download call complete (succeeded = 1, succeeded with errors = 0, failed = 0, unaccounted = 0)
    2016/03/01 19:16:17.5889430 528   7340  ComApi          * END *   Download ClientId = UpdateOrchestrator
    2016/03/01 19:16:17.5891369 528   9852  ComApi          ISusInternal:: DisconnectCall failed, hr=8024000C
    2016/03/01 19:16:17.7010431 528   9852  ComApi          ISusInternal:: IsImmediateInstallPreferred failed, hr=80004001
    2016/03/01 19:16:17.7013381 528   9852  ComApi          ISusInternal:: IsImmediateInstallPreferred failed, hr=80004001
    2016/03/01 19:16:17.7033113 528   9852  ComApi          * START *   Install ClientId = UpdateOrchestrator
    2016/03/01 19:16:17.7033125 528   9852  ComApi          Allow source prompts: Yes; Forced: No; Force quiet: No; Attempt close apps if necessary: No
    2016/03/01 19:16:17.7033295 528   9852  ComApi          Updates in request: 1
    2016/03/01 19:16:17.7033375 528   9852  ComApi          ServiceID = {7971F918-A847-4430-9279-4A52D1EFE18D} Third party service
    2016/03/01 19:16:17.7039308 528   9852  Agent           Beginning install of conventional work item
    2016/03/01 19:16:17.7039436 528   9852  ComApi          *QUEUED* Updates to install = 1
    2016/03/01 19:16:17.7039445 528   9852  ComApi          Install ClientId = UpdateOrchestrator
    2016/03/01 19:16:17.7043695 528   8436  Agent           *  START  *  Installing updates CallerId = UpdateOrchestrator
    2016/03/01 19:16:17.7043705 528   8436  Agent           Updates to install = 1
    2016/03/01 19:16:17.7085570 528   8436  Agent             Title = Update for Windows 10 Version 1511 for x64-based Systems (KB3139907)
    2016/03/01 19:16:17.7085634 528   8436  Agent             UpdateId = D079382E-82C6-4544-8BBF-0D13C22E6E95.200
    2016/03/01 19:16:17.7085640 528   8436  Agent               Bundles 1 updates:
    2016/03/01 19:16:17.7085679 528   8436  Agent                 297C8264-53AA-4787-B914-DF3F237A1AFF.200
    2016/03/01 19:16:17.7589021 528   7340  Agent           WU client calls back to install call {50417A73-4834-4946-AE0E-BDEB82B03C65} with code Call progress and error 0
    2016/03/01 19:16:25.1528769 528   7340  Agent           WU client calls back to install call {50417A73-4834-4946-AE0E-BDEB82B03C65} with code Call progress and error 0
    2016/03/01 19:16:25.1540695 528   8436  Handler         Loaded state: cCompleteIterations: 2, pt: Express, nNextRequestID: 2.
    2016/03/01 19:16:25.1695085 528   8436  DownloadManager Preparing update for install, updateId = {297C8264-53AA-4787-B914-DF3F237A1AFF}.200.
    2016/03/01 19:16:25.1703075 5936  7984  Handler         * START *   CBS  Install
    2016/03/01 19:16:25.1710925 5936  7984  Handler         Starting install of CBS update 297C8264-53AA-4787-B914-DF3F237A1AFF
    2016/03/01 19:16:25.1716963 5936  7984  Handler         CBS session identity: 30503969_598515054
    2016/03/01 19:16:25.1732982 5936  7984  Handler         CBS package identity: Package_for_KB3139907~31bf3856ad364e35~amd64~~10.0.1.1
    2016/03/01 19:16:25.1744534 5936  7984  Handler         Loaded state: cCompleteIterations: 2, pt: Express, nNextRequestID: 2.
    2016/03/01 19:16:25.1744557 5936  7984  Handler         Installing Express with source=C:\WINDOWS\SoftwareDistribution\Download\a23646ce4cf3597cd14f30058641217e, workingdir=C:\WINDOWS\SoftwareDistribution\Download\a23646ce4cf3597cd14f30058641217e
    2016/03/01 19:16:25.2015852 5936  10100 Handler         CBS called Initiate
    2016/03/01 19:16:25.2034028 5936  10100 Handler         CBS called Progress with state=2, ticks=1, total=1000
    2016/03/01 19:16:25.2044322 5936  10100 Handler         CBS called Progress with state=2, ticks=11, total=1000
    2016/03/01 19:16:25.2053525 5936  10100 Handler         CBS called Progress with state=2, ticks=21, total=1000
    2016/03/01 19:16:25.2119704 5936  10100 Handler         CBS called Progress with state=2, ticks=31, total=1000
    2016/03/01 19:16:25.2179378 5936  10100 Handler         CBS called Progress with state=2, ticks=41, total=1000
    2016/03/01 19:16:25.2245730 5936  10100 Handler         CBS called Progress with state=2, ticks=51, total=1000
    2016/03/01 19:16:25.2307256 5936  10100 Handler         CBS called Progress with state=2, ticks=61, total=1000
    2016/03/01 19:16:25.3350152 5936  10100 Handler         CBS called Progress with state=2, ticks=71, total=1000
    2016/03/01 19:16:25.3423860 5936  10100 Handler         CBS called Progress with state=2, ticks=81, total=1000
    2016/03/01 19:16:25.3519373 5936  10100 Handler         CBS called Progress with state=2, ticks=91, total=1000
    2016/03/01 19:16:25.4271755 5936  10100 Handler         CBS called Progress with state=2, ticks=101, total=1000
    2016/03/01 19:16:25.4273227 5936  10100 Handler         CBS called Progress with state=2, ticks=112, total=1000
    2016/03/01 19:16:25.4274238 5936  10100 Handler         CBS called Progress with state=2, ticks=122, total=1000
    2016/03/01 19:16:25.4275192 5936  10100 Handler         CBS called Progress with state=2, ticks=132, total=1000
    2016/03/01 19:16:25.4276280 5936  10100 Handler         CBS called Progress with state=2, ticks=143, total=1000
    2016/03/01 19:16:25.4277291 5936  10100 Handler         CBS called Progress with state=2, ticks=153, total=1000
    2016/03/01 19:16:25.4278331 5936  10100 Handler         CBS called Progress with state=2, ticks=163, total=1000
    2016/03/01 19:16:25.4279294 5936  10100 Handler         CBS called Progress with state=2, ticks=174, total=1000
    2016/03/01 19:16:25.4280235 5936  10100 Handler         CBS called Progress with state=2, ticks=184, total=1000
    2016/03/01 19:16:25.4281237 5936  10100 Handler         CBS called Progress with state=2, ticks=194, total=1000
    2016/03/01 19:16:25.4282241 5936  10100 Handler         CBS called Progress with state=2, ticks=205, total=1000
    2016/03/01 19:16:25.4283253 5936  10100 Handler         CBS called Progress with state=2, ticks=215, total=1000
    2016/03/01 19:16:25.4284414 5936  10100 Handler         CBS called Progress with state=2, ticks=225, total=1000
    2016/03/01 19:16:25.4285621 5936  10100 Handler         CBS called Progress with state=2, ticks=236, total=1000
    2016/03/01 19:16:25.4286680 5936  10100 Handler         CBS called Progress with state=2, ticks=246, total=1000
    2016/03/01 19:16:25.4287576 5936  10100 Handler         CBS called Progress with state=2, ticks=256, total=1000
    2016/03/01 19:16:25.4288597 5936  10100 Handler         CBS called Progress with state=2, ticks=267, total=1000
    2016/03/01 19:16:25.4289640 5936  10100 Handler         CBS called Progress with state=2, ticks=277, total=1000
    2016/03/01 19:16:25.4290696 5936  10100 Handler         CBS called Progress with state=2, ticks=287, total=1000
    2016/03/01 19:16:25.4291800 5936  10100 Handler         CBS called Progress with state=2, ticks=298, total=1000
    2016/03/01 19:16:25.4292827 5936  10100 Handler         CBS called Progress with state=2, ticks=308, total=1000
    2016/03/01 19:16:25.4293832 5936  10100 Handler         CBS called Progress with state=2, ticks=318, total=1000
    2016/03/01 19:16:25.4295016 5936  10100 Handler         CBS called Progress with state=2, ticks=329, total=1000
    2016/03/01 19:16:25.4296088 5936  10100 Handler         CBS called Progress with state=2, ticks=339, total=1000
    2016/03/01 19:16:25.4297275 5936  10100 Handler         CBS called Progress with state=2, ticks=350, total=1000
    2016/03/01 19:16:25.4436481 5936  10100 Handler         CBS called Progress with state=2, ticks=361, total=1000
    2016/03/01 19:16:25.4437851 5936  10100 Handler         CBS called Progress with state=2, ticks=371, total=1000
    2016/03/01 19:16:25.4438878 5936  10100 Handler         CBS called Progress with state=2, ticks=382, total=1000
    2016/03/01 19:16:25.4439818 5936  10100 Handler         CBS called Progress with state=2, ticks=392, total=1000
    2016/03/01 19:16:25.4440798 5936  10100 Handler         CBS called Progress with state=2, ticks=403, total=1000
    2016/03/01 19:16:25.4441662 5936  10100 Handler         CBS called Progress with state=2, ticks=413, total=1000
    2016/03/01 19:16:25.4442622 5936  10100 Handler         CBS called Progress with state=2, ticks=425, total=1000
    2016/03/01 19:16:25.4443540 5936  10100 Handler         CBS called Progress with state=2, ticks=436, total=1000
    2016/03/01 19:16:25.4444465 5936  10100 Handler         CBS called Progress with state=2, ticks=446, total=1000
    2016/03/01 19:16:25.4445367 5936  10100 Handler         CBS called Progress with state=2, ticks=457, total=1000
    2016/03/01 19:16:25.4446446 5936  10100 Handler         CBS called Progress with state=2, ticks=467, total=1000
    2016/03/01 19:16:25.4447460 5936  10100 Handler         CBS called Progress with state=2, ticks=478, total=1000
    2016/03/01 19:16:25.4448474 5936  10100 Handler         CBS called Progress with state=2, ticks=488, total=1000
    2016/03/01 19:16:25.4449406 5936  10100 Handler         CBS called Progress with state=2, ticks=500, total=1000
    2016/03/01 19:16:25.4450510 5936  10100 Handler         CBS called Progress with state=2, ticks=511, total=1000
    2016/03/01 19:16:25.4451438 5936  10100 Handler         CBS called Progress with state=2, ticks=521, total=1000
    2016/03/01 19:16:25.4452407 5936  10100 Handler         CBS called Progress with state=2, ticks=532, total=1000
    2016/03/01 19:16:25.4453326 5936  10100 Handler         CBS called Progress with state=2, ticks=542, total=1000
    2016/03/01 19:16:25.4454305 5936  10100 Handler         CBS called Progress with state=2, ticks=554, total=1000
    2016/03/01 19:16:25.4455287 5936  10100 Handler         CBS called Progress with state=2, ticks=565, total=1000
    2016/03/01 19:16:25.4456225 5936  10100 Handler         CBS called Progress with state=2, ticks=575, total=1000
    2016/03/01 19:16:25.4457137 5936  10100 Handler         CBS called Progress with state=2, ticks=586, total=1000
    2016/03/01 19:16:25.4458138 5936  10100 Handler         CBS called Progress with state=2, ticks=596, total=1000
    2016/03/01 19:16:25.4459054 5936  10100 Handler         CBS called Progress with state=2, ticks=607, total=1000
    2016/03/01 19:16:25.4460068 5936  10100 Handler         CBS called Progress with state=2, ticks=617, total=1000
    2016/03/01 19:16:25.4461012 5936  10100 Handler         CBS called Progress with state=2, ticks=629, total=1000
    2016/03/01 19:16:25.4461969 5936  10100 Handler         CBS called Progress with state=2, ticks=640, total=1000
    2016/03/01 19:16:25.4463038 5936  10100 Handler         CBS called Progress with state=2, ticks=650, total=1000
    2016/03/01 19:16:25.4464058 5936  10100 Handler         CBS called Progress with state=2, ticks=661, total=1000
    2016/03/01 19:16:25.4465127 5936  10100 Handler         CBS called Progress with state=2, ticks=671, total=1000
    2016/03/01 19:16:25.4466260 5936  10100 Handler         CBS called Progress with state=2, ticks=682, total=1000
    2016/03/01 19:16:25.7908057 5936  10100 Handler         CBS called Progress with state=7, ticks=692, total=1000
    2016/03/01 19:16:25.9925299 5936  10100 Handler         CBS called Progress with state=7, ticks=702, total=1000
    2016/03/01 19:16:26.2147720 5936  10100 Handler         CBS called Progress with state=7, ticks=712, total=1000
    2016/03/01 19:16:26.2176485 5936  10100 Handler         CBS called Progress with state=7, ticks=722, total=1000
    2016/03/01 19:16:26.2216312 5936  10100 Handler         CBS called Progress with state=7, ticks=732, total=1000
    2016/03/01 19:16:26.2248978 5936  10100 Handler         CBS called Progress with state=7, ticks=742, total=1000
    2016/03/01 19:16:26.2286657 5936  10100 Handler         CBS called Progress with state=7, ticks=753, total=1000
    2016/03/01 19:16:26.2319198 5936  10100 Handler         CBS called Progress with state=7, ticks=763, total=1000
    2016/03/01 19:16:26.2352312 5936  10100 Handler         CBS called Progress with state=7, ticks=773, total=1000
    2016/03/01 19:16:26.2385278 5936  10100 Handler         CBS called Progress with state=7, ticks=783, total=1000
    2016/03/01 19:16:26.2418257 5936  10100 Handler         CBS called Progress with state=7, ticks=794, total=1000
    2016/03/01 19:16:26.2886428 5936  10100 Handler         CBS called Progress with state=7, ticks=804, total=1000
    2016/03/01 19:16:26.2951356 5936  10100 Handler         CBS called Progress with state=7, ticks=814, total=1000
    2016/03/01 19:16:26.2987858 5936  10100 Handler         CBS called Progress with state=7, ticks=824, total=1000
    2016/03/01 19:16:26.3036677 5936  10100 Handler         CBS called Progress with state=7, ticks=834, total=1000
    2016/03/01 19:16:26.3101855 5936  10100 Handler         CBS called Progress with state=7, ticks=844, total=1000
    2016/03/01 19:16:26.3131029 5936  10100 Handler         CBS called Progress with state=7, ticks=854, total=1000
    2016/03/01 19:16:26.3158821 5936  10100 Handler         CBS called Progress with state=7, ticks=864, total=1000
    2016/03/01 19:16:26.3207435 5936  10100 Handler         CBS called Progress with state=7, ticks=874, total=1000
    2016/03/01 19:16:26.3236677 5936  10100 Handler         CBS called Progress with state=7, ticks=885, total=1000
    2016/03/01 19:16:26.3728112 5936  10100 Handler         CBS called Progress with state=7, ticks=915, total=1000
    2016/03/01 19:16:26.4050572 5936  10100 Handler         CBS called Progress with state=7, ticks=925, total=1000
    2016/03/01 19:16:26.4178568 5936  10100 Handler         CBS called Progress with state=7, ticks=935, total=1000
    2016/03/01 19:16:26.4293093 5936  10100 Handler         CBS called Progress with state=7, ticks=945, total=1000
    2016/03/01 19:16:26.4403403 5936  10100 Handler         CBS called Progress with state=7, ticks=955, total=1000
    2016/03/01 19:16:26.4519585 5936  10100 Handler         CBS called Progress with state=7, ticks=965, total=1000
    2016/03/01 19:16:26.6056399 5936  10100 Handler         CBS called Progress with state=7, ticks=1000, total=1000
    2016/03/01 19:16:26.6058642 5936  10100 Handler         CBS called Terminate
    2016/03/01 19:16:26.6061676 5936  7984  Handler         Completed install of CBS update with type=1, requiresReboot=0, installerError=0, hr=0x0
    2016/03/01 19:16:26.6062031 5936  7984  Handler         * END *   CBS Install
    2016/03/01 19:16:26.6084901 528   8436  Handler         Loaded state: cCompleteIterations: 2, pt: Express, nNextRequestID: 2.
    2016/03/01 19:16:26.6104165 528   8436  Agent           LogHistory called. idUpdate={D079382E-82C6-4544-8BBF-0D13C22E6E95}.200, resultMapped=0, resultUnMapped=0
    2016/03/01 19:16:26.6135304 528   8436  Agent           Installing updates CallerId = UpdateOrchestrator
    2016/03/01 19:16:26.6135490 528   7340  ComApi           Install ClientId = UpdateOrchestrator
    2016/03/01 19:16:26.6135503 528   7340  ComApi          Install call complete (succeeded = 1, succeeded with errors = 0, failed = 0, unaccounted = 0
    2016/03/01 19:16:26.6136053 528   7340  ComApi          Reboot required = False
    2016/03/01 19:16:26.6136056 528   7340  ComApi          * END *   Install ClientId = UpdateOrchestrator
    2016/03/01 19:16:26.6136075 528   7340  Agent           WU client calls back to install call {50417A73-4834-4946-AE0E-BDEB82B03C65} with code Call complete and error 0
    2016/03/01 19:16:26.6140066 528   9852  ComApi          ISusInternal:: DisconnectCall failed, hr=8024000C
    2016/03/01 19:16:26.6142274 528   9852  ComApi          * START *   Install ClientId = UpdateOrchestrator
    2016/03/01 19:16:26.6142280 528   9852  ComApi          Allow source prompts: Yes; Forced: No; Force quiet: No; Attempt close apps if necessary: No
    2016/03/01 19:16:26.6142418 528   9852  ComApi          Updates in request: 1
    2016/03/01 19:16:26.6142475 528   9852  ComApi          ServiceID = {7971F918-A847-4430-9279-4A52D1EFE18D} Third party service
    2016/03/01 19:16:26.6146424 528   9852  Agent           Beginning install of conventional work item
    2016/03/01 19:16:26.6146495 528   9852  ComApi          *QUEUED* Updates to install = 1
    2016/03/01 19:16:26.6146501 528   9852  ComApi          Install ClientId = UpdateOrchestrator
    2016/03/01 19:16:26.6154696 528   8436  Agent           *  START  *  Installing updates CallerId = UpdateOrchestrator
    2016/03/01 19:16:26.6154699 528   8436  Agent           Updates to install = 1
    2016/03/01 19:16:26.6172482 528   8436  Agent             Title = Cumulative Update for Windows 10 Version 1511 for x64-based Systems (KB3140743)
    2016/03/01 19:16:26.6172517 528   8436  Agent             UpdateId = B6392B54-852D-43F4-828C-2376EAA3C67F.200
    2016/03/01 19:16:26.6172517 528   8436  Agent               Bundles 1 updates:
    2016/03/01 19:16:26.6172536 528   8436  Agent                 609E6E2A-0102-4606-BB0B-59B2507C2065.200
    2016/03/01 19:16:27.2122703 528   7340  Agent           WU client calls back to install call {1F02B9E7-76B7-4D3C-96D8-9D4D96A0525F} with code Call progress and error 0
    2016/03/01 19:16:32.5228242 528   7340  Agent           WU client calls back to install call {1F02B9E7-76B7-4D3C-96D8-9D4D96A0525F} with code Call progress and error 0
    2016/03/01 19:16:32.5359016 528   8436  Handler         Loaded state: cCompleteIterations: 2, pt: Express, nNextRequestID: 2.
    2016/03/01 19:16:32.5513418 528   8436  DownloadManager Preparing update for install, updateId = {609E6E2A-0102-4606-BB0B-59B2507C2065}.200.
    2016/03/01 19:16:32.5600237 6756  4944  Handler         * START *   CBS  Install
    2016/03/01 19:16:32.5610576 6756  4944  Handler         Starting install of CBS update 609E6E2A-0102-4606-BB0B-59B2507C2065
    2016/03/01 19:16:32.5617015 6756  4944  Handler         CBS session identity: 30503969_672413329
    2016/03/01 19:16:32.5854300 6756  4944  Handler         CBS package identity: Package_for_KB3140743~31bf3856ad364e35~amd64~~10.0.1.5
    2016/03/01 19:16:32.5872284 6756  4944  Handler         Loaded state: cCompleteIterations: 2, pt: Express, nNextRequestID: 2.
    2016/03/01 19:16:32.5872307 6756  4944  Handler         Installing Express with source=C:\WINDOWS\SoftwareDistribution\Download\5c46e32a6f2ac99bfd0f54fb6ba141f9, workingdir=C:\WINDOWS\SoftwareDistribution\Download\5c46e32a6f2ac99bfd0f54fb6ba141f9
    2016/03/01 19:16:39.8869926 6756  5232  Handler         CBS called Initiate
    2016/03/01 19:16:39.8936899 6756  5232  Handler         CBS called Progress with state=2, ticks=1, total=1000
    2016/03/01 19:16:39.8960082 6756  5232  Handler         CBS called Progress with state=2, ticks=11, total=1000
    2016/03/01 19:16:39.8980300 6756  5232  Handler         CBS called Progress with state=2, ticks=21, total=1000
    2016/03/01 19:16:39.8999452 6756  5232  Handler         CBS called Progress with state=2, ticks=31, total=1000
    2016/03/01 19:16:39.9018469 6756  5232  Handler         CBS called Progress with state=2, ticks=41, total=1000
    2016/03/01 19:16:39.9037557 6756  5232  Handler         CBS called Progress with state=2, ticks=51, total=1000
    2016/03/01 19:16:39.9056434 6756  5232  Handler         CBS called Progress with state=2, ticks=61, total=1000
    2016/03/01 19:16:39.9075791 6756  5232  Handler         CBS called Progress with state=2, ticks=71, total=1000
    2016/03/01 19:16:39.9094447 6756  5232  Handler         CBS called Progress with state=2, ticks=81, total=1000
    2016/03/01 19:16:39.9104687 6756  5232  Handler         CBS called Progress with state=2, ticks=91, total=1000
    2016/03/01 19:16:41.0660458 6756  5232  Handler         CBS called Progress with state=2, ticks=100, total=1000
    2016/03/01 19:16:42.4854544 6756  5232  Handler         CBS called Progress with state=2, ticks=100, total=1000
    2016/03/01 19:16:43.5606820 6756  5232  Handler         CBS called Progress with state=2, ticks=100, total=1000
    2016/03/01 19:16:44.6185295 6756  5232  Handler         CBS called Progress with state=2, ticks=100, total=1000
    2016/03/01 19:16:45.6283099 6756  5232  Handler         CBS called Progress with state=2, ticks=100, total=1000
    2016/03/01 19:16:46.2460890 6756  5232  Handler         CBS called Progress with state=2, ticks=110, total=1000
    2016/03/01 19:16:46.2489918 6756  5232  Handler         CBS called Progress with state=2, ticks=120, total=1000
    2016/03/01 19:16:46.2519620 6756  5232  Handler         CBS called Progress with state=2, ticks=130, total=1000
    2016/03/01 19:16:46.2548554 6756  5232  Handler         CBS called Progress with state=2, ticks=140, total=1000
    2016/03/01 19:16:46.2577463 6756  5232  Handler         CBS called Progress with state=2, ticks=150, total=1000
    2016/03/01 19:16:46.2605821 6756  5232  Handler         CBS called Progress with state=2, ticks=160, total=1000
    2016/03/01 19:16:46.2634179 6756  5232  Handler         CBS called Progress with state=2, ticks=170, total=1000
    2016/03/01 19:16:46.2662855 6756  5232  Handler         CBS called Progress with state=2, ticks=180, total=1000
    2016/03/01 19:16:46.2691232 6756  5232  Handler         CBS called Progress with state=2, ticks=190, total=1000
    2016/03/01 19:16:46.2720198 6756  5232  Handler         CBS called Progress with state=2, ticks=200, total=1000
    2016/03/01 19:16:46.2748867 6756  5232  Handler         CBS called Progress with state=2, ticks=210, total=1000
    2016/03/01 19:16:46.2777149 6756  5232  Handler         CBS called Progress with state=2, ticks=220, total=1000
    2016/03/01 19:16:46.2805453 6756  5232  Handler         CBS called Progress with state=2, ticks=230, total=1000
    2016/03/01 19:16:46.2834448 6756  5232  Handler         CBS called Progress with state=2, ticks=240, total=1000
    2016/03/01 19:16:46.2863289 6756  5232  Handler         CBS called Progress with state=2, ticks=250, total=1000
    2016/03/01 19:16:46.2891529 6756  5232  Handler         CBS called Progress with state=2, ticks=260, total=1000
    2016/03/01 19:16:46.2919779 6756  5232  Handler         CBS called Progress with state=2, ticks=270, total=1000
    2016/03/01 19:16:46.2948658 6756  5232  Handler         CBS called Progress with state=2, ticks=280, total=1000
    2016/03/01 19:16:46.2977791 6756  5232  Handler         CBS called Progress with state=2, ticks=290, total=1000
    2016/03/01 19:16:46.3006485 6756  5232  Handler         CBS called Progress with state=2, ticks=300, total=1000
    2016/03/01 19:16:46.3035093 6756  5232  Handler         CBS called Progress with state=2, ticks=310, total=1000
    2016/03/01 19:16:46.3063992 6756  5232  Handler         CBS called Progress with state=2, ticks=320, total=1000
    2016/03/01 19:16:46.3092520 6756  5232  Handler         CBS called Progress with state=2, ticks=330, total=1000
    2016/03/01 19:16:46.3121474 6756  5232  Handler         CBS called Progress with state=2, ticks=340, total=1000
    2016/03/01 19:16:46.3150082 6756  5232  Handler         CBS called Progress with state=2, ticks=350, total=1000
    2016/03/01 19:16:46.3584544 6756  5232  Handler         CBS called Progress with state=2, ticks=360, total=1000
    2016/03/01 19:16:46.3621904 6756  5232  Handler         CBS called Progress with state=2, ticks=370, total=1000
    2016/03/01 19:16:46.3668573 6756  5232  Handler         CBS called Progress with state=2, ticks=380, total=1000
    2016/03/01 19:16:46.3714678 6756  5232  Handler         CBS called Progress with state=2, ticks=390, total=1000
    2016/03/01 19:16:46.3761049 6756  5232  Handler         CBS called Progress with state=2, ticks=400, total=1000
    2016/03/01 19:16:46.3806269 6756  5232  Handler         CBS called Progress with state=2, ticks=410, total=1000
    2016/03/01 19:16:46.3860108 6756  5232  Handler         CBS called Progress with state=2, ticks=420, total=1000
    2016/03/01 19:16:46.3899567 6756  5232  Handler         CBS called Progress with state=2, ticks=430, total=1000
    2016/03/01 19:16:46.3920940 6756  5232  Handler         CBS called Progress with state=2, ticks=440, total=1000
    2016/03/01 19:16:46.3942274 6756  5232  Handler         CBS called Progress with state=2, ticks=450, total=1000
    2016/03/01 19:16:46.3964281 6756  5232  Handler         CBS called Progress with state=2, ticks=460, total=1000
    2016/03/01 19:16:46.3986825 6756  5232  Handler         CBS called Progress with state=2, ticks=470, total=1000
    2016/03/01 19:16:46.4008953 6756  5232  Handler         CBS called Progress with state=2, ticks=480, total=1000
    2016/03/01 19:16:46.4030316 6756  5232  Handler         CBS called Progress with state=2, ticks=490, total=1000
    2016/03/01 19:16:46.4051689 6756  5232  Handler         CBS called Progress with state=2, ticks=500, total=1000
    2016/03/01 19:16:46.4072940 6756  5232  Handler         CBS called Progress with state=2, ticks=510, total=1000
    2016/03/01 19:16:46.4094680 6756  5232  Handler         CBS called Progress with state=2, ticks=520, total=1000
    2016/03/01 19:16:46.4116639 6756  5232  Handler         CBS called Progress with state=2, ticks=530, total=1000
    2016/03/01 19:16:46.4138511 6756  5232  Handler         CBS called Progress with state=2, ticks=540, total=1000
    2016/03/01 19:16:46.4159813 6756  5232  Handler         CBS called Progress with state=2, ticks=550, total=1000
    2016/03/01 19:16:46.4182402 6756  5232  Handler         CBS called Progress with state=2, ticks=560, total=1000
    2016/03/01 19:16:46.4205157 6756  5232  Handler         CBS called Progress with state=2, ticks=570, total=1000
    2016/03/01 19:16:46.4226539 6756  5232  Handler         CBS called Progress with state=2, ticks=580, total=1000
    2016/03/01 19:16:46.4248587 6756  5232  Handler         CBS called Progress with state=2, ticks=590, total=1000
    2016/03/01 19:16:46.4270213 6756  5232  Handler         CBS called Progress with state=2, ticks=600, total=1000
    2016/03/01 19:16:46.4291896 6756  5232  Handler         CBS called Progress with state=2, ticks=610, total=1000
    2016/03/01 19:16:46.4313349 6756  5232  Handler         CBS called Progress with state=2, ticks=620, total=1000
    2016/03/01 19:16:46.4336398 6756  5232  Handler         CBS called Progress with state=2, ticks=630, total=1000
    2016/03/01 19:16:46.4359089 6756  5232  Handler         CBS called Progress with state=2, ticks=640, total=1000
    2016/03/01 19:16:46.4380711 6756  5232  Handler         CBS called Progress with state=2, ticks=650, total=1000
    2016/03/01 19:16:46.4402766 6756  5232  Handler         CBS called Progress with state=2, ticks=660, total=1000
    2016/03/01 19:16:46.4424315 6756  5232  Handler         CBS called Progress with state=2, ticks=670, total=1000
    2016/03/01 19:16:46.4446129 6756  5232  Handler         CBS called Progress with state=2, ticks=680, total=1000
    2016/03/01 19:16:52.5913091 6756  5232  Handler         CBS called Progress with state=2, ticks=690, total=1000
    2016/03/01 19:16:55.2180152 6756  5232  Handler         CBS called Progress with state=2, ticks=690, total=1000
    2016/03/01 19:16:56.5746835 6756  5232  Handler         CBS called Progress with state=2, ticks=690, total=1000
    2016/03/01 19:16:57.8652291 6756  5232  Handler         CBS called Progress with state=4, ticks=690, total=1000
    2016/03/01 19:16:58.0208530 6756  5232  Handler         CBS called Progress with state=7, ticks=700, total=1000
    2016/03/01 19:16:59.0325012 6756  5232  Handler         CBS called Progress with state=7, ticks=702, total=1000
    2016/03/01 19:17:00.2156923 6756  5232  Handler         CBS called Progress with state=7, ticks=703, total=1000
    2016/03/01 19:17:01.1453476 6756  5232  Handler         CBS called Progress with state=7, ticks=1000, total=1000
    2016/03/01 19:17:01.1458135 6756  5232  Handler         CBS called Terminate
    2016/03/01 19:17:01.1460577 6756  4944  Handler         Requesting post-reboot reporting for package Package_for_KB3140743~31bf3856ad364e35~amd64~~10.0.1.5.
    2016/03/01 19:17:01.1461287 6756  4944  Handler         Completed install of CBS update with type=3, requiresReboot=1, installerError=0, hr=0x0
    2016/03/01 19:17:01.1461937 6756  4944  Handler         * END *   CBS Install
    2016/03/01 19:17:01.1756336 528   8436  Handler         Loaded state: cCompleteIterations: 2, pt: Express, nNextRequestID: 2.
    2016/03/01 19:17:01.1794963 528   8436  Agent           LogHistory called. idUpdate={B6392B54-852D-43F4-828C-2376EAA3C67F}.200, resultMapped=80242014, resultUnMapped=0
    2016/03/01 19:17:01.1818723 528   8436  Agent           Installing updates CallerId = UpdateOrchestrator
    2016/03/01 19:17:01.1818937 528   7340  ComApi           Install ClientId = UpdateOrchestrator
    2016/03/01 19:17:01.1818950 528   7340  ComApi          Install call complete (succeeded = 1, succeeded with errors = 0, failed = 0, unaccounted = 0
    2016/03/01 19:17:01.1819430 528   7340  ComApi          Reboot required = True
    2016/03/01 19:17:01.1819433 528   7340  ComApi          * END *   Install ClientId = UpdateOrchestrator
    2016/03/01 19:17:01.1819449 528   7340  Agent           WU client calls back to install call {1F02B9E7-76B7-4D3C-96D8-9D4D96A0525F} with code Call complete and error 0
    2016/03/01 19:17:01.1823622 528   9852  ComApi          ISusInternal:: DisconnectCall failed, hr=8024000C
    2016/03/01 19:17:01.3567760 528   9852  ComApi          * START *   Init Search ClientId = UpdateOrchestrator
    2016/03/01 19:17:01.3567780 528   9852  ComApi          * START *   Search ClientId = UpdateOrchestrator
    2016/03/01 19:17:01.3582983 528   9852  Agent           * START * Queueing Finding updates [CallerId = UpdateOrchestrator  Id = 10]
    2016/03/01 19:17:01.3583015 528   9852  Agent           Removing service 00000000-0000-0000-0000-000000000000 from sequential scan list
    2016/03/01 19:17:01.3583037 528   9852  Agent           Added service 00000000-0000-0000-0000-000000000000 to sequential scan list
    2016/03/01 19:17:01.3583127 528   9852  ComApi          Search ClientId = UpdateOrchestrator
    2016/03/01 19:17:01.3587821 528   7020  Agent           * END * Queueing Finding updates [CallerId = UpdateOrchestrator  Id = 10]
    2016/03/01 19:17:01.3591024 528   7020  Agent           * START * Finding updates CallerId = UpdateOrchestrator  Id = 10
    2016/03/01 19:17:01.3591031 528   7020  Agent           Online = Yes; Ignore download priority = No
    2016/03/01 19:17:01.3591037 528   7020  Agent           Criteria = IsInstalled=0 and DeploymentAction='Installation' or IsPresent=1 and DeploymentAction='Uninstallation' or IsInstalled=1 and DeploymentAction='Installation' and RebootRequired=1 or IsInstalled=0 and DeploymentAction='Uninstallation' and RebootRequired=1""
    2016/03/01 19:17:01.3591050 528   7020  Agent           ServiceID = {00000000-0000-0000-0000-000000000000} Third party service
    2016/03/01 19:17:01.3591053 528   7020  Agent           Search Scope = {Machine}
    2016/03/01 19:17:01.3591069 528   7020  Agent           Caller SID for Applicability: S-1-5-21-1072330415-2185792746-4136086322-1000
    2016/03/01 19:17:01.3591072 528   7020  Agent           RegisterService is set
    2016/03/01 19:17:01.3598736 528   7020  Misc            Got 9482F4B4-E343-43B6-B170-9A65BC822C77 redir SecondaryServiceAuth URL: 7971f918-a847-4430-9279-4a52d1efe18d""
    2016/03/01 19:17:01.3626215 528   7020  Misc            Got 7971F918-A847-4430-9279-4A52D1EFE18D redir Client/Server URL: https://fe2.update.microsoft.com/v6/...ce/client.asmx""
    2016/03/01 19:17:02.3521492 528   7020  ProtocolTalker  ServiceId = {7971F918-A847-4430-9279-4A52D1EFE18D}, Server URL = https://fe2.update.microsoft.com/v6/...ce/client.asmx
    2016/03/01 19:17:02.3521569 528   7020  ProtocolTalker  OK to reuse existing configuration
    2016/03/01 19:17:02.3521591 528   7020  ProtocolTalker  Existing cookie is valid, just use it
    2016/03/01 19:17:06.3518676 528   7020  WebServices     Auto proxy settings for this web service call.
    2016/03/01 19:17:07.4378436 528   7020  ProtocolTalker  PTInfo: syncing with server using normal query
    2016/03/01 19:17:07.9659098 528   7020  ProtocolTalker  SyncUpdates round trips: 2
    2016/03/01 19:17:07.9839193 528   7020  Driver          Matched driver to device PCI\VEN_8086&DEV_3CE4&SUBSYS_84EF1043&REV_07
    2016/03/01 19:17:07.9839200 528   7020  Driver          Status: 0x1802000, ProblemNumber: 00000000
    2016/03/01 19:17:07.9840368 528   7020  Driver          DrvUtil: {PCI\VEN_8086&DEV_3CE4}
    2016/03/01 19:17:07.9840857 528   7020  Driver          Matched driver to device PCI\VEN_8086&DEV_3C28&SUBSYS_84EF1043&REV_07
    2016/03/01 19:17:07.9840860 528   7020  Driver          Status: 0x1802000, ProblemNumber: 00000000
    2016/03/01 19:17:07.9841334 528   7020  Driver          DrvUtil: {PCI\VEN_8086&DEV_3C28}
    2016/03/01 19:17:07.9842032 528   7020  Driver          Matched driver to device PCI\VEN_8086&DEV_3CD0&SUBSYS_84EF1043&REV_07
    2016/03/01 19:17:07.9842035 528   7020  Driver          Status: 0x1802000, ProblemNumber: 00000000
    2016/03/01 19:17:07.9842284 528   7020  Driver          DrvUtil: {PCI\VEN_8086&DEV_3CD0}
    2016/03/01 19:17:07.9842665 528   7020  Driver          Matched driver to device PCI\VEN_8086&DEV_3C46&SUBSYS_84EF1043&REV_07
    2016/03/01 19:17:07.9842668 528   7020  Driver          Status: 0x1802000, ProblemNumber: 00000000
    2016/03/01 19:17:07.9843232 528   7020  Driver          DrvUtil: {PCI\VEN_8086&DEV_3C46}
    2016/03/01 19:17:07.9843478 528   7020  Driver          Matched driver to device PCI\VEN_8086&DEV_3CE3&SUBSYS_84EF1043&REV_07
    2016/03/01 19:17:07.9843481 528   7020  Driver          Status: 0x1802000, ProblemNumber: 00000000
    2016/03/01 19:17:07.9844179 528   7020  Driver          DrvUtil: {PCI\VEN_8086&DEV_3CE3}
    2016/03/01 19:17:07.9844275 528   7020  Driver          Matched driver to device PCI\VEN_8086&DEV_3CB8&SUBSYS_84EF1043&REV_07
    2016/03/01 19:17:07.9844275 528   7020  Driver          Status: 0x1802000, ProblemNumber: 00000000
    2016/03/01 19:17:07.9845123 528   7020  Driver          DrvUtil: {PCI\VEN_8086&DEV_3CB8}
    2016/03/01 19:17:07.9845276 528   7020  Driver          Matched driver to device PCI\VEN_8086&DEV_3CB7&SUBSYS_84EF1043&REV_07
    2016/03/01 19:17:07.9845276 528   7020  Driver          Status: 0x1802000, ProblemNumber: 00000000
    2016/03/01 19:17:07.9846076 528   7020  Driver          DrvUtil: {PCI\VEN_8086&DEV_3CB7}
    2016/03/01 19:17:07.9846217 528   7020  Driver          Matched driver to device PCI\VEN_8086&DEV_3CC0&SUBSYS_84EF1043&REV_07
    2016/03/01 19:17:07.9846220 528   7020  Driver          Status: 0x1802000, ProblemNumber: 00000000
    2016/03/01 19:17:07.9847020 528   7020  Driver          DrvUtil: {PCI\VEN_8086&DEV_3CC0}
    2016/03/01 19:17:07.9847942 528   7020  Driver          Matched driver to device PCI\VEN_8086&DEV_3CAA&SUBSYS_84EF1043&REV_07
    2016/03/01 19:17:07.9847945 528   7020  Driver          Status: 0x1802000, ProblemNumber: 00000000
    2016/03/01 19:17:07.9847964 528   7020  Driver          DrvUtil: {PCI\VEN_8086&DEV_3CAA}
    2016/03/01 19:17:07.9848313 528   7020  Driver          Matched driver to device PCI\VEN_8086&DEV_3C2C&SUBSYS_84EF1043&REV_07
    2016/03/01 19:17:07.9848313 528   7020  Driver          Status: 0x1802000, ProblemNumber: 00000000
    2016/03/01 19:17:07.9848908 528   7020  Driver          DrvUtil: {PCI\VEN_8086&DEV_3C2C}
    2016/03/01 19:17:07.9849164 528   7020  Driver          Matched driver to device PCI\VEN_8086&DEV_3CB5&SUBSYS_84EF1043&REV_07
    2016/03/01 19:17:07.9849164 528   7020  Driver          Status: 0x1802000, ProblemNumber: 00000000
    2016/03/01 19:17:07.9849852 528   7020  Driver          DrvUtil: {PCI\VEN_8086&DEV_3CB5}
    2016/03/01 19:17:07.9850345 528   7020  Driver          Matched driver to device PCI\VEN_8086&DEV_3C45&SUBSYS_84EF1043&REV_07
    2016/03/01 19:17:07.9850348 528   7020  Driver          Status: 0x1802000, ProblemNumber: 00000000
    2016/03/01 19:17:07.9850816 528   7020  Driver          DrvUtil: {PCI\VEN_8086&DEV_3C45}
    2016/03/01 19:17:07.9851523 528   7020  Driver          Matched driver to device PCI\VEN_8086&DEV_3CF5&SUBSYS_84EF1043&REV_07
    2016/03/01 19:17:07.9851526 528   7020  Driver          Status: 0x1802000, ProblemNumber: 00000000
    2016/03/01 19:17:07.9851769 528   7020  Driver          DrvUtil: {PCI\VEN_8086&DEV_3CF5}
    2016/03/01 19:17:07.9852649 528   7020  Driver          Matched driver to device PCI\VEN_8086&DEV_3CE8&SUBSYS_84EF1043&REV_07
    2016/03/01 19:17:07.9852652 528   7020  Driver          Status: 0x1802000, ProblemNumber: 00000000
    2016/03/01 19:17:07.9852656 528   7020  Driver          Matched driver to device PCI\VEN_8086&DEV_3CE8&SUBSYS_84EF1043&REV_07
    2016/03/01 19:17:07.9852659 528   7020  Driver          Status: 0x1802000, ProblemNumber: 00000000
    2016/03/01 19:17:07.9852662 528   7020  Driver          Matched driver to device PCI\VEN_8086&DEV_3CE8&SUBSYS_84EF1043&REV_07
    2016/03/01 19:17:07.9852665 528   7020  Driver          Status: 0x1802000, ProblemNumber: 00000000
    2016/03/01 19:17:07.9852672 528   7020  Driver          Matched driver to device PCI\VEN_8086&DEV_3CE8&SUBSYS_84EF1043&REV_07
    2016/03/01 19:17:07.9852672 528   7020  Driver          Status: 0x1802000, ProblemNumber: 00000000
    2016/03/01 19:17:07.9852678 528   7020  Driver          Matched driver to device PCI\VEN_8086&DEV_3CE8&SUBSYS_84EF1043&REV_07
    2016/03/01 19:17:07.9852678 528   7020  Driver          Status: 0x1802000, ProblemNumber: 00000000
    2016/03/01 19:17:07.9852684 528   7020  Driver          Matched driver to device PCI\VEN_8086&DEV_3CE8&SUBSYS_84EF1043&REV_07
    2016/03/01 19:17:07.9852684 528   7020  Driver          Status: 0x1802000, ProblemNumber: 00000000
    2016/03/01 19:17:07.9852716 528   7020  Driver          DrvUtil: {PCI\VEN_8086&DEV_3CE8}
    2016/03/01 19:17:07.9852790 528   7020  Driver          Matched driver to device PCI\VEN_8086&DEV_3C04&SUBSYS_84EF1043&REV_07
    2016/03/01 19:17:07.9852793 528   7020  Driver          Status: 0x180200a, ProblemNumber: 00000000
    2016/03/01 19:17:07.9853660 528   7020  Driver          DrvUtil: {PCI\VEN_8086&DEV_3C04}
    2016/03/01 19:17:07.9854169 528   7020  Driver          Matched driver to device PCI\VEN_8086&DEV_3C44&SUBSYS_84EF1043&REV_07
    2016/03/01 19:17:07.9854169 528   7020  Driver          Status: 0x1802000, ProblemNumber: 00000000
    2016/03/01 19:17:07.9854601 528   7020  Driver          DrvUtil: {PCI\VEN_8086&DEV_3C44}
    2016/03/01 19:17:07.9855363 528   7020  Driver          Matched driver to device PCI\VEN_8086&DEV_3CF4&SUBSYS_84EF1043&REV_07
    2016/03/01 19:17:07.9855363 528   7020  Driver          Status: 0x1802000, ProblemNumber: 00000000
    2016/03/01 19:17:07.9855545 528   7020  Driver          DrvUtil: {PCI\VEN_8086&DEV_3CF4}
    2016/03/01 19:17:07.9856134 528   7020  Driver          Matched driver to device PCI\VEN_8086&DEV_3C08&SUBSYS_84EF1043&REV_07
    2016/03/01 19:17:07.9856134 528   7020  Driver          Status: 0x180200a, ProblemNumber: 00000000
    2016/03/01 19:17:07.9856518 528   7020  Driver          DrvUtil: {PCI\VEN_8086&DEV_3C08}
    2016/03/01 19:17:07.9857123 528   7020  Driver          Matched driver to device PCI\VEN_8086&DEV_3C94&SUBSYS_84EF1043&REV_07
    2016/03/01 19:17:07.9857126 528   7020  Driver          Status: 0x1802000, ProblemNumber: 00000000
    2016/03/01 19:17:07.9857468 528   7020  Driver          DrvUtil: {PCI\VEN_8086&DEV_3C94}
    2016/03/01 19:17:07.9857571 528   7020  Driver          Matched driver to device PCI\VEN_8086&DEV_3C2A&SUBSYS_84EF1043&REV_07
    2016/03/01 19:17:07.9857574 528   7020  Driver          Status: 0x1802000, ProblemNumber: 00000000
    2016/03/01 19:17:07.9858409 528   7020  Driver          DrvUtil: {PCI\VEN_8086&DEV_3C2A}
    2016/03/01 19:17:07.9859228 528   7020  Driver          Matched driver to device PCI\VEN_8086&DEV_3CA0&SUBSYS_84EF1043&REV_07
    2016/03/01 19:17:07.9859228 528   7020  Driver          Status: 0x1802000, ProblemNumber: 00000000
    2016/03/01 19:17:07.9859356 528   7020  Driver          DrvUtil: {PCI\VEN_8086&DEV_3CA0}
    2016/03/01 19:17:07.9860131 528   7020  Driver          Matched driver to device PCI\VEN_8086&DEV_3C90&SUBSYS_84EF1043&REV_07
    2016/03/01 19:17:07.9860134 528   7020  Driver          Status: 0x1802000, ProblemNumber: 00000000
    2016/03/01 19:17:07.9860300 528   7020  Driver          DrvUtil: {PCI\VEN_8086&DEV_3C90}
    2016/03/01 19:17:07.9860649 528   7020  Driver          Matched driver to device PCI\VEN_8086&DEV_3CB3&SUBSYS_84EF1043&REV_07
    2016/03/01 19:17:07.9860652 528   7020  Driver          Status: 0x1802000, ProblemNumber: 00000000
    2016/03/01 19:17:07.9861267 528   7020  Driver          DrvUtil: {PCI\VEN_8086&DEV_3CB3}
    2016/03/01 19:17:07.9861977 528   7020  Driver          Matched driver to device PCI\VEN_8086&DEV_3CAE&SUBSYS_84EF1043&REV_07
    2016/03/01 19:17:07.9861977 528   7020  Driver          Status: 0x1802000, ProblemNumber: 00000000
    2016/03/01 19:17:07.9862233 528   7020  Driver          DrvUtil: {PCI\VEN_8086&DEV_3CAE}
    2016/03/01 19:17:07.9863107 528   7020  Driver          DrvUtil: {USBPRINT\HPENVY_7640_seriesDEC3}
    2016/03/01 19:17:07.9863939 528   7020  Driver          Matched driver to device USB\VID_04E8&PID_6860&REV_0400
    2016/03/01 19:17:07.9863942 528   7020  Driver          Status: 00000000, ProblemNumber: 00000000
    2016/03/01 19:17:07.9864009 528   7020  Driver          DrvUtil: {USB\VID_04E8&PID_6860}
    2016/03/01 19:17:07.9864227 528   7020  Driver          Matched driver to device PCI\VEN_8086&DEV_3CB6&SUBSYS_84EF1043&REV_07
    2016/03/01 19:17:07.9864227 528   7020  Driver          Status: 0x1802000, ProblemNumber: 00000000
    2016/03/01 19:17:07.9864960 528   7020  Driver          DrvUtil: {PCI\VEN_8086&DEV_3CB6}
    2016/03/01 19:17:07.9865718 528   7020  Driver          Matched driver to device PCI\VEN_8086&DEV_3C02&SUBSYS_84EF1043&REV_07
    2016/03/01 19:17:07.9865718 528   7020  Driver          Status: 0x180200a, ProblemNumber: 00000000
    2016/03/01 19:17:07.9865910 528   7020  Driver          DrvUtil: {PCI\VEN_8086&DEV_3C02}
    2016/03/01 19:17:07.9866771 528   7020  Driver          Matched driver to device PCI\VEN_8086&DEV_3CAB&SUBSYS_84EF1043&REV_07
    2016/03/01 19:17:07.9866774 528   7020  Driver          Status: 0x1802000, ProblemNumber: 00000000
    2016/03/01 19:17:07.9866857 528   7020  Driver          DrvUtil: {PCI\VEN_8086&DEV_3CAB}
    2016/03/01 19:17:07.9867427 528   7020  Driver          Matched driver to device PCI\VEN_8086&DEV_1D10&SUBSYS_84EF1043&REV_B6
    2016/03/01 19:17:07.9867427 528   7020  Driver          Status: 0x180200a, ProblemNumber: 00000000
    2016/03/01 19:17:07.9867804 528   7020  Driver          DrvUtil: {PCI\VEN_8086&DEV_1D10}
    2016/03/01 19:17:07.9868544 528   7020  Driver          Matched driver to device PCI\VEN_8086&DEV_1D1E&SUBSYS_84EF1043&REV_B6
    2016/03/01 19:17:07.9868544 528   7020  Driver          Status: 0x180200a, ProblemNumber: 00000000
    2016/03/01 19:17:07.9868739 528   7020  Driver          DrvUtil: {PCI\VEN_8086&DEV_1D1E}
    2016/03/01 19:17:07.9868908 528   7020  Driver          Matched driver to device ACPI\VEN_INT&DEV_3F0D
    2016/03/01 19:17:07.9868912 528   7020  Driver          Status: 0x41802000, ProblemNumber: 00000000
    2016/03/01 19:17:07.9869596 528   7020  Driver          DrvUtil: {ACPI\INT3F0D}
    2016/03/01 19:17:07.9869884 528   7020  Driver          Matched driver to device PCI\VEN_8086&DEV_1D1A&SUBSYS_84EF1043&REV_B6
    2016/03/01 19:17:07.9869888 528   7020  Driver          Status: 0x180200a, ProblemNumber: 00000000
    2016/03/01 19:17:07.9870534 528   7020  Driver          DrvUtil: {PCI\VEN_8086&DEV_1D1A}
    2016/03/01 19:17:07.9871372 528   7020  Driver          Matched driver to device PCI\VEN_8086&DEV_3CAC&SUBSYS_84EF1043&REV_07
    2016/03/01 19:17:07.9871372 528   7020  Driver          Status: 0x1802000, ProblemNumber: 00000000
    2016/03/01 19:17:07.9871488 528   7020  Driver          DrvUtil: {PCI\VEN_8086&DEV_3CAC}
    2016/03/01 19:17:07.9871958 528   7020  Driver          Matched driver to device PCI\VEN_8086&DEV_1D3A&SUBSYS_84EF1043&REV_05
    2016/03/01 19:17:07.9871958 528   7020  Driver          Status: 0x180200a, ProblemNumber: 00000000
    2016/03/01 19:17:07.9873833 528   7020  Driver          DrvUtil: {pci\ven_8086&dev_1d3a}
    2016/03/01 19:17:07.9874467 528   7020  Driver          Matched driver to device PCI\VEN_8086&DEV_3C93&SUBSYS_84EF1043&REV_07
    2016/03/01 19:17:07.9874467 528   7020  Driver          Status: 0x1802000, ProblemNumber: 00000000
    2016/03/01 19:17:07.9874780 528   7020  Driver          DrvUtil: {PCI\VEN_8086&DEV_3C93}
    2016/03/01 19:17:07.9874809 528   7020  Driver          Matched driver to device PCI\VEN_8086&DEV_3CC2&SUBSYS_84EF1043&REV_07
    2016/03/01 19:17:07.9874812 528   7020  Driver          Status: 0x1802000, ProblemNumber: 00000000
    2016/03/01 19:17:07.9875728 528   7020  Driver          DrvUtil: {PCI\VEN_8086&DEV_3CC2}
    2016/03/01 19:17:07.9876175 528   7020  Driver          Matched driver to device PCI\VEN_8086&DEV_3CE0&SUBSYS_84EF1043&REV_07
    2016/03/01 19:17:07.9876179 528   7020  Driver          Status: 0x1802000, ProblemNumber: 00000000
    2016/03/01 19:17:07.9876684 528   7020  Driver          DrvUtil: {PCI\VEN_8086&DEV_3CE0}
    2016/03/01 19:17:07.9877279 528   7020  Driver          Matched driver to device PCI\VEN_8086&DEV_1D18&SUBSYS_84EF1043&REV_B6
    2016/03/01 19:17:07.9877283 528   7020  Driver          Status: 0x180200a, ProblemNumber: 00000000
    2016/03/01 19:17:07.9877628 528   7020  Driver          DrvUtil: {PCI\VEN_8086&DEV_1D18}
    2016/03/01 19:17:07.9877715 528   7020  Driver          Matched driver to device PCI\VEN_8086&DEV_3CE6&SUBSYS_84EF1043&REV_07
    2016/03/01 19:17:07.9877718 528   7020  Driver          Status: 0x1802000, ProblemNumber: 00000000
    2016/03/01 19:17:07.9878572 528   7020  Driver          DrvUtil: {PCI\VEN_8086&DEV_3CE6}
    2016/03/01 19:17:07.9878879 528   7020  Driver          Matched driver to device PCI\VEN_8086&DEV_3CB4&SUBSYS_84EF1043&REV_07
    2016/03/01 19:17:07.9878879 528   7020  Driver          Status: 0x1802000, ProblemNumber: 00000000
    2016/03/01 19:17:07.9879516 528   7020  Driver          DrvUtil: {PCI\VEN_8086&DEV_3CB4}
    2016/03/01 19:17:07.9880012 528   7020  Driver          Matched driver to device PCI\VEN_8086&DEV_3CB1&SUBSYS_84EF1043&REV_07
    2016/03/01 19:17:07.9880012 528   7020  Driver          Status: 0x1802000, ProblemNumber: 00000000
    2016/03/01 19:17:07.9880460 528   7020  Driver          DrvUtil: {PCI\VEN_8086&DEV_3CB1}
    2016/03/01 19:17:07.9881254 528   7020  Driver          Matched driver to device PCI\VEN_8086&DEV_3CAD&SUBSYS_84EF1043&REV_07
    2016/03/01 19:17:07.9881254 528   7020  Driver          Status: 0x1802000, ProblemNumber: 00000000
    2016/03/01 19:17:07.9881414 528   7020  Driver          DrvUtil: {PCI\VEN_8086&DEV_3CAD}
    2016/03/01 19:17:07.9881686 528   7020  Driver          Matched driver to device PCI\VEN_8086&DEV_3C0A&SUBSYS_84EF1043&REV_07
    2016/03/01 19:17:07.9881686 528   7020  Driver          Status: 0x180200a, ProblemNumber: 00000000
    2016/03/01 19:17:07.9882358 528   7020  Driver          DrvUtil: {PCI\VEN_8086&DEV_3C0A}
    2016/03/01 19:17:07.9882582 528   7020  Driver          Matched driver to device PCI\VEN_8086&DEV_3C80&SUBSYS_84EF1043&REV_07
    2016/03/01 19:17:07.9882585 528   7020  Driver          Status: 0x1802000, ProblemNumber: 00000000
    2016/03/01 19:17:07.9883305 528   7020  Driver          DrvUtil: {PCI\VEN_8086&DEV_3C80}
    2016/03/01 19:17:07.9883833 528   7020  Driver          Matched driver to device PCI\VEN_8086&DEV_3CB0&SUBSYS_84EF1043&REV_07
    2016/03/01 19:17:07.9883833 528   7020  Driver          Status: 0x1802000, ProblemNumber: 00000000
    2016/03/01 19:17:07.9884252 528   7020  Driver          DrvUtil: {PCI\VEN_8086&DEV_3CB0}
    2016/03/01 19:17:07.9884409 528   7020  Driver          Matched driver to device PCI\VEN_8086&DEV_1D26&SUBSYS_84EF1043&REV_06
    2016/03/01 19:17:07.9884412 528   7020  Driver          Status: 0x180000a, ProblemNumber: 00000000
    2016/03/01 19:17:07.9885187 528   7020  Driver          DrvUtil: {PCI\VEN_8086&DEV_1D26}
    2016/03/01 19:17:07.9885641 528   7020  Driver          Matched driver to device PCI\VEN_8086&DEV_3CB2&SUBSYS_84EF1043&REV_07
    2016/03/01 19:17:07.9885641 528   7020  Driver          Status: 0x1802000, ProblemNumber: 00000000
    2016/03/01 19:17:07.9886137 528   7020  Driver          DrvUtil: {PCI\VEN_8086&DEV_3CB2}
    2016/03/01 19:17:07.9886639 528   7020  Driver          Matched driver to device PCI\VEN_8086&DEV_3CA8&SUBSYS_84EF1043&REV_07
    2016/03/01 19:17:07.9886639 528   7020  Driver          Status: 0x1802000, ProblemNumber: 00000000
    2016/03/01 19:17:07.9887084 528   7020  Driver          DrvUtil: {PCI\VEN_8086&DEV_3CA8}
    2016/03/01 19:17:07.9887199 528   7020  Driver          Matched driver to device PCI\VEN_8086&DEV_1D14&SUBSYS_84EF1043&REV_B6
    2016/03/01 19:17:07.9887199 528   7020  Driver          Status: 0x180200a, ProblemNumber: 00000000
    2016/03/01 19:17:07.9888019 528   7020  Driver          DrvUtil: {PCI\VEN_8086&DEV_1D14}
    2016/03/01 19:17:07.9888950 528   7020  Driver          Matched driver to device PCI\VEN_8086&DEV_3C84&SUBSYS_84EF1043&REV_07
    2016/03/01 19:17:07.9888950 528   7020  Driver          Status: 0x1802000, ProblemNumber: 00000000
    2016/03/01 19:17:07.9888963 528   7020  Driver          DrvUtil: {PCI\VEN_8086&DEV_3C84}
    2016/03/01 19:17:07.9889043 528   7020  Driver          Matched driver to device PCI\VEN_8086&DEV_3CC1&SUBSYS_84EF1043&REV_07
    2016/03/01 19:17:07.9889043 528   7020  Driver          Status: 0x1802000, ProblemNumber: 00000000
    2016/03/01 19:17:07.9889900 528   7020  Driver          DrvUtil: {PCI\VEN_8086&DEV_3CC1}
    2016/03/01 19:17:07.9890457 528   7020  Driver          Matched driver to device PCI\VEN_8086&DEV_3C00&SUBSYS_84EF1043&REV_07
    2016/03/01 19:17:07.9890460 528   7020  Driver          Status: 0x180000a, ProblemNumber: 00000000
    2016/03/01 19:17:07.9890854 528   7020  Driver          DrvUtil: {PCI\VEN_8086&DEV_3C00}
    2016/03/01 19:17:07.9891459 528   7020  Driver          Matched driver to device PCI\VEN_8086&DEV_3C43&SUBSYS_84EF1043&REV_07
    2016/03/01 19:17:07.9891459 528   7020  Driver          Status: 0x1802000, ProblemNumber: 00000000
    2016/03/01 19:17:07.9891868 528   7020  Driver          DrvUtil: {PCI\VEN_8086&DEV_3C43}
    2016/03/01 19:17:07.9892735 528   7020  Driver          Matched driver to device PCI\VEN_8086&DEV_1D2D&SUBSYS_84EF1043&REV_06
    2016/03/01 19:17:07.9892735 528   7020  Driver          Status: 0x180200a, ProblemNumber: 00000000
    2016/03/01 19:17:07.9892806 528   7020  Driver          DrvUtil: {PCI\VEN_8086&DEV_1D2D}
    2016/03/01 19:17:07.9892863 528   7020  Driver          Matched driver to device PCI\VEN_8086&DEV_3C83&SUBSYS_84EF1043&REV_07
    2016/03/01 19:17:07.9892863 528   7020  Driver          Status: 0x1802000, ProblemNumber: 00000000
    2016/03/01 19:17:07.9893747 528   7020  Driver          DrvUtil: {PCI\VEN_8086&DEV_3C83}
    2016/03/01 19:17:07.9894399 528   7020  Driver          Matched driver to device PCI\VEN_8086&DEV_3CF6&SUBSYS_84EF1043&REV_07
    2016/03/01 19:17:07.9894403 528   7020  Driver          Status: 0x1802000, ProblemNumber: 00000000
    2016/03/01 19:17:07.9894691 528   7020  Driver          DrvUtil: {PCI\VEN_8086&DEV_3CF6}
    2016/03/01 19:17:07.9895225 528   7020  Driver          Matched driver to device PCI\VEN_8086&DEV_3C71&SUBSYS_84EF1043&REV_07
    2016/03/01 19:17:07.9895225 528   7020  Driver          Status: 0x1802000, ProblemNumber: 00000000
    2016/03/01 19:17:07.9895631 528   7020  Driver          DrvUtil: {PCI\VEN_8086&DEV_3C71}
    2016/03/01 19:17:07.9895647 528   7020  Driver          Matched driver to device PCI\VEN_8086&DEV_1D3E&SUBSYS_84EF1043&REV_06
    2016/03/01 19:17:07.9895647 528   7020  Driver          Status: 0x180200a, ProblemNumber: 00000000
    2016/03/01 19:17:07.9896575 528   7020  Driver          DrvUtil: {PCI\VEN_8086&DEV_1D3E}
    2016/03/01 19:17:07.9897356 528   7020  Driver          Matched driver to device PCI\VEN_8086&DEV_1D12&SUBSYS_84EF1043&REV_B6
    2016/03/01 19:17:07.9897359 528   7020  Driver          Status: 0x180200a, ProblemNumber: 00000000
    2016/03/01 19:17:07.9897507 528   7020  Driver          DrvUtil: {PCI\VEN_8086&DEV_1D12}
    2016/03/01 19:17:07.9897875 528   7020  Driver          Matched driver to device PCI\VEN_8086&DEV_1D16&SUBSYS_84EF1043&REV_B6
    2016/03/01 19:17:07.9897875 528   7020  Driver          Status: 0x180200a, ProblemNumber: 00000000
    2016/03/01 19:17:07.9898444 528   7020  Driver          DrvUtil: {PCI\VEN_8086&DEV_1D16}
    2016/03/01 19:17:07.9899203 528   7020  Driver          Matched driver to device PCI\VEN_8086&DEV_1D41&SUBSYS_84EF1043&REV_06
    2016/03/01 19:17:07.9899203 528   7020  Driver          Status: 0x180000a, ProblemNumber: 00000000
    2016/03/01 19:17:07.9899375 528   7020  Driver          DrvUtil: {PCI\VEN_8086&DEV_1D41}
    2016/03/01 19:17:07.9899619 528   7020  Driver          DrvUtil: {hpphotosmart_8200_seeefc}
    2016/03/01 19:17:07.9900223 528   7020  Driver          Matched driver to device PCI\VEN_8086&DEV_1D22&SUBSYS_84EF1043&REV_06
    2016/03/01 19:17:07.9900223 528   7020  Driver          Status: 0x1802000, ProblemNumber: 00000000
    2016/03/01 19:17:07.9900556 528   7020  Driver          DrvUtil: {PCI\VEN_8086&DEV_1D22}
    2016/03/01 19:17:07.9913487 528   7020  Driver          Matched driver to device PCI\VEN_8086&DEV_3CE4&SUBSYS_84EF1043&REV_07
    2016/03/01 19:17:07.9913491 528   7020  Driver          Status: 0x1802000, ProblemNumber: 00000000
    2016/03/01 19:17:07.9914255 528   7020  Driver          DrvUtil: {PCI\VEN_8086&DEV_3CE4}
    2016/03/01 19:17:07.9914735 528   7020  Driver          Matched driver to device PCI\VEN_8086&DEV_3C28&SUBSYS_84EF1043&REV_07
    2016/03/01 19:17:07.9914735 528   7020  Driver          Status: 0x1802000, ProblemNumber: 00000000
    2016/03/01 19:17:07.9915231 528   7020  Driver          DrvUtil: {PCI\VEN_8086&DEV_3C28}
    2016/03/01 19:17:07.9915939 528   7020  Driver          Matched driver to device PCI\VEN_8086&DEV_3CD0&SUBSYS_84EF1043&REV_07
    2016/03/01 19:17:07.9915939 528   7020  Driver          Status: 0x1802000, ProblemNumber: 00000000
    2016/03/01 19:17:07.9916195 528   7020  Driver          DrvUtil: {PCI\VEN_8086&DEV_3CD0}
    2016/03/01 19:17:07.9916582 528   7020  Driver          Matched driver to device PCI\VEN_8086&DEV_3C46&SUBSYS_84EF1043&REV_07
    2016/03/01 19:17:07.9916585 528   7020  Driver          Status: 0x1802000, ProblemNumber: 00000000
    2016/03/01 19:17:07.9917155 528   7020  Driver          DrvUtil: {PCI\VEN_8086&DEV_3C46}
    2016/03/01 19:17:07.9917404 528   7020  Driver          Matched driver to device PCI\VEN_8086&DEV_3CE3&SUBSYS_84EF1043&REV_07
    2016/03/01 19:17:07.9917404 528   7020  Driver          Status: 0x1802000, ProblemNumber: 00000000
    2016/03/01 19:17:07.9918102 528   7020  Driver          DrvUtil: {PCI\VEN_8086&DEV_3CE3}
    2016/03/01 19:17:07.9918198 528   7020  Driver          Matched driver to device PCI\VEN_8086&DEV_3CB8&SUBSYS_84EF1043&REV_07
    2016/03/01 19:17:07.9918201 528   7020  Driver          Status: 0x1802000, ProblemNumber: 00000000
    2016/03/01 19:17:07.9919049 528   7020  Driver          DrvUtil: {PCI\VEN_8086&DEV_3CB8}
    2016/03/01 19:17:07.9919199 528   7020  Driver          Matched driver to device PCI\VEN_8086&DEV_3CB7&SUBSYS_84EF1043&REV_07
    2016/03/01 19:17:07.9919203 528   7020  Driver          Status: 0x1802000, ProblemNumber: 00000000
    2016/03/01 19:17:07.9919996 528   7020  Driver          DrvUtil: {PCI\VEN_8086&DEV_3CB7}
    2016/03/01 19:17:07.9920137 528   7020  Driver          Matched driver to device PCI\VEN_8086&DEV_3CC0&SUBSYS_84EF1043&REV_07
    2016/03/01 19:17:07.9920140 528   7020  Driver          Status: 0x1802000, ProblemNumber: 00000000
    2016/03/01 19:17:07.9920947 528   7020  Driver          DrvUtil: {PCI\VEN_8086&DEV_3CC0}
    2016/03/01 19:17:07.9921868 528   7020  Driver          Matched driver to device PCI\VEN_8086&DEV_3CAA&SUBSYS_84EF1043&REV_07
    2016/03/01 19:17:07.9921871 528   7020  Driver          Status: 0x1802000, ProblemNumber: 00000000
    2016/03/01 19:17:07.9921891 528   7020  Driver          DrvUtil: {PCI\VEN_8086&DEV_3CAA}
    2016/03/01 19:17:07.9922236 528   7020  Driver          Matched driver to device PCI\VEN_8086&DEV_3C2C&SUBSYS_84EF1043&REV_07
    2016/03/01 19:17:07.9922236 528   7020  Driver          Status: 0x1802000, ProblemNumber: 00000000
    2016/03/01 19:17:07.9922831 528   7020  Driver          DrvUtil: {PCI\VEN_8086&DEV_3C2C}
    2016/03/01 19:17:07.9923087 528   7020  Driver          Matched driver to device PCI\VEN_8086&DEV_3CB5&SUBSYS_84EF1043&REV_07
    2016/03/01 19:17:07.9923087 528   7020  Driver          Status: 0x1802000, ProblemNumber: 00000000
    2016/03/01 19:17:07.9923779 528   7020  Driver          DrvUtil: {PCI\VEN_8086&DEV_3CB5}
    2016/03/01 19:17:07.9924255 528   7020  Driver          Matched driver to device PCI\VEN_8086&DEV_3C45&SUBSYS_84EF1043&REV_07
    2016/03/01 19:17:07.9924259 528   7020  Driver          Status: 0x1802000, ProblemNumber: 00000000
    2016/03/01 19:17:07.9924719 528   7020  Driver          DrvUtil: {PCI\VEN_8086&DEV_3C45}
    2016/03/01 19:17:07.9925417 528   7020  Driver          Matched driver to device PCI\VEN_8086&DEV_3CF5&SUBSYS_84EF1043&REV_07
    2016/03/01 19:17:07.9925420 528   7020  Driver          Status: 0x1802000, ProblemNumber: 00000000
    2016/03/01 19:17:07.9925663 528   7020  Driver          DrvUtil: {PCI\VEN_8086&DEV_3CF5}
    2016/03/01 19:17:07.9926547 528   7020  Driver          Matched driver to device PCI\VEN_8086&DEV_3CE8&SUBSYS_84EF1043&REV_07
    2016/03/01 19:17:07.9926550 528   7020  Driver          Status: 0x1802000, ProblemNumber: 00000000
    2016/03/01 19:17:07.9926556 528   7020  Driver          Matched driver to device PCI\VEN_8086&DEV_3CE8&SUBSYS_84EF1043&REV_07
    2016/03/01 19:17:07.9926556 528   7020  Driver          Status: 0x1802000, ProblemNumber: 00000000
    2016/03/01 19:17:07.9926563 528   7020  Driver          Matched driver to device PCI\VEN_8086&DEV_3CE8&SUBSYS_84EF1043&REV_07
    2016/03/01 19:17:07.9926563 528   7020  Driver          Status: 0x1802000, ProblemNumber: 00000000
    2016/03/01 19:17:07.9926569 528   7020  Driver          Matched driver to device PCI\VEN_8086&DEV_3CE8&SUBSYS_84EF1043&REV_07
    2016/03/01 19:17:07.9926569 528   7020  Driver          Status: 0x1802000, ProblemNumber: 00000000
    2016/03/01 19:17:07.9926575 528   7020  Driver          Matched driver to device PCI\VEN_8086&DEV_3CE8&SUBSYS_84EF1043&REV_07
    2016/03/01 19:17:07.9926575 528   7020  Driver          Status: 0x1802000, ProblemNumber: 00000000
    2016/03/01 19:17:07.9926582 528   7020  Driver          Matched driver to device PCI\VEN_8086&DEV_3CE8&SUBSYS_84EF1043&REV_07
    2016/03/01 19:17:07.9926585 528   7020  Driver          Status: 0x1802000, ProblemNumber: 00000000
    2016/03/01 19:17:07.9926614 528   7020  Driver          DrvUtil: {PCI\VEN_8086&DEV_3CE8}
    2016/03/01 19:17:07.9926694 528   7020  Driver          Matched driver to device PCI\VEN_8086&DEV_3C04&SUBSYS_84EF1043&REV_07
    2016/03/01 19:17:07.9926697 528   7020  Driver          Status: 0x180200a, ProblemNumber: 00000000
    2016/03/01 19:17:07.9927567 528   7020  Driver          DrvUtil: {PCI\VEN_8086&DEV_3C04}
    2016/03/01 19:17:07.9928076 528   7020  Driver          Matched driver to device PCI\VEN_8086&DEV_3C44&SUBSYS_84EF1043&REV_07
    2016/03/01 19:17:07.9928079 528   7020  Driver          Status: 0x1802000, ProblemNumber: 00000000
    2016/03/01 19:17:07.9928515 528   7020  Driver          DrvUtil: {PCI\VEN_8086&DEV_3C44}
    2016/03/01 19:17:07.9929276 528   7020  Driver          Matched driver to device PCI\VEN_8086&DEV_3CF4&SUBSYS_84EF1043&REV_07
    2016/03/01 19:17:07.9929276 528   7020  Driver          Status: 0x1802000, ProblemNumber: 00000000
    2016/03/01 19:17:07.9929459 528   7020  Driver          DrvUtil: {PCI\VEN_8086&DEV_3CF4}
    2016/03/01 19:17:07.9930038 528   7020  Driver          Matched driver to device PCI\VEN_8086&DEV_3C08&SUBSYS_84EF1043&REV_07
    2016/03/01 19:17:07.9930041 528   7020  Driver          Status: 0x180200a, ProblemNumber: 00000000
    2016/03/01 19:17:07.9930399 528   7020  Driver          DrvUtil: {PCI\VEN_8086&DEV_3C08}
    2016/03/01 19:17:07.9931011 528   7020  Driver          Matched driver to device PCI\VEN_8086&DEV_3C94&SUBSYS_84EF1043&REV_07
    2016/03/01 19:17:07.9931011 528   7020  Driver          Status: 0x1802000, ProblemNumber: 00000000
    2016/03/01 19:17:07.9931353 528   7020  Driver          DrvUtil: {PCI\VEN_8086&DEV_3C94}
    2016/03/01 19:17:07.9931455 528   7020  Driver          Matched driver to device PCI\VEN_8086&DEV_3C2A&SUBSYS_84EF1043&REV_07
    2016/03/01 19:17:07.9931459 528   7020  Driver          Status: 0x1802000, ProblemNumber: 00000000
    2016/03/01 19:17:07.9932294 528   7020  Driver          DrvUtil: {PCI\VEN_8086&DEV_3C2A}
    2016/03/01 19:17:07.9933110 528   7020  Driver          Matched driver to device PCI\VEN_8086&DEV_3CA0&SUBSYS_84EF1043&REV_07
    2016/03/01 19:17:07.9933113 528   7020  Driver          Status: 0x1802000, ProblemNumber: 00000000
    2016/03/01 19:17:07.9933241 528   7020  Driver          DrvUtil: {PCI\VEN_8086&DEV_3CA0}
    2016/03/01 19:17:07.9934015 528   7020  Driver          Matched driver to device PCI\VEN_8086&DEV_3C90&SUBSYS_84EF1043&REV_07
    2016/03/01 19:17:07.9934015 528   7020  Driver          Status: 0x1802000, ProblemNumber: 00000000
    2016/03/01 19:17:07.9934182 528   7020  Driver          DrvUtil: {PCI\VEN_8086&DEV_3C90}
    2016/03/01 19:17:07.9934521 528   7020  Driver          Matched driver to device PCI\VEN_8086&DEV_3CB3&SUBSYS_84EF1043&REV_07
    2016/03/01 19:17:07.9934524 528   7020  Driver          Status: 0x1802000, ProblemNumber: 00000000
    2016/03/01 19:17:07.9935126 528   7020  Driver          DrvUtil: {PCI\VEN_8086&DEV_3CB3}
    2016/03/01 19:17:07.9935836 528   7020  Driver          Matched driver to device PCI\VEN_8086&DEV_3CAE&SUBSYS_84EF1043&REV_07
    2016/03/01 19:17:07.9935836 528   7020  Driver          Status: 0x1802000, ProblemNumber: 00000000
    2016/03/01 19:17:07.9936076 528   7020  Driver          DrvUtil: {PCI\VEN_8086&DEV_3CAE}
    2016/03/01 19:17:07.9936950 528   7020  Driver          DrvUtil: {USBPRINT\HPENVY_7640_seriesDEC3}
    2016/03/01 19:17:07.9937779 528   7020  Driver          Matched driver to device USB\VID_04E8&PID_6860&REV_0400
    2016/03/01 19:17:07.9937782 528   7020  Driver          Status: 00000000, ProblemNumber: 00000000
    2016/03/01 19:17:07.9937849 528   7020  Driver          DrvUtil: {USB\VID_04E8&PID_6860}
    2016/03/01 19:17:07.9938063 528   7020  Driver          Matched driver to device PCI\VEN_8086&DEV_3CB6&SUBSYS_84EF1043&REV_07
    2016/03/01 19:17:07.9938067 528   7020  Driver          Status: 0x1802000, ProblemNumber: 00000000
    2016/03/01 19:17:07.9938793 528   7020  Driver          DrvUtil: {PCI\VEN_8086&DEV_3CB6}
    2016/03/01 19:17:07.9939548 528   7020  Driver          Matched driver to device PCI\VEN_8086&DEV_3C02&SUBSYS_84EF1043&REV_07
    2016/03/01 19:17:07.9939548 528   7020  Driver          Status: 0x180200a, ProblemNumber: 00000000
    2016/03/01 19:17:07.9939734 528   7020  Driver          DrvUtil: {PCI\VEN_8086&DEV_3C02}
    2016/03/01 19:17:07.9940591 528   7020  Driver          Matched driver to device PCI\VEN_8086&DEV_3CAB&SUBSYS_84EF1043&REV_07
    2016/03/01 19:17:07.9940594 528   7020  Driver          Status: 0x1802000, ProblemNumber: 00000000
    2016/03/01 19:17:07.9940678 528   7020  Driver          DrvUtil: {PCI\VEN_8086&DEV_3CAB}
    2016/03/01 19:17:07.9941250 528   7020  Driver          Matched driver to device PCI\VEN_8086&DEV_1D10&SUBSYS_84EF1043&REV_B6
    2016/03/01 19:17:07.9941254 528   7020  Driver          Status: 0x180200a, ProblemNumber: 00000000
    2016/03/01 19:17:07.9941644 528   7020  Driver          DrvUtil: {PCI\VEN_8086&DEV_1D10}
    2016/03/01 19:17:07.9942399 528   7020  Driver          Matched driver to device PCI\VEN_8086&DEV_1D1E&SUBSYS_84EF1043&REV_B6
    2016/03/01 19:17:07.9942399 528   7020  Driver          Status: 0x180200a, ProblemNumber: 00000000
    2016/03/01 19:17:07.9942601 528   7020  Driver          DrvUtil: {PCI\VEN_8086&DEV_1D1E}
    2016/03/01 19:17:07.9942774 528   7020  Driver          Matched driver to device ACPI\VEN_INT&DEV_3F0D
    2016/03/01 19:17:07.9942774 528   7020  Driver          Status: 0x41802000, ProblemNumber: 00000000
    2016/03/01 19:17:07.9943462 528   7020  Driver          DrvUtil: {ACPI\INT3F0D}
    2016/03/01 19:17:07.9943750 528   7020  Driver          Matched driver to device PCI\VEN_8086&DEV_1D1A&SUBSYS_84EF1043&REV_B6
    2016/03/01 19:17:07.9943753 528   7020  Driver          Status: 0x180200a, ProblemNumber: 00000000
    2016/03/01 19:17:07.9944402 528   7020  Driver          DrvUtil: {PCI\VEN_8086&DEV_1D1A}
    2016/03/01 19:17:07.9945238 528   7020  Driver          Matched driver to device PCI\VEN_8086&DEV_3CAC&SUBSYS_84EF1043&REV_07
    2016/03/01 19:17:07.9945241 528   7020  Driver          Status: 0x1802000, ProblemNumber: 00000000
    2016/03/01 19:17:07.9945353 528   7020  Driver          DrvUtil: {PCI\VEN_8086&DEV_3CAC}
    2016/03/01 19:17:07.9945826 528   7020  Driver          Matched driver to device PCI\VEN_8086&DEV_1D3A&SUBSYS_84EF1043&REV_05
    2016/03/01 19:17:07.9945830 528   7020  Driver          Status: 0x180200a, ProblemNumber: 00000000
    2016/03/01 19:17:07.9947711 528   7020  Driver          DrvUtil: {pci\ven_8086&dev_1d3a}
    2016/03/01 19:17:07.9948342 528   7020  Driver          Matched driver to device PCI\VEN_8086&DEV_3C93&SUBSYS_84EF1043&REV_07
    2016/03/01 19:17:07.9948342 528   7020  Driver          Status: 0x1802000, ProblemNumber: 00000000
    2016/03/01 19:17:07.9948655 528   7020  Driver          DrvUtil: {PCI\VEN_8086&DEV_3C93}
    2016/03/01 19:17:07.9948684 528   7020  Driver          Matched driver to device PCI\VEN_8086&DEV_3CC2&SUBSYS_84EF1043&REV_07
    2016/03/01 19:17:07.9948684 528   7020  Driver          Status: 0x1802000, ProblemNumber: 00000000
    2016/03/01 19:17:07.9949596 528   7020  Driver          DrvUtil: {PCI\VEN_8086&DEV_3CC2}
    2016/03/01 19:17:07.9950044 528   7020  Driver          Matched driver to device PCI\VEN_8086&DEV_3CE0&SUBSYS_84EF1043&REV_07
    2016/03/01 19:17:07.9950044 528   7020  Driver          Status: 0x1802000, ProblemNumber: 00000000
    2016/03/01 19:17:07.9950578 528   7020  Driver          DrvUtil: {PCI\VEN_8086&DEV_3CE0}
    2016/03/01 19:17:07.9951183 528   7020  Driver          Matched driver to device PCI\VEN_8086&DEV_1D18&SUBSYS_84EF1043&REV_B6
    2016/03/01 19:17:07.9951183 528   7020  Driver          Status: 0x180200a, ProblemNumber: 00000000
    2016/03/01 19:17:07.9951532 528   7020  Driver          DrvUtil: {PCI\VEN_8086&DEV_1D18}
    2016/03/01 19:17:07.9951622 528   7020  Driver          Matched driver to device PCI\VEN_8086&DEV_3CE6&SUBSYS_84EF1043&REV_07
    2016/03/01 19:17:07.9951622 528   7020  Driver          Status: 0x1802000, ProblemNumber: 00000000
    2016/03/01 19:17:07.9952479 528   7020  Driver          DrvUtil: {PCI\VEN_8086&DEV_3CE6}
    2016/03/01 19:17:07.9952786 528   7020  Driver          Matched driver to device PCI\VEN_8086&DEV_3CB4&SUBSYS_84EF1043&REV_07
    2016/03/01 19:17:07.9952790 528   7020  Driver          Status: 0x1802000, ProblemNumber: 00000000
    2016/03/01 19:17:07.9953430 528   7020  Driver          DrvUtil: {PCI\VEN_8086&DEV_3CB4}
    2016/03/01 19:17:07.9953926 528   7020  Driver          Matched driver to device PCI\VEN_8086&DEV_3CB1&SUBSYS_84EF1043&REV_07
    2016/03/01 19:17:07.9953926 528   7020  Driver          Status: 0x1802000, ProblemNumber: 00000000
    2016/03/01 19:17:07.9954374 528   7020  Driver          DrvUtil: {PCI\VEN_8086&DEV_3CB1}
    2016/03/01 19:17:07.9955158 528   7020  Driver          Matched driver to device PCI\VEN_8086&DEV_3CAD&SUBSYS_84EF1043&REV_07
    2016/03/01 19:17:07.9955158 528   7020  Driver          Status: 0x1802000, ProblemNumber: 00000000
    2016/03/01 19:17:07.9955318 528   7020  Driver          DrvUtil: {PCI\VEN_8086&DEV_3CAD}
    2016/03/01 19:17:07.9955590 528   7020  Driver          Matched driver to device PCI\VEN_8086&DEV_3C0A&SUBSYS_84EF1043&REV_07
    2016/03/01 19:17:07.9955593 528   7020  Driver          Status: 0x180200a, ProblemNumber: 00000000
    2016/03/01 19:17:07.9956268 528   7020  Driver          DrvUtil: {PCI\VEN_8086&DEV_3C0A}
    2016/03/01 19:17:07.9956492 528   7020  Driver          Matched driver to device PCI\VEN_8086&DEV_3C80&SUBSYS_84EF1043&REV_07
    2016/03/01 19:17:07.9956495 528   7020  Driver          Status: 0x1802000, ProblemNumber: 00000000
    2016/03/01 19:17:07.9957212 528   7020  Driver          DrvUtil: {PCI\VEN_8086&DEV_3C80}
    2016/03/01 19:17:07.9957746 528   7020  Driver          Matched driver to device PCI\VEN_8086&DEV_3CB0&SUBSYS_84EF1043&REV_07
    2016/03/01 19:17:07.9957750 528   7020  Driver          Status: 0x1802000, ProblemNumber: 00000000
    2016/03/01 19:17:07.9958169 528   7020  Driver          DrvUtil: {PCI\VEN_8086&DEV_3CB0}
    2016/03/01 19:17:07.9958329 528   7020  Driver          Matched driver to device PCI\VEN_8086&DEV_1D26&SUBSYS_84EF1043&REV_06
    2016/03/01 19:17:07.9958329 528   7020  Driver          Status: 0x180000a, ProblemNumber: 00000000
    2016/03/01 19:17:07.9959110 528   7020  Driver          DrvUtil: {PCI\VEN_8086&DEV_1D26}
    2016/03/01 19:17:07.9959564 528   7020  Driver          Matched driver to device PCI\VEN_8086&DEV_3CB2&SUBSYS_84EF1043&REV_07
    2016/03/01 19:17:07.9959567 528   7020  Driver          Status: 0x1802000, ProblemNumber: 00000000
    2016/03/01 19:17:07.9960057 528   7020  Driver          DrvUtil: {PCI\VEN_8086&DEV_3CB2}
    2016/03/01 19:17:07.9960559 528   7020  Driver          Matched driver to device PCI\VEN_8086&DEV_3CA8&SUBSYS_84EF1043&REV_07
    2016/03/01 19:17:07.9960559 528   7020  Driver          Status: 0x1802000, ProblemNumber: 00000000
    2016/03/01 19:17:07.9961007 528   7020  Driver          DrvUtil: {PCI\VEN_8086&DEV_3CA8}
    2016/03/01 19:17:07.9961119 528   7020  Driver          Matched driver to device PCI\VEN_8086&DEV_1D14&SUBSYS_84EF1043&REV_B6
    2016/03/01 19:17:07.9961122 528   7020  Driver          Status: 0x180200a, ProblemNumber: 00000000
    2016/03/01 19:17:07.9961945 528   7020  Driver          DrvUtil: {PCI\VEN_8086&DEV_1D14}
    2016/03/01 19:17:07.9962876 528   7020  Driver          Matched driver to device PCI\VEN_8086&DEV_3C84&SUBSYS_84EF1043&REV_07
    2016/03/01 19:17:07.9962879 528   7020  Driver          Status: 0x1802000, ProblemNumber: 00000000
    2016/03/01 19:17:07.9962889 528   7020  Driver          DrvUtil: {PCI\VEN_8086&DEV_3C84}
    2016/03/01 19:17:07.9962972 528   7020  Driver          Matched driver to device PCI\VEN_8086&DEV_3CC1&SUBSYS_84EF1043&REV_07
    2016/03/01 19:17:07.9962972 528   7020  Driver          Status: 0x1802000, ProblemNumber: 00000000
    2016/03/01 19:17:07.9963830 528   7020  Driver          DrvUtil: {PCI\VEN_8086&DEV_3CC1}
    2016/03/01 19:17:07.9964383 528   7020  Driver          Matched driver to device PCI\VEN_8086&DEV_3C00&SUBSYS_84EF1043&REV_07
    2016/03/01 19:17:07.9964383 528   7020  Driver          Status: 0x180000a, ProblemNumber: 00000000
    2016/03/01 19:17:07.9964774 528   7020  Driver          DrvUtil: {PCI\VEN_8086&DEV_3C00}
    2016/03/01 19:17:07.9965314 528   7020  Driver          Matched driver to device PCI\VEN_8086&DEV_3C43&SUBSYS_84EF1043&REV_07
    2016/03/01 19:17:07.9965314 528   7020  Driver          Status: 0x1802000, ProblemNumber: 00000000
    2016/03/01 19:17:07.9965718 528   7020  Driver          DrvUtil: {PCI\VEN_8086&DEV_3C43}
    2016/03/01 19:17:07.9966588 528   7020  Driver          Matched driver to device PCI\VEN_8086&DEV_1D2D&SUBSYS_84EF1043&REV_06
    2016/03/01 19:17:07.9966588 528   7020  Driver          Status: 0x180200a, ProblemNumber: 00000000
    2016/03/01 19:17:07.9966658 528   7020  Driver          DrvUtil: {PCI\VEN_8086&DEV_1D2D}
    2016/03/01 19:17:07.9966716 528   7020  Driver          Matched driver to device PCI\VEN_8086&DEV_3C83&SUBSYS_84EF1043&REV_07
    2016/03/01 19:17:07.9966716 528   7020  Driver          Status: 0x1802000, ProblemNumber: 00000000
    2016/03/01 19:17:07.9967599 528   7020  Driver          DrvUtil: {PCI\VEN_8086&DEV_3C83}
    2016/03/01 19:17:07.9968252 528   7020  Driver          Matched driver to device PCI\VEN_8086&DEV_3CF6&SUBSYS_84EF1043&REV_07
    2016/03/01 19:17:07.9968255 528   7020  Driver          Status: 0x1802000, ProblemNumber: 00000000
    2016/03/01 19:17:07.9968540 528   7020  Driver          DrvUtil: {PCI\VEN_8086&DEV_3CF6}
    2016/03/01 19:17:07.9969074 528   7020  Driver          Matched driver to device PCI\VEN_8086&DEV_3C71&SUBSYS_84EF1043&REV_07
    2016/03/01 19:17:07.9969078 528   7020  Driver          Status: 0x1802000, ProblemNumber: 00000000
    2016/03/01 19:17:07.9969484 528   7020  Driver          DrvUtil: {PCI\VEN_8086&DEV_3C71}
    2016/03/01 19:17:07.9969497 528   7020  Driver          Matched driver to device PCI\VEN_8086&DEV_1D3E&SUBSYS_84EF1043&REV_06
    2016/03/01 19:17:07.9969500 528   7020  Driver          Status: 0x180200a, ProblemNumber: 00000000
    2016/03/01 19:17:07.9970418 528   7020  Driver          DrvUtil: {PCI\VEN_8086&DEV_1D3E}
    2016/03/01 19:17:07.9971206 528   7020  Driver          Matched driver to device PCI\VEN_8086&DEV_1D12&SUBSYS_84EF1043&REV_B6
    2016/03/01 19:17:07.9971209 528   7020  Driver          Status: 0x180200a, ProblemNumber: 00000000
    2016/03/01 19:17:07.9971366 528   7020  Driver          DrvUtil: {PCI\VEN_8086&DEV_1D12}
    2016/03/01 19:17:07.9971734 528   7020  Driver          Matched driver to device PCI\VEN_8086&DEV_1D16&SUBSYS_84EF1043&REV_B6
    2016/03/01 19:17:07.9971734 528   7020  Driver          Status: 0x180200a, ProblemNumber: 00000000
    2016/03/01 19:17:07.9972303 528   7020  Driver          DrvUtil: {PCI\VEN_8086&DEV_1D16}
    2016/03/01 19:17:07.9973062 528   7020  Driver          Matched driver to device PCI\VEN_8086&DEV_1D41&SUBSYS_84EF1043&REV_06
    2016/03/01 19:17:07.9973065 528   7020  Driver          Status: 0x180000a, ProblemNumber: 00000000
    2016/03/01 19:17:07.9973238 528   7020  Driver          DrvUtil: {PCI\VEN_8086&DEV_1D41}
    2016/03/01 19:17:07.9973462 528   7020  Driver          DrvUtil: {hpphotosmart_8200_seeefc}
    2016/03/01 19:17:07.9974066 528   7020  Driver          Matched driver to device PCI\VEN_8086&DEV_1D22&SUBSYS_84EF1043&REV_06
    2016/03/01 19:17:07.9974070 528   7020  Driver          Status: 0x1802000, ProblemNumber: 00000000
    2016/03/01 19:17:07.9974399 528   7020  Driver          DrvUtil: {PCI\VEN_8086&DEV_1D22}
    2016/03/01 19:17:29.1948498 528   7020  ProtocolTalker  ServiceId = {7971F918-A847-4430-9279-4A52D1EFE18D}, Server URL = https://fe2.update.microsoft.com/v6/...ce/client.asmx
    2016/03/01 19:17:29.1948511 528   7020  ProtocolTalker  OK to reuse existing configuration
    2016/03/01 19:17:29.1948540 528   7020  ProtocolTalker  Existing cookie is valid, just use it
    2016/03/01 19:17:29.4502682 528   7020  Agent           Added update E862A5F8-AF37-4C6A-8B73-21E6F792B22E.102 to search result
    2016/03/01 19:17:29.4502721 528   7020  Agent           Added update F3B7B772-1CA6-4B20-9B1B-FD04BF6D2150.200 to search result
    2016/03/01 19:17:29.4502756 528   7020  Agent           Added update BAFBAC19-340F-451F-9314-04188B07C639.200 to search result
    2016/03/01 19:17:29.4502785 528   7020  Agent           Added update 093E03FA-4EF2-41A0-B350-058E67BA6BE2.200 to search result
    2016/03/01 19:17:29.4502813 528   7020  Agent           Added update A732F590-43FA-4042-A50D-0D394D132EDA.200 to search result
    2016/03/01 19:17:29.4502839 528   7020  Agent           Added update BCD36943-D679-49BF-91FA-0F9AE452A51D.200 to search result
    2016/03/01 19:17:29.4502887 528   7020  Agent           Added update AAFD7C83-C42D-40EB-95EE-125415B9FE34.200 to search result
    2016/03/01 19:17:29.4502919 528   7020  Agent           Added update 06666680-8047-4524-99DF-12862683C075.200 to search result
    2016/03/01 19:17:29.4503021 528   7020  Agent           Added update 28BF9C3F-77ED-4C6E-8C75-12A8BB737014.200 to search result
    2016/03/01 19:17:29.4503053 528   7020  Agent           Added update E3E3C1B2-DC52-4F86-BA13-1DD58D58B6D4.200 to search result
    2016/03/01 19:17:29.4503079 528   7020  Agent           Added update 6AE6FAEA-3D11-4666-8F1F-242EAC3A534C.200 to search result
    2016/03/01 19:17:29.4503105 528   7020  Agent           Added update 8C23EEA3-461E-4742-B2BD-27D6AFCF37E0.200 to search result
    2016/03/01 19:17:29.4503130 528   7020  Agent           Added update 555EBA88-BCB1-442D-9F06-293879008283.200 to search result
    2016/03/01 19:17:29.4503156 528   7020  Agent           Added update 1F0CFA5B-1CDB-4E99-A4FD-2C52C5834C5F.200 to search result
    2016/03/01 19:17:29.4503181 528   7020  Agent           Added update 546A5818-E81E-4731-B9CA-2FB49C8734AC.200 to search result
    2016/03/01 19:17:29.4503210 528   7020  Agent           Added update 4941E8ED-B010-4A7A-BCD7-3431A98A2CF4.200 to search result
    2016/03/01 19:17:29.4503261 528   7020  Agent           Added update DD95EF92-7DCC-454B-994E-39E8A8EAD3AD.200 to search result
    2016/03/01 19:17:29.4503287 528   7020  Agent           Added update 68AEA452-7B1A-41E2-AAFD-3E707C70F875.200 to search result
    2016/03/01 19:17:29.4503313 528   7020  Agent           Added update 8989A59A-4F60-4CC1-8233-3F524B24427F.200 to search result
    2016/03/01 19:17:29.4503335 528   7020  Agent           Added update A877ED5B-196B-4303-B886-4074143F7465.200 to search result
    2016/03/01 19:17:29.4503361 528   7020  Agent           Added update 8F7BBD9D-F25C-4262-A303-43A3E7D7F5F6.200 to search result
    2016/03/01 19:17:29.4503399 528   7020  Agent           Added update 48D39AD6-9BCE-4467-B1D4-44854175A0C6.200 to search result
    2016/03/01 19:17:29.4503425 528   7020  Agent           Added update 790A20F4-B360-4E51-AE35-4C5595426C01.200 to search result
    2016/03/01 19:17:29.4503450 528   7020  Agent           Added update 82C07AD1-D967-479F-BD53-4E930D1BE0D4.200 to search result
    2016/03/01 19:17:29.4503476 528   7020  Agent           Added update A62AF3DF-B632-4F1D-9C58-563554E7B507.200 to search result
    2016/03/01 19:17:29.4503517 528   7020  Agent           Added update 3E812F30-62B9-4619-9629-5B89220A66D8.200 to search result
    2016/03/01 19:17:29.4503546 528   7020  Agent           Added update 7294310E-7FB6-40B6-BBA5-60B9E13E7F4B.200 to search result
    2016/03/01 19:17:29.4503575 528   7020  Agent           Added update 4C99F18F-3362-447C-9320-646A98BA6848.200 to search result
    2016/03/01 19:17:29.4503601 528   7020  Agent           Added update 7B02DD67-6E25-4B3C-9969-69F73365010A.200 to search result
    2016/03/01 19:17:29.4503626 528   7020  Agent           Added update FA4991B7-6676-4917-8441-6D3839D69664.200 to search result
    2016/03/01 19:17:29.4503649 528   7020  Agent           Added update 463EFF9F-CDD5-4C00-9DA3-70C98EE6A9A1.200 to search result
    2016/03/01 19:17:29.4503674 528   7020  Agent           Added update 99D9BC9C-5CCE-4772-AF34-752276691DA8.200 to search result
    2016/03/01 19:17:29.4503777 528   7020  Agent           Added update 712D165A-3660-4A27-89B5-7571C799D3FA.200 to search result
    2016/03/01 19:17:29.4503805 528   7020  Agent           Added update BF59CA5C-10F1-4E1B-BFF4-7C6A49CE00A3.200 to search result
    2016/03/01 19:17:29.4503831 528   7020  Agent           Added update 8A4A9517-7744-4F03-9650-846A08650D89.200 to search result
    2016/03/01 19:17:29.4503860 528   7020  Agent           Added update 56AB14A4-BB5F-4B36-BBDC-887D7FF3365D.200 to search result
    2016/03/01 19:17:29.4503885 528   7020  Agent           Added update 84BF5B0F-24A3-4E58-BA2F-8921B4754C47.200 to search result
    2016/03/01 19:17:29.4503911 528   7020  Agent           Added update 52B2C16B-0D93-43EE-A099-967531F3157C.200 to search result
    2016/03/01 19:17:29.4503937 528   7020  Agent           Added update B496A4AE-120A-4629-8949-97E6B76A8A0E.200 to search result
    2016/03/01 19:17:29.4503962 528   7020  Agent           Added update 209CFFB5-9C0E-4BB3-B369-99DBB8D74A14.200 to search result
    2016/03/01 19:17:29.4503988 528   7020  Agent           Added update F4590065-C5D0-4752-A7A2-9B05162D67C3.200 to search result
    2016/03/01 19:17:29.4504013 528   7020  Agent           Added update E295EA7D-77B4-46F7-814B-A221524E9FA6.200 to search result
    2016/03/01 19:17:29.4504039 528   7020  Agent           Added update 7069347F-7F66-41B1-A119-A407223C8641.200 to search result
    2016/03/01 19:17:29.4504061 528   7020  Agent           Added update 786D7970-AF25-405D-BB26-A69C833336BA.200 to search result
    2016/03/01 19:17:29.4504116 528   7020  Agent           Added update EFFD9E18-3583-473D-BBA1-A7228B4B2FCC.200 to search result
    2016/03/01 19:17:29.4504148 528   7020  Agent           Added update 0425F850-66FA-4942-835D-A88BB242AA1B.200 to search result
    2016/03/01 19:17:29.4504170 528   7020  Agent           Added update 3992F2A8-1262-48E9-97FF-AB5866789BB8.200 to search result
    2016/03/01 19:17:29.4504196 528   7020  Agent           Added update 9A862164-FECB-46A9-A748-AFDD0E4984CD.200 to search result
    2016/03/01 19:17:29.4504221 528   7020  Agent           Added update A7F1639C-0B4F-49DD-AB8A-B96BF59EB5B0.200 to search result
    2016/03/01 19:17:29.4504247 528   7020  Agent           Added update 65BBFD1E-61AE-4F97-96F0-BF5819A5318B.200 to search result
    2016/03/01 19:17:29.4504269 528   7020  Agent           Added update 9661E29F-4E3F-4956-B67F-BF9539671B4B.200 to search result
    2016/03/01 19:17:29.4504295 528   7020  Agent           Added update 6392A1CF-0250-4745-AE80-CF89E084E8A2.200 to search result
    2016/03/01 19:17:29.4504324 528   7020  Agent           Added update 4F78A5BA-331F-4409-82F9-D36D49D01127.200 to search result
    2016/03/01 19:17:29.4504365 528   7020  Agent           Added update 9D752486-4179-4A77-A38A-E0EA99BCB2B3.200 to search result
    2016/03/01 19:17:29.4504394 528   7020  Agent           Added update A683AE34-1C7E-4E52-B3D5-E63C2FA0B219.200 to search result
    2016/03/01 19:17:29.4504420 528   7020  Agent           Added update 12A096E7-D2F3-47BF-A47A-F2DD524FF382.200 to search result
    2016/03/01 19:17:29.4504445 528   7020  Agent           Added update AF777084-733F-4EE7-BB52-F47CCE18AD77.200 to search result
    2016/03/01 19:17:29.4504487 528   7020  Agent           Added update 02C3684B-A9A3-4507-87A8-F59B071F248D.200 to search result
    2016/03/01 19:17:29.4504513 528   7020  Agent           Added update 9A0252AD-6EFA-4CD7-AE99-FA42424121AE.200 to search result
    2016/03/01 19:17:29.4504541 528   7020  Agent           Added update 5E41F02D-6D21-4FDA-AC25-FBA48ED50452.200 to search result
    2016/03/01 19:17:29.4504567 528   7020  Agent           Added update E956B4F1-4340-4EC5-8D4B-FF3D2CBE7A4A.200 to search result
    2016/03/01 19:17:29.4504596 528   7020  Agent           Added update EDE0C184-119B-442F-A6F7-6B014FD64727.200 to search result
    2016/03/01 19:17:29.4504618 528   7020  Agent           Added update A7D6198A-8C9D-483A-B95F-EF4D64A0EA19.200 to search result
    2016/03/01 19:17:29.4504644 528   7020  Agent           Added update DB124576-60F5-49A7-BF46-9D88BDEC7EAE.200 to search result
    2016/03/01 19:17:29.4504817 528   7020  Agent           Added update B6392B54-852D-43F4-828C-2376EAA3C67F.200 to search result
    2016/03/01 19:17:29.4504884 528   7020  Agent           Found 65 updates and 91 categories in search; evaluated appl. rules of 3335 out of 5179 deployed entities
    2016/03/01 19:17:29.4752185 528   7020  Agent           * END * Finding updates CallerId = UpdateOrchestrator  Id = 10
    2016/03/01 19:17:29.4795037 528   2164  ComApi          *RESUMED* Search ClientId = UpdateOrchestrator
    2016/03/01 19:17:29.5086559 528   2164  ComApi          Updates found = 65
    2016/03/01 19:17:29.5086565 528   2164  ComApi          Reboot required
    2016/03/01 19:17:29.5086568 528   2164  ComApi          * END *   Search ClientId = UpdateOrchestrator
    2016/03/01 19:17:29.5238437 528   9852  ComApi          ISusInternal:: DisconnectCall failed, hr=8024000C
    2016/03/01 19:17:42.7854816 528   7048  ComApi          * START *   Commit   ClientId = UpdateOrchestrator
    2016/03/01 19:17:42.7858304 528   7048  DownloadManager Preparing update for install, updateId = {609E6E2A-0102-4606-BB0B-59B2507C2065}.200.
    2016/03/01 19:17:42.7965215 10144 7280  Handler         * START *   CBS Commit
    2016/03/01 19:17:42.7965222 10144 7280  Handler         Nothing to commit for non-OSUpgrade CBS updates.
    2016/03/01 19:17:42.7965222 10144 7280  Handler         * END *   CBS Commit
    2016/03/01 19:17:42.7965385 528   7048  Agent           Commit update {609E6E2A-0102-4606-BB0B-59B2507C2065}.200 HR=0
    2016/03/01 19:17:42.7966694 528   7048  ComApi          * END *   Commit   hr=0x00000000
    2016/03/01 19:18:11.9351035 528   8464  Agent           Earliest future timer found:
    2016/03/01 19:18:11.9351188 528   8464  Agent               Timer: 29A863E7-8609-4D1E-B7CD-5668F857F1DB, Expires 2016-03-03 01:13:41, not idle-only, not network-only
    2016/03/01 19:18:11.9601188 528   8464  Misc            CWUTaskManager | GetWUTaskFolder, could not create WU task folder hr=800706b5
    2016/03/01 19:18:11.9601207 528   8464  Misc            WUTaskManager couldn't register scheduled start task, hr=800706b5
    2016/03/01 19:18:11.9608090 528   8464  Agent           Sending shutdown notification to client
    2016/03/01 19:18:11.9608458 528   8464  Agent           Sending shutdown notification to client
    2016/03/01 19:18:11.9608698 528   8464  Agent           Sending shutdown notification to client
    2016/03/01 19:18:11.9608944 528   8464  Agent           Sending shutdown notification to client
    2016/03/01 19:18:11.9609172 528   8464  Agent           Sending shutdown notification to client
    2016/03/01 19:18:11.9609392 528   8464  Agent           Sending shutdown notification to client
    2016/03/01 19:18:11.9609607 528   8464  Agent           Sending shutdown notification to client
    2016/03/01 19:18:11.9609828 528   8464  Agent           Sending shutdown notification to client
    2016/03/01 19:18:11.9610036 528   8464  Agent           Sending shutdown notification to client
    2016/03/01 19:18:11.9610263 528   8464  Agent           Sending shutdown notification to client
    2016/03/01 19:18:11.9610493 528   8464  Agent           Sending shutdown notification to client
    2016/03/01 19:18:11.9610711 528   8464  Agent           Sending shutdown notification to client
    2016/03/01 19:18:11.9610909 528   8464  Agent           Sending shutdown notification to client
    2016/03/01 19:18:11.9611111 528   8464  Agent           Sending shutdown notification to client
    2016/03/01 19:18:11.9611357 528   8464  Agent           Sending shutdown notification to client
    2016/03/01 19:18:11.9611591 528   8464  Agent           Sending shutdown notification to client
    2016/03/01 19:18:11.9611821 528   8464  Agent           Sending shutdown notification to client
    2016/03/01 19:18:11.9612042 528   8464  Agent           Sending shutdown notification to client
    2016/03/01 19:18:11.9612276 528   8464  Agent           Sending shutdown notification to client
    2016/03/01 19:18:11.9612496 528   8464  Agent           Sending shutdown notification to client
    2016/03/01 19:18:11.9612717 528   8464  Agent           Sending shutdown notification to client
    2016/03/01 19:18:11.9612912 528   8464  Agent           Sending shutdown notification to client
    2016/03/01 19:18:11.9613127 528   8464  Agent           Sending shutdown notification to client
    2016/03/01 19:18:11.9613328 528   8464  Agent           Sending shutdown notification to client
    2016/03/01 19:18:11.9613524 528   8464  Agent           Sending shutdown notification to client
    2016/03/01 19:18:11.9613751 528   8464  Agent           Sending shutdown notification to client
    2016/03/01 19:18:11.9613972 528   8464  Agent           Sending shutdown notification to client
    2016/03/01 19:18:11.9614218 528   8464  Agent           Sending shutdown notification to client
    2016/03/01 19:18:11.9614672 528   8464  Agent           Sending shutdown notification to client
    2016/03/01 19:18:11.9614999 528   8464  Agent           Sending shutdown notification to client
    2016/03/01 19:18:11.9615255 528   8464  Agent           Sending shutdown notification to client
    2016/03/01 19:18:11.9615495 528   8464  Agent           Sending shutdown notification to client
    2016/03/01 19:18:11.9615866 528   8464  Agent           Sending shutdown notification to client
    2016/03/01 19:18:11.9616103 528   8464  Agent           Sending shutdown notification to client
    2016/03/01 19:18:11.9616349 528   8464  Agent           Sending shutdown notification to client
    2016/03/01 19:18:11.9616580 528   8464  Agent           Sending shutdown notification to client
    2016/03/01 19:18:11.9616784 528   8464  Agent           Sending shutdown notification to client
    2016/03/01 19:18:11.9617005 528   8464  Agent           Sending shutdown notification to client
    2016/03/01 19:18:11.9617364 528   8464  Agent           Sending shutdown notification to client
    2016/03/01 19:18:11.9617607 528   8464  Agent           Sending shutdown notification to client
    2016/03/01 19:18:11.9617853 528   8464  Agent           Sending shutdown notification to client
    2016/03/01 19:18:11.9618093 528   8464  Agent           Sending shutdown notification to client
    2016/03/01 19:18:11.9618295 528   8464  Agent           Sending shutdown notification to client
    2016/03/01 19:18:11.9618490 528   8464  Agent           Sending shutdown notification to client
    2016/03/01 19:18:11.9618717 528   8464  Agent           Sending shutdown notification to client
    2016/03/01 19:18:11.9618944 528   8464  Agent           Sending shutdown notification to client
    2016/03/01 19:18:11.9619172 528   8464  Agent           Sending shutdown notification to client
    2016/03/01 19:18:11.9619399 528   8464  Agent           Sending shutdown notification to client
    2016/03/01 19:18:11.9619600 528   8464  Agent           Sending shutdown notification to client
    2016/03/01 19:18:11.9619821 528   8464  Agent           Sending shutdown notification to client
    2016/03/01 19:18:11.9620048 528   8464  Agent           Sending shutdown notification to client
    2016/03/01 19:18:11.9620269 528   8464  Agent           Sending shutdown notification to client
    2016/03/01 19:18:11.9620474 528   8464  Agent           Sending shutdown notification to client
    2016/03/01 19:18:11.9620676 528   8464  Agent           Sending shutdown notification to client
    2016/03/01 19:18:11.9620906 528   8464  Agent           Sending shutdown notification to client
    2016/03/01 19:18:11.9621133 528   8464  Agent           Sending shutdown notification to client
    2016/03/01 19:18:11.9621354 528   8464  Agent           Sending shutdown notification to client
    2016/03/01 19:18:11.9621562 528   8464  Agent           Sending shutdown notification to client
    2016/03/01 19:18:11.9621760 528   8464  Agent           Sending shutdown notification to client
    2016/03/01 19:18:11.9621946 528   8464  Agent           Sending shutdown notification to client
    2016/03/01 19:18:11.9622141 528   8464  Agent           Sending shutdown notification to client
    2016/03/01 19:18:11.9622333 528   8464  Agent           Sending shutdown notification to client
    2016/03/01 19:18:11.9622532 528   8464  Agent           Sending shutdown notification to client
    2016/03/01 19:18:11.9622736 528   8464  Agent           Sending shutdown notification to client
    2016/03/01 19:18:11.9622922 528   8464  Agent           Sending shutdown notification to client
    2016/03/01 19:18:11.9623111 528   8464  Agent           Sending shutdown notification to client
    2016/03/01 19:18:11.9623300 528   8464  Agent           Sending shutdown notification to client
    2016/03/01 19:18:11.9623504 528   8464  Agent           Sending shutdown notification to client
    2016/03/01 19:18:11.9623703 528   8464  Agent           Sending shutdown notification to client
    2016/03/01 19:18:11.9623892 528   8464  Agent           Sending shutdown notification to client
    2016/03/01 19:18:11.9624093 528   8464  Agent           Sending shutdown notification to client
    2016/03/01 19:18:11.9624292 528   8464  Agent           Sending shutdown notification to client
    2016/03/01 19:18:11.9624480 528   8464  Agent           Sending shutdown notification to client
    2016/03/01 19:18:11.9624660 528   8464  Agent           Sending shutdown notification to client
    2016/03/01 19:18:11.9624842 528   8464  Agent           Sending shutdown notification to client
    2016/03/01 19:18:11.9625015 528   8464  Agent           Sending shutdown notification to client
    2016/03/01 19:18:11.9625204 528   8464  Agent           Sending shutdown notification to client
    2016/03/01 19:18:11.9625392 528   8464  Agent           Sending shutdown notification to client
    2016/03/01 19:18:11.9625572 528   8464  Agent           Sending shutdown notification to client
    2016/03/01 19:18:11.9625776 528   8464  Agent           Sending shutdown notification to client
    2016/03/01 19:18:11.9625965 528   8464  Agent           Sending shutdown notification to client
    2016/03/01 19:18:11.9626151 528   8464  Agent           Sending shutdown notification to client
    2016/03/01 19:18:11.9626336 528   8464  Agent           Sending shutdown notification to client
    2016/03/01 19:18:11.9626528 528   8464  Agent           Sending shutdown notification to client
    2016/03/01 19:18:11.9626723 528   8464  Agent           Sending shutdown notification to client
    2016/03/01 19:18:11.9626938 528   8464  Agent           Sending shutdown notification to client
    2016/03/01 19:18:11.9627130 528   8464  Agent           Sending shutdown notification to client
    2016/03/01 19:18:11.9627315 528   8464  Agent           Sending shutdown notification to client
    2016/03/01 19:18:11.9627495 528   8464  Agent           Sending shutdown notification to client
    2016/03/01 19:18:11.9627680 528   8464  Agent           Sending shutdown notification to client
    2016/03/01 19:18:11.9627866 528   8464  Agent           Sending shutdown notification to client
    2016/03/01 19:18:11.9628058 528   8464  Agent           Sending shutdown notification to client
    2016/03/01 19:18:11.9628247 528   8464  Agent           Sending shutdown notification to client
    2016/03/01 19:18:11.9628426 528   8464  Agent           Sending shutdown notification to client
    2016/03/01 19:18:11.9628592 528   8464  Agent           Sending shutdown notification to client
    2016/03/01 19:18:11.9628784 528   8464  Agent           Sending shutdown notification to client
    2016/03/01 19:18:11.9628973 528   8464  Agent           Sending shutdown notification to client
    2016/03/01 19:18:11.9629104 528   8464  Agent           Sending shutdown notification to client
    2016/03/01 19:18:11.9629261 528   8464  Agent           Sending shutdown notification to client
    2016/03/01 19:18:11.9629399 528   8464  Agent           Sending shutdown notification to client
    2016/03/01 19:18:11.9629530 528   8464  Agent           Sending shutdown notification to client
    2016/03/01 19:18:11.9629655 528   8464  Agent           Sending shutdown notification to client
    2016/03/01 19:18:11.9629783 528   8464  Agent           Sending shutdown notification to client
    2016/03/01 19:18:11.9629911 528   8464  Agent           Sending shutdown notification to client
    2016/03/01 19:18:11.9630035 528   8464  Agent           Sending shutdown notification to client
    2016/03/01 19:18:11.9630160 528   8464  Agent           Sending shutdown notification to client
    2016/03/01 19:18:11.9630288 528   8464  Agent           Sending shutdown notification to client
    2016/03/01 19:18:11.9630442 528   8464  Agent           Sending shutdown notification to client
    2016/03/01 19:18:11.9630631 528   8464  Agent           Sending shutdown notification to client
    2016/03/01 19:18:11.9630842 528   8464  Agent           Sending shutdown notification to client
    2016/03/01 19:18:11.9631075 528   8464  Agent           Sending shutdown notification to client
    2016/03/01 19:18:11.9631283 528   8464  Agent           Sending shutdown notification to client
    2016/03/01 19:18:11.9631501 528   8464  Agent           Sending shutdown notification to client
    2016/03/01 19:18:11.9631671 528   8464  Agent           Sending shutdown notification to client
    2016/03/01 19:18:11.9631834 528   8464  Agent           Sending shutdown notification to client
    2016/03/01 19:18:11.9632000 528   8464  Agent           Sending shutdown notification to client
    2016/03/01 19:18:11.9632173 528   8464  Agent           Sending shutdown notification to client
    2016/03/01 19:18:11.9632362 528   8464  Agent           Sending shutdown notification to client
    2016/03/01 19:18:11.9632576 528   8464  Agent           Sending shutdown notification to client
    2016/03/01 19:18:11.9632746 528   8464  Agent           Sending shutdown notification to client
    2016/03/01 19:18:11.9632877 528   8464  Agent           Sending shutdown notification to client
    2016/03/01 19:18:11.9633008 528   8464  Agent           Sending shutdown notification to client
    2016/03/01 19:18:11.9633133 528   8464  Agent           Sending shutdown notification to client
    2016/03/01 19:18:11.9633261 528   8464  Agent           Sending shutdown notification to client
    2016/03/01 19:18:11.9633408 528   8464  Agent           Sending shutdown notification to client
    2016/03/01 19:18:11.9633552 528   8464  Agent           Sending shutdown notification to client
    2016/03/01 19:18:11.9633690 528   8464  Agent           Sending shutdown notification to client
    2016/03/01 19:18:11.9633824 528   8464  Agent           Sending shutdown notification to client
    2016/03/01 19:18:11.9633952 528   8464  Agent           Sending shutdown notification to client
    2016/03/01 19:18:11.9634080 528   8464  Agent           Sending shutdown notification to client
    2016/03/01 19:18:11.9634211 528   8464  Agent           Sending shutdown notification to client
    2016/03/01 19:18:11.9634503 528   8464  Agent           Sending shutdown notification to client
    2016/03/01 19:18:11.9634704 528   8464  Agent           Sending shutdown notification to client
    2016/03/01 19:18:12.0777504 528   8464  Shared          * END * Service exit Exit code = 0x240001
    2016/03/01 19:19:21.4224148 1100  8124  Shared          * START * Service startup
    2016/03/01 19:19:21.4292724 1100  8124  Agent           WU client version 10.0.10586.103
    2016/03/01 19:19:21.4295166 1100  8124  Agent           SleepStudyTracker: Machine is non-AOAC. Sleep study tracker disabled.
    2016/03/01 19:19:21.4295802 1100  8124  Agent           Base directory: C:\WINDOWS\SoftwareDistribution
    2016/03/01 19:19:21.4298158 1100  8124  Shared          UpdateNetworkState Ipv6, cNetworkInterfaces = 5.
    2016/03/01 19:19:21.4298321 1100  8124  Shared          UpdateNetworkState Ipv4, cNetworkInterfaces = 1.
    2016/03/01 19:19:21.4320564 1100  8124  Shared          Network state: Connected
    2016/03/01 19:19:21.4415556 1100  8124  Shared          UpdateNetworkState Ipv6, cNetworkInterfaces = 5.
    2016/03/01 19:19:21.4415611 1100  8124  Shared          UpdateNetworkState Ipv4, cNetworkInterfaces = 1.
    2016/03/01 19:19:21.4415671 1100  8124  Shared          Power status changed
    2016/03/01 19:19:21.4588776 1100  8124  Agent               Timer: 29A863E7-8609-4D1E-B7CD-5668F857F1DB, Expires 2016-03-03 01:13:41, not idle-only, not network-only
    2016/03/01 19:19:21.4588798 1100  2456  Agent           Initializing global settings cache
    2016/03/01 19:19:21.4588805 1100  2456  Agent           WSUS server: NULL
    2016/03/01 19:19:21.4588808 1100  2456  Agent           WSUS status server: NULL
    2016/03/01 19:19:21.4588811 1100  2456  Agent           Target group: (Unassigned Computers)
    2016/03/01 19:19:21.4588814 1100  2456  Agent           Windows Update access disabled: No
    2016/03/01 19:19:21.4611310 1100  8124  Agent           Initializing Windows Update Agent
    2016/03/01 19:19:21.4614987 1100  8124  DownloadManager Download manager restoring 0 downloads
    2016/03/01 19:19:21.4619262 1100  8124  Agent           CPersistentTimeoutScheduler | GetTimer, returned hr = 0x00000000
    2016/03/01 19:19:21.4638229 1100  8124  Agent           Attempt 1 to obtain post-reboot results for event with cookie 30503969_672413329.
    2016/03/01 19:19:21.5918979 1100  8124  Handler         Post-reboot status for session 30503969_672413329: 0x80070002.
    2016/03/01 19:19:21.5918992 1100  8124  Handler         Got extended error: Driver servicing operation failed""
    2016/03/01 19:19:21.5920925 1100  8124  Handler         Failed to parse extended error: 0x80070057
    2016/03/01 19:19:21.7708502 448   3172  ComApi          *QUEUED* SLS Discovery
    2016/03/01 19:19:21.7831175 448   1712  ComApi          *RESUMED* Discovery
    2016/03/01 19:19:21.7831523 448   1712  Api             * END *   Discovery ClientId
    2016/03/01 19:19:21.7837815 448   3172  ComApi          ISusInternal:: DisconnectCall failed, hr=8024000C
    2016/03/01 19:19:21.8065207 448   2340  ComApi          * START *   SLS Discovery
    2016/03/01 19:19:21.8071828 448   2340  ComApi          *QUEUED* SLS Discovery
    2016/03/01 19:19:21.8087204 448   1456  ComApi          *RESUMED* Discovery
    2016/03/01 19:19:21.8087546 448   1456  Api             * END *   Discovery ClientId
    2016/03/01 19:19:21.8092932 448   2340  ComApi          ISusInternal:: DisconnectCall failed, hr=8024000C
    2016/03/01 19:19:23.2953256 1100  3188  DownloadManager PurgeExpiredFiles::Found 0 expired files to delete.
    2016/03/01 19:19:23.3146322 1100  3188  DownloadManager PurgeExpiredUpdates::Found 467 non expired updates.
    2016/03/01 19:19:23.3849911 1100  3188  DownloadManager PurgeExpiredUpdates::Found 0 expired updates.
    2016/03/01 19:19:23.3865197 1100  3188  Shared          Effective power state: AC
    2016/03/01 19:19:23.3865203 1100  3188  DownloadManager Power state change detected. Source now: AC
    2016/03/01 19:19:39.1419507 1100  3356  ComApi          * START *   Init Search ClientId = UpdateOrchestrator
    2016/03/01 19:19:39.1419526 1100  3356  ComApi          * START *   Search ClientId = UpdateOrchestrator
    2016/03/01 19:19:39.1463958 1100  3356  Agent           * START * Queueing Finding updates [CallerId = UpdateOrchestrator  Id = 3]
    2016/03/01 19:19:39.1463996 1100  3356  Agent           Added service 00000000-0000-0000-0000-000000000000 to sequential scan list
    2016/03/01 19:19:39.1464140 1100  3356  ComApi          Search ClientId = UpdateOrchestrator
    2016/03/01 19:19:39.1470988 1100  7388  Agent           * END * Queueing Finding updates [CallerId = UpdateOrchestrator  Id = 3]
    2016/03/01 19:19:39.1475232 1100  7388  Agent           * START * Finding updates CallerId = UpdateOrchestrator  Id = 3
    2016/03/01 19:19:39.1475238 1100  7388  Agent           Online = Yes; Ignore download priority = No
    2016/03/01 19:19:39.1475241 1100  7388  Agent           Criteria = IsInstalled=0 and DeploymentAction='Installation' or IsPresent=1 and DeploymentAction='Uninstallation' or IsInstalled=1 and DeploymentAction='Installation' and RebootRequired=1 or IsInstalled=0 and DeploymentAction='Uninstallation' and RebootRequired=1""
    2016/03/01 19:19:39.1475257 1100  7388  Agent           ServiceID = {00000000-0000-0000-0000-000000000000} Third party service
    2016/03/01 19:19:39.1475260 1100  7388  Agent           Search Scope = {Machine}
    2016/03/01 19:19:39.1475280 1100  7388  Agent           Caller SID for Applicability: S-1-5-21-1072330415-2185792746-4136086322-1000
    2016/03/01 19:19:39.1475283 1100  7388  Agent           RegisterService is set
    2016/03/01 19:19:39.1485792 1100  7388  Misc            Got 9482F4B4-E343-43B6-B170-9A65BC822C77 redir SecondaryServiceAuth URL: 7971f918-a847-4430-9279-4a52d1efe18d""
    2016/03/01 19:19:39.1519193 1100  7388  Misc            Got 7971F918-A847-4430-9279-4A52D1EFE18D redir Client/Server URL: https://fe2.update.microsoft.com/v6/...ce/client.asmx""
    2016/03/01 19:19:40.1901699 1100  7388  ProtocolTalker  ServiceId = {7971F918-A847-4430-9279-4A52D1EFE18D}, Server URL = https://fe2.update.microsoft.com/v6/...ce/client.asmx
    2016/03/01 19:19:40.1901767 1100  7388  ProtocolTalker  OK to reuse existing configuration
    2016/03/01 19:19:40.1901795 1100  7388  ProtocolTalker  Existing cookie is valid, just use it
    2016/03/01 19:19:41.4634267 1100  7388  WebServices     Auto proxy settings for this web service call.
    2016/03/01 19:19:42.0879090 1100  7388  ProtocolTalker  PTInfo: syncing with server using normal query
    2016/03/01 19:19:42.5738573 1100  7388  ProtocolTalker  SyncUpdates round trips: 2
    2016/03/01 19:19:42.5928429 1100  7388  Driver          Matched driver to device PCI\VEN_8086&DEV_3CE4&SUBSYS_84EF1043&REV_07
    2016/03/01 19:19:42.5928435 1100  7388  Driver          Status: 0x1802000, ProblemNumber: 00000000
    2016/03/01 19:19:42.5929632 1100  7388  Driver          DrvUtil: {PCI\VEN_8086&DEV_3CE4}
    2016/03/01 19:19:42.5930151 1100  7388  Driver          Matched driver to device PCI\VEN_8086&DEV_3C28&SUBSYS_84EF1043&REV_07
    2016/03/01 19:19:42.5930154 1100  7388  Driver          Status: 0x1802000, ProblemNumber: 00000000
    2016/03/01 19:19:42.5930631 1100  7388  Driver          DrvUtil: {PCI\VEN_8086&DEV_3C28}
    2016/03/01 19:19:42.5931325 1100  7388  Driver          Matched driver to device PCI\VEN_8086&DEV_3CD0&SUBSYS_84EF1043&REV_07
    2016/03/01 19:19:42.5931328 1100  7388  Driver          Status: 0x1802000, ProblemNumber: 00000000
    2016/03/01 19:19:42.5931575 1100  7388  Driver          DrvUtil: {PCI\VEN_8086&DEV_3CD0}
    2016/03/01 19:19:42.5931952 1100  7388  Driver          Matched driver to device PCI\VEN_8086&DEV_3C46&SUBSYS_84EF1043&REV_07
    2016/03/01 19:19:42.5931952 1100  7388  Driver          Status: 0x1802000, ProblemNumber: 00000000
    2016/03/01 19:19:42.5932509 1100  7388  Driver          DrvUtil: {PCI\VEN_8086&DEV_3C46}
    2016/03/01 19:19:42.5932752 1100  7388  Driver          Matched driver to device PCI\VEN_8086&DEV_3CE3&SUBSYS_84EF1043&REV_07
    2016/03/01 19:19:42.5932755 1100  7388  Driver          Status: 0x1802000, ProblemNumber: 00000000
    2016/03/01 19:19:42.5933447 1100  7388  Driver          DrvUtil: {PCI\VEN_8086&DEV_3CE3}
    2016/03/01 19:19:42.5933559 1100  7388  Driver          Matched driver to device PCI\VEN_8086&DEV_3CB8&SUBSYS_84EF1043&REV_07
    2016/03/01 19:19:42.5933562 1100  7388  Driver          Status: 0x1802000, ProblemNumber: 00000000
    2016/03/01 19:19:42.5934410 1100  7388  Driver          DrvUtil: {PCI\VEN_8086&DEV_3CB8}
    2016/03/01 19:19:42.5934560 1100  7388  Driver          Matched driver to device PCI\VEN_8086&DEV_3CB7&SUBSYS_84EF1043&REV_07
    2016/03/01 19:19:42.5934563 1100  7388  Driver          Status: 0x1802000, ProblemNumber: 00000000
    2016/03/01 19:19:42.5935351 1100  7388  Driver          DrvUtil: {PCI\VEN_8086&DEV_3CB7}
    2016/03/01 19:19:42.5935491 1100  7388  Driver          Matched driver to device PCI\VEN_8086&DEV_3CC0&SUBSYS_84EF1043&REV_07
    2016/03/01 19:19:42.5935495 1100  7388  Driver          Status: 0x1802000, ProblemNumber: 00000000
    2016/03/01 19:19:42.5936327 1100  7388  Driver          DrvUtil: {PCI\VEN_8086&DEV_3CC0}
    2016/03/01 19:19:42.5937248 1100  7388  Driver          Matched driver to device PCI\VEN_8086&DEV_3CAA&SUBSYS_84EF1043&REV_07
    2016/03/01 19:19:42.5937251 1100  7388  Driver          Status: 0x1802000, ProblemNumber: 00000000
    2016/03/01 19:19:42.5937271 1100  7388  Driver          DrvUtil: {PCI\VEN_8086&DEV_3CAA}
    2016/03/01 19:19:42.5937616 1100  7388  Driver          Matched driver to device PCI\VEN_8086&DEV_3C2C&SUBSYS_84EF1043&REV_07
    2016/03/01 19:19:42.5937619 1100  7388  Driver          Status: 0x1802000, ProblemNumber: 00000000
    2016/03/01 19:19:42.5938211 1100  7388  Driver          DrvUtil: {PCI\VEN_8086&DEV_3C2C}
    2016/03/01 19:19:42.5938464 1100  7388  Driver          Matched driver to device PCI\VEN_8086&DEV_3CB5&SUBSYS_84EF1043&REV_07
    2016/03/01 19:19:42.5938464 1100  7388  Driver          Status: 0x1802000, ProblemNumber: 00000000
    2016/03/01 19:19:42.5939146 1100  7388  Driver          DrvUtil: {PCI\VEN_8086&DEV_3CB5}
    2016/03/01 19:19:42.5939623 1100  7388  Driver          Matched driver to device PCI\VEN_8086&DEV_3C45&SUBSYS_84EF1043&REV_07
    2016/03/01 19:19:42.5939626 1100  7388  Driver          Status: 0x1802000, ProblemNumber: 00000000
    2016/03/01 19:19:42.5940083 1100  7388  Driver          DrvUtil: {PCI\VEN_8086&DEV_3C45}
    2016/03/01 19:19:42.5940784 1100  7388  Driver          Matched driver to device PCI\VEN_8086&DEV_3CF5&SUBSYS_84EF1043&REV_07
    2016/03/01 19:19:42.5940787 1100  7388  Driver          Status: 0x1802000, ProblemNumber: 00000000
    2016/03/01 19:19:42.5941027 1100  7388  Driver          DrvUtil: {PCI\VEN_8086&DEV_3CF5}
    2016/03/01 19:19:42.5941898 1100  7388  Driver          Matched driver to device PCI\VEN_8086&DEV_3CE8&SUBSYS_84EF1043&REV_07
    2016/03/01 19:19:42.5941901 1100  7388  Driver          Status: 0x1802000, ProblemNumber: 00000000
    2016/03/01 19:19:42.5941907 1100  7388  Driver          Matched driver to device PCI\VEN_8086&DEV_3CE8&SUBSYS_84EF1043&REV_07
    2016/03/01 19:19:42.5941907 1100  7388  Driver          Status: 0x1802000, ProblemNumber: 00000000
    2016/03/01 19:19:42.5941914 1100  7388  Driver          Matched driver to device PCI\VEN_8086&DEV_3CE8&SUBSYS_84EF1043&REV_07
      My ComputerSystem Spec


  6. Posts : 30,344
    Windows10Pro 64Bit - Build 15063.483
       02 Mar 2016 #16

    Did you look at services (type services in your search window) and scroll down to see what Windows Firewall is set too??
      My ComputersSystem Spec


  7. Posts : 11,945
    W10Prox64
       02 Mar 2016 #17

    Sorry for the delay in responding.

    Okay, just to recap:
    So we've done sfc /scannow, and it found and fixed corruptions. Did you ever run it and get a clean bill of health: "No integrity violations found"? Because sometimes, some things have to be fixed first, before others can be fixed. Reboots should be done in-between runs.

    DISM scanhealth and restorehealth found nothing.

    Clean boot made no difference.

    Standalone install failed as well.

    There's enough free space on your HDD?

    Have you run CHKDSK on the HDD?

    Not sure you answered this previous question: Any BT devices connected that you can get rid of temporarily? Or phone software which installs BT-related drivers?



    Async stage operation completed with 0x800f0816
    ISusInternal:: DisconnectCall failed, hr=8024000C
    GetWUTaskFolder, could not create WU task folder hr=800706b5
    WUTaskManager couldn't register scheduled start task, hr=800706b5
    Got extended error: Driver servicing operation failed
    Failed to parse extended error: 0x80070057
    Any proxies on this thing? If so, please reset; at a command prompt, type the following command, and then press Enter: netsh winhttp reset proxy

    Can you run the WU Troubleshooter and see what errors it gives
    https://support.microsoft.com/en-us/...20Windows%2010
      My ComputerSystem Spec

  8.    02 Mar 2016 #18

    OldMike65 said: View Post
    Did you look at services (type services in your search window) and scroll down to see what Windows Firewall is set too??
    Windows Firewall is set to automatic.
      My ComputerSystem Spec

  9.    02 Mar 2016 #19

    simrick said: View Post
    Sorry for the delay in responding.

    Okay, just to recap:
    So we've done sfc /scannow, and it found and fixed corruptions. Did you ever run it and get a clean bill of health: "No integrity violations found"? Because sometimes, some things have to be fixed first, before others can be fixed. Reboots should be done in-between runs.

    DISM scanhealth and restorehealth found nothing.

    Clean boot made no difference.

    Standalone install failed as well.

    There's enough free space on your HDD?

    Have you run CHKDSK on the HDD?

    Not sure you answered this previous question: Any BT devices connected that you can get rid of temporarily? Or phone software which installs BT-related drivers?





    Any proxies on this thing? If so, please reset; at a command prompt, type the following command, and then press Enter: netsh winhttp reset proxy

    Can you run the WU Troubleshooter and see what errors it gives
    https://support.microsoft.com/en-us/...20Windows%2010
    Correct, I did all those things and no go. I am running sfc /scannow again right now

    I have more than enough room on the SSD. No Bluetooth is connected. I use to use a Bluetooth dongle but no longer need it. My mother board has it built in but it is disabled in bios since he had not been working.

    There are no proxies I am aware of to connect. How can I check for sure?

    Edit: sfc /scannow showed no issues
      My ComputerSystem Spec


  10. Posts : 11,945
    W10Prox64
       02 Mar 2016 #20

    mpoffo said: View Post
    Correct, I did all those things and no go. I am running sfc /scannow again right now
    Okay.
    mpoffo said: View Post
    I have more than enough room on the SSD. No Bluetooth is connected. I use to use a Bluetooth dongle but no longer need it. My mother board has it built in but it is disabled in bios since he had not been working.
    Okay. Edit: it has been completely deleted from Device Manager, including drivers, yes?
    mpoffo said: View Post
    There are no proxies I am aware of to connect. How can I check for sure?
    mmmm....run the reset command. Can you also D/L and run RKILL and post the log file here for me please?
    mpoffo said: View Post
    Edit: sfc /scannow showed no issues
    Okay good, thanks.

    Please advise the results of the WU TS.
    Windows Update Troubleshooter - Windows Help -
      My ComputerSystem Spec


 
Page 2 of 5 FirstFirst 1234 ... LastLast

Related Threads
Cumulative Update for Windows 10 Version 1511 KB3140743 Update for Windows 10 Version 1511 x64-Systeme (KB3139907) 67197 Build String: 10.0.10586.122.th2_release_inmarket.160222-1549 Manually download:...
Nvidia Driver Fails to Update in Windows Updates and Activation
Hello all, I'm having an issue with windows update. I have an Nvidia driver for my GTX275 that keeps failing to update. This has stopped all other pending updates. I have since disabled Windows from getting driver updates but I can't figure...
When the Windows 10 Fall update (threshold 2) was released several days ago I tried updating via Windows update; it failed to install the update several times. Yesterday it started saying that my computer was up to date and I know threshold 2 has...
Not cause by virus .. this just started today. I tried a restore point of yesterday .. nothing. I have tried several suggestions from the web but nothing seems to do it? I know it would be better if i could name them but can't remember the exact...
Store fails to update in Software and Apps
Hello! i just installed windows 10 preview and everything went fine. When i tried to open store after finishing the windows update an error prompted. There was a message saying "Well , this is embarrassing . We can't seem to start the store update...
Our Sites
Site Links
About Us
Windows 10 Forums is an independent web site and has not been authorized, sponsored, or otherwise approved by Microsoft Corporation. "Windows 10" and related materials are trademarks of Microsoft Corp.

Designer Media Ltd
All times are GMT -5. The time now is 23:54.
Find Us